<?xml version="1.0" encoding="UTF-8" standalone="no" ?>
<gpx xmlns="http://www.topografix.com/GPX/1/1" xmlns:xsi="http://www.w3.org/2001/XMLSchema-instance" xsi:schemaLocation="http://www.topografix.com/GPX/1/1 http://www.topografix.com/GPX/1/1/gpx.xsd" version="1.1" creator="VisuGPX - https://www.visugpx.com">
  <metadata>
    <name>2019 Vercors J4</name>
  </metadata>
  <trk>
    <name><![CDATA[2019-06-01 07:21:20]]></name>
    <trkseg>
      <trkpt lat="44.77663" lon="5.50736">
        <ele>1683.26</ele>
        <time>2019-06-01T05:21:06.999Z</time>
      </trkpt>
      <trkpt lat="44.7768" lon="5.50745">
        <ele>1686.38</ele>
        <time>2019-06-01T05:21:35.999Z</time>
      </trkpt>
      <trkpt lat="44.77671" lon="5.50752">
        <ele>1682.28</ele>
        <time>2019-06-01T05:23:05.999Z</time>
      </trkpt>
      <trkpt lat="44.77662" lon="5.50757">
        <ele>1682.04</ele>
        <time>2019-06-01T05:23:12.999Z</time>
      </trkpt>
      <trkpt lat="44.77653" lon="5.50763">
        <ele>1682.14</ele>
        <time>2019-06-01T05:23:24.999Z</time>
      </trkpt>
      <trkpt lat="44.77645" lon="5.50768">
        <ele>1682.46</ele>
        <time>2019-06-01T05:23:34.999Z</time>
      </trkpt>
      <trkpt lat="44.77638" lon="5.50777">
        <ele>1683.42</ele>
        <time>2019-06-01T05:23:51.999Z</time>
      </trkpt>
      <trkpt lat="44.77631" lon="5.50786">
        <ele>1684.3</ele>
        <time>2019-06-01T05:23:59.999Z</time>
      </trkpt>
      <trkpt lat="44.77622" lon="5.5079">
        <ele>1686.08</ele>
        <time>2019-06-01T05:24:11.999Z</time>
      </trkpt>
      <trkpt lat="44.77613" lon="5.50788">
        <ele>1687.15</ele>
        <time>2019-06-01T05:24:19.999Z</time>
      </trkpt>
      <trkpt lat="44.77604" lon="5.50786">
        <ele>1688.02</ele>
        <time>2019-06-01T05:24:29.999Z</time>
      </trkpt>
      <trkpt lat="44.77595" lon="5.50782">
        <ele>1689.51</ele>
        <time>2019-06-01T05:24:41.999Z</time>
      </trkpt>
      <trkpt lat="44.77586" lon="5.5078">
        <ele>1690.88</ele>
        <time>2019-06-01T05:24:55.999Z</time>
      </trkpt>
      <trkpt lat="44.77583" lon="5.50793">
        <ele>1692.58</ele>
        <time>2019-06-01T05:25:13.999Z</time>
      </trkpt>
      <trkpt lat="44.77577" lon="5.50802">
        <ele>1693.63</ele>
        <time>2019-06-01T05:25:21.999Z</time>
      </trkpt>
      <trkpt lat="44.77567" lon="5.50807">
        <ele>1694.93</ele>
        <time>2019-06-01T05:25:28.999Z</time>
      </trkpt>
      <trkpt lat="44.77558" lon="5.50809">
        <ele>1696.54</ele>
        <time>2019-06-01T05:25:37.999Z</time>
      </trkpt>
      <trkpt lat="44.77549" lon="5.50802">
        <ele>1697.25</ele>
        <time>2019-06-01T05:25:43.999Z</time>
      </trkpt>
      <trkpt lat="44.7754" lon="5.50799">
        <ele>1698.79</ele>
        <time>2019-06-01T05:25:56.999Z</time>
      </trkpt>
      <trkpt lat="44.77531" lon="5.50803">
        <ele>1699.73</ele>
        <time>2019-06-01T05:26:04.999Z</time>
      </trkpt>
      <trkpt lat="44.77524" lon="5.50812">
        <ele>1700.88</ele>
        <time>2019-06-01T05:26:11.999Z</time>
      </trkpt>
      <trkpt lat="44.77516" lon="5.5082">
        <ele>1701.83</ele>
        <time>2019-06-01T05:26:18.999Z</time>
      </trkpt>
      <trkpt lat="44.77508" lon="5.50831">
        <ele>1702.39</ele>
        <time>2019-06-01T05:26:26.999Z</time>
      </trkpt>
      <trkpt lat="44.77502" lon="5.5084">
        <ele>1703.91</ele>
        <time>2019-06-01T05:26:42.999Z</time>
      </trkpt>
      <trkpt lat="44.77492" lon="5.50836">
        <ele>1704.78</ele>
        <time>2019-06-01T05:26:52.999Z</time>
      </trkpt>
      <trkpt lat="44.77485" lon="5.50827">
        <ele>1705.03</ele>
        <time>2019-06-01T05:26:59.999Z</time>
      </trkpt>
      <trkpt lat="44.77478" lon="5.50821">
        <ele>1705.43</ele>
        <time>2019-06-01T05:27:10.999Z</time>
      </trkpt>
      <trkpt lat="44.77469" lon="5.50817">
        <ele>1705.89</ele>
        <time>2019-06-01T05:27:16.999Z</time>
      </trkpt>
      <trkpt lat="44.77459" lon="5.50817">
        <ele>1707.07</ele>
        <time>2019-06-01T05:27:23.999Z</time>
      </trkpt>
      <trkpt lat="44.77449" lon="5.50818">
        <ele>1708.37</ele>
        <time>2019-06-01T05:27:31.999Z</time>
      </trkpt>
      <trkpt lat="44.7744" lon="5.50825">
        <ele>1709.37</ele>
        <time>2019-06-01T05:27:40.999Z</time>
      </trkpt>
      <trkpt lat="44.77436" lon="5.50836">
        <ele>1710.34</ele>
        <time>2019-06-01T05:27:53.999Z</time>
      </trkpt>
      <trkpt lat="44.77443" lon="5.50845">
        <ele>1711.43</ele>
        <time>2019-06-01T05:28:05.999Z</time>
      </trkpt>
      <trkpt lat="44.77434" lon="5.50842">
        <ele>1712.71</ele>
        <time>2019-06-01T05:28:40.999Z</time>
      </trkpt>
      <trkpt lat="44.77425" lon="5.50841">
        <ele>1713.58</ele>
        <time>2019-06-01T05:28:50.999Z</time>
      </trkpt>
      <trkpt lat="44.77415" lon="5.50841">
        <ele>1714.49</ele>
        <time>2019-06-01T05:28:59.999Z</time>
      </trkpt>
      <trkpt lat="44.77407" lon="5.50834">
        <ele>1716.69</ele>
        <time>2019-06-01T05:29:16.999Z</time>
      </trkpt>
      <trkpt lat="44.77401" lon="5.50825">
        <ele>1718.84</ele>
        <time>2019-06-01T05:29:34.999Z</time>
      </trkpt>
      <trkpt lat="44.77401" lon="5.50811">
        <ele>1720.14</ele>
        <time>2019-06-01T05:29:43.999Z</time>
      </trkpt>
      <trkpt lat="44.77396" lon="5.50799">
        <ele>1721.95</ele>
        <time>2019-06-01T05:29:54.999Z</time>
      </trkpt>
      <trkpt lat="44.77399" lon="5.50787">
        <ele>1722.8</ele>
        <time>2019-06-01T05:30:04.999Z</time>
      </trkpt>
      <trkpt lat="44.77403" lon="5.50774">
        <ele>1723.42</ele>
        <time>2019-06-01T05:30:13.999Z</time>
      </trkpt>
      <trkpt lat="44.774" lon="5.50762">
        <ele>1723.92</ele>
        <time>2019-06-01T05:30:21.999Z</time>
      </trkpt>
      <trkpt lat="44.77404" lon="5.5075">
        <ele>1724.64</ele>
        <time>2019-06-01T05:30:29.999Z</time>
      </trkpt>
      <trkpt lat="44.77409" lon="5.50738">
        <ele>1725.34</ele>
        <time>2019-06-01T05:30:37.999Z</time>
      </trkpt>
      <trkpt lat="44.77411" lon="5.50725">
        <ele>1725.85</ele>
        <time>2019-06-01T05:30:46.999Z</time>
      </trkpt>
      <trkpt lat="44.77417" lon="5.50715">
        <ele>1726.21</ele>
        <time>2019-06-01T05:30:56.999Z</time>
      </trkpt>
      <trkpt lat="44.77424" lon="5.50706">
        <ele>1726.79</ele>
        <time>2019-06-01T05:31:10.999Z</time>
      </trkpt>
      <trkpt lat="44.7743" lon="5.50697">
        <ele>1726.83</ele>
        <time>2019-06-01T05:31:20.999Z</time>
      </trkpt>
      <trkpt lat="44.77433" lon="5.50685">
        <ele>1726.91</ele>
        <time>2019-06-01T05:31:31.999Z</time>
      </trkpt>
      <trkpt lat="44.77441" lon="5.50677">
        <ele>1727.03</ele>
        <time>2019-06-01T05:31:43.999Z</time>
      </trkpt>
      <trkpt lat="44.77449" lon="5.50671">
        <ele>1727.45</ele>
        <time>2019-06-01T05:31:58.999Z</time>
      </trkpt>
      <trkpt lat="44.7746" lon="5.50673">
        <ele>1727.38</ele>
        <time>2019-06-01T05:32:06.999Z</time>
      </trkpt>
      <trkpt lat="44.77469" lon="5.50675">
        <ele>1727.3</ele>
        <time>2019-06-01T05:32:13.999Z</time>
      </trkpt>
      <trkpt lat="44.77479" lon="5.50677">
        <ele>1727.17</ele>
        <time>2019-06-01T05:32:19.999Z</time>
      </trkpt>
      <trkpt lat="44.77489" lon="5.50679">
        <ele>1726.9</ele>
        <time>2019-06-01T05:32:29.999Z</time>
      </trkpt>
      <trkpt lat="44.77499" lon="5.5068">
        <ele>1726.59</ele>
        <time>2019-06-01T05:32:38.999Z</time>
      </trkpt>
      <trkpt lat="44.77508" lon="5.50681">
        <ele>1726.67</ele>
        <time>2019-06-01T05:32:45.999Z</time>
      </trkpt>
      <trkpt lat="44.77518" lon="5.50683">
        <ele>1727</ele>
        <time>2019-06-01T05:32:52.999Z</time>
      </trkpt>
      <trkpt lat="44.77527" lon="5.5068">
        <ele>1727.14</ele>
        <time>2019-06-01T05:33:00.999Z</time>
      </trkpt>
      <trkpt lat="44.77536" lon="5.50673">
        <ele>1726.74</ele>
        <time>2019-06-01T05:33:07.999Z</time>
      </trkpt>
      <trkpt lat="44.77539" lon="5.50661">
        <ele>1725.86</ele>
        <time>2019-06-01T05:33:16.999Z</time>
      </trkpt>
      <trkpt lat="44.77539" lon="5.50647">
        <ele>1724.97</ele>
        <time>2019-06-01T05:33:24.999Z</time>
      </trkpt>
      <trkpt lat="44.77536" lon="5.50635">
        <ele>1724.39</ele>
        <time>2019-06-01T05:33:31.999Z</time>
      </trkpt>
      <trkpt lat="44.77533" lon="5.50622">
        <ele>1723.53</ele>
        <time>2019-06-01T05:33:44.999Z</time>
      </trkpt>
      <trkpt lat="44.77525" lon="5.50613">
        <ele>1723.25</ele>
        <time>2019-06-01T05:33:54.999Z</time>
      </trkpt>
      <trkpt lat="44.77519" lon="5.50604">
        <ele>1722.98</ele>
        <time>2019-06-01T05:34:01.999Z</time>
      </trkpt>
      <trkpt lat="44.77511" lon="5.50596">
        <ele>1722.69</ele>
        <time>2019-06-01T05:34:09.999Z</time>
      </trkpt>
      <trkpt lat="44.77503" lon="5.50589">
        <ele>1722.44</ele>
        <time>2019-06-01T05:34:15.999Z</time>
      </trkpt>
      <trkpt lat="44.77495" lon="5.50583">
        <ele>1721.9</ele>
        <time>2019-06-01T05:34:22.999Z</time>
      </trkpt>
      <trkpt lat="44.77487" lon="5.50575">
        <ele>1721.72</ele>
        <time>2019-06-01T05:34:29.999Z</time>
      </trkpt>
      <trkpt lat="44.77479" lon="5.50567">
        <ele>1721.65</ele>
        <time>2019-06-01T05:34:37.999Z</time>
      </trkpt>
      <trkpt lat="44.77469" lon="5.50564">
        <ele>1721.36</ele>
        <time>2019-06-01T05:34:46.999Z</time>
      </trkpt>
      <trkpt lat="44.7746" lon="5.50559">
        <ele>1720.87</ele>
        <time>2019-06-01T05:34:55.999Z</time>
      </trkpt>
      <trkpt lat="44.77452" lon="5.50551">
        <ele>1720.51</ele>
        <time>2019-06-01T05:35:03.999Z</time>
      </trkpt>
      <trkpt lat="44.77442" lon="5.50551">
        <ele>1719.13</ele>
        <time>2019-06-01T05:35:13.999Z</time>
      </trkpt>
      <trkpt lat="44.77433" lon="5.50552">
        <ele>1718.1</ele>
        <time>2019-06-01T05:35:27.999Z</time>
      </trkpt>
      <trkpt lat="44.77424" lon="5.50552">
        <ele>1717.62</ele>
        <time>2019-06-01T05:35:39.999Z</time>
      </trkpt>
      <trkpt lat="44.77415" lon="5.50547">
        <ele>1716.76</ele>
        <time>2019-06-01T05:35:52.999Z</time>
      </trkpt>
      <trkpt lat="44.77406" lon="5.50542">
        <ele>1716.01</ele>
        <time>2019-06-01T05:36:00.999Z</time>
      </trkpt>
      <trkpt lat="44.77399" lon="5.50534">
        <ele>1714.43</ele>
        <time>2019-06-01T05:36:13.999Z</time>
      </trkpt>
      <trkpt lat="44.77389" lon="5.50532">
        <ele>1712.65</ele>
        <time>2019-06-01T05:36:22.999Z</time>
      </trkpt>
      <trkpt lat="44.7738" lon="5.50526">
        <ele>1711.19</ele>
        <time>2019-06-01T05:36:29.999Z</time>
      </trkpt>
      <trkpt lat="44.77371" lon="5.5052">
        <ele>1709.99</ele>
        <time>2019-06-01T05:36:38.999Z</time>
      </trkpt>
      <trkpt lat="44.77364" lon="5.50511">
        <ele>1709.39</ele>
        <time>2019-06-01T05:36:45.999Z</time>
      </trkpt>
      <trkpt lat="44.77361" lon="5.50498">
        <ele>1708.82</ele>
        <time>2019-06-01T05:36:54.999Z</time>
      </trkpt>
      <trkpt lat="44.77357" lon="5.50486">
        <ele>1708.93</ele>
        <time>2019-06-01T05:37:02.999Z</time>
      </trkpt>
      <trkpt lat="44.77351" lon="5.50475">
        <ele>1709.1</ele>
        <time>2019-06-01T05:37:12.999Z</time>
      </trkpt>
      <trkpt lat="44.77347" lon="5.50462">
        <ele>1709.64</ele>
        <time>2019-06-01T05:37:18.999Z</time>
      </trkpt>
      <trkpt lat="44.77347" lon="5.50449">
        <ele>1710.7</ele>
        <time>2019-06-01T05:37:28.999Z</time>
      </trkpt>
      <trkpt lat="44.7735" lon="5.50436">
        <ele>1711.02</ele>
        <time>2019-06-01T05:37:35.999Z</time>
      </trkpt>
      <trkpt lat="44.7735" lon="5.50423">
        <ele>1711.29</ele>
        <time>2019-06-01T05:37:42.999Z</time>
      </trkpt>
      <trkpt lat="44.7735" lon="5.5041">
        <ele>1711.44</ele>
        <time>2019-06-01T05:37:49.999Z</time>
      </trkpt>
      <trkpt lat="44.77346" lon="5.50398">
        <ele>1711.35</ele>
        <time>2019-06-01T05:37:57.999Z</time>
      </trkpt>
      <trkpt lat="44.77338" lon="5.5039">
        <ele>1710.77</ele>
        <time>2019-06-01T05:38:07.999Z</time>
      </trkpt>
      <trkpt lat="44.77331" lon="5.50381">
        <ele>1710.26</ele>
        <time>2019-06-01T05:38:16.999Z</time>
      </trkpt>
      <trkpt lat="44.77324" lon="5.50372">
        <ele>1710.01</ele>
        <time>2019-06-01T05:38:28.999Z</time>
      </trkpt>
      <trkpt lat="44.7732" lon="5.5036">
        <ele>1709.64</ele>
        <time>2019-06-01T05:38:37.999Z</time>
      </trkpt>
      <trkpt lat="44.77314" lon="5.50351">
        <ele>1708.86</ele>
        <time>2019-06-01T05:38:45.000Z</time>
      </trkpt>
      <trkpt lat="44.77307" lon="5.50342">
        <ele>1707.66</ele>
        <time>2019-06-01T05:38:55.000Z</time>
      </trkpt>
      <trkpt lat="44.77302" lon="5.5033">
        <ele>1707.06</ele>
        <time>2019-06-01T05:39:05.000Z</time>
      </trkpt>
      <trkpt lat="44.77295" lon="5.50321">
        <ele>1706.47</ele>
        <time>2019-06-01T05:39:16.000Z</time>
      </trkpt>
      <trkpt lat="44.77289" lon="5.50311">
        <ele>1705.44</ele>
        <time>2019-06-01T05:39:27.000Z</time>
      </trkpt>
      <trkpt lat="44.77281" lon="5.50303">
        <ele>1705.18</ele>
        <time>2019-06-01T05:39:35.000Z</time>
      </trkpt>
      <trkpt lat="44.77275" lon="5.50293">
        <ele>1704.86</ele>
        <time>2019-06-01T05:39:43.000Z</time>
      </trkpt>
      <trkpt lat="44.77269" lon="5.50284">
        <ele>1704.08</ele>
        <time>2019-06-01T05:39:50.000Z</time>
      </trkpt>
      <trkpt lat="44.77261" lon="5.50275">
        <ele>1702.9</ele>
        <time>2019-06-01T05:40:00.000Z</time>
      </trkpt>
      <trkpt lat="44.77256" lon="5.50264">
        <ele>1701.7</ele>
        <time>2019-06-01T05:40:12.000Z</time>
      </trkpt>
      <trkpt lat="44.7725" lon="5.50253">
        <ele>1700.83</ele>
        <time>2019-06-01T05:40:24.000Z</time>
      </trkpt>
      <trkpt lat="44.77242" lon="5.50247">
        <ele>1699.86</ele>
        <time>2019-06-01T05:40:36.000Z</time>
      </trkpt>
      <trkpt lat="44.77233" lon="5.50237">
        <ele>1699.27</ele>
        <time>2019-06-01T05:40:42.000Z</time>
      </trkpt>
      <trkpt lat="44.77225" lon="5.5023">
        <ele>1699.07</ele>
        <time>2019-06-01T05:40:50.000Z</time>
      </trkpt>
      <trkpt lat="44.77218" lon="5.50223">
        <ele>1699.21</ele>
        <time>2019-06-01T05:40:59.000Z</time>
      </trkpt>
      <trkpt lat="44.77209" lon="5.50219">
        <ele>1699.2</ele>
        <time>2019-06-01T05:41:09.000Z</time>
      </trkpt>
      <trkpt lat="44.772" lon="5.50216">
        <ele>1700.14</ele>
        <time>2019-06-01T05:41:21.000Z</time>
      </trkpt>
      <trkpt lat="44.77191" lon="5.50212">
        <ele>1701.16</ele>
        <time>2019-06-01T05:41:31.000Z</time>
      </trkpt>
      <trkpt lat="44.77182" lon="5.50208">
        <ele>1702.09</ele>
        <time>2019-06-01T05:41:41.000Z</time>
      </trkpt>
      <trkpt lat="44.77173" lon="5.50204">
        <ele>1702.52</ele>
        <time>2019-06-01T05:41:48.000Z</time>
      </trkpt>
      <trkpt lat="44.77163" lon="5.50199">
        <ele>1702.74</ele>
        <time>2019-06-01T05:41:54.000Z</time>
      </trkpt>
      <trkpt lat="44.77154" lon="5.50193">
        <ele>1702.68</ele>
        <time>2019-06-01T05:42:02.000Z</time>
      </trkpt>
      <trkpt lat="44.77146" lon="5.50187">
        <ele>1702.4</ele>
        <time>2019-06-01T05:42:10.000Z</time>
      </trkpt>
      <trkpt lat="44.77139" lon="5.50179">
        <ele>1702.6</ele>
        <time>2019-06-01T05:42:17.000Z</time>
      </trkpt>
      <trkpt lat="44.77131" lon="5.5017">
        <ele>1703.13</ele>
        <time>2019-06-01T05:42:27.000Z</time>
      </trkpt>
      <trkpt lat="44.77124" lon="5.50161">
        <ele>1703.54</ele>
        <time>2019-06-01T05:42:36.000Z</time>
      </trkpt>
      <trkpt lat="44.77116" lon="5.50153">
        <ele>1703.86</ele>
        <time>2019-06-01T05:42:45.000Z</time>
      </trkpt>
      <trkpt lat="44.77109" lon="5.50144">
        <ele>1704.07</ele>
        <time>2019-06-01T05:42:54.000Z</time>
      </trkpt>
      <trkpt lat="44.77101" lon="5.50138">
        <ele>1704.25</ele>
        <time>2019-06-01T05:43:01.000Z</time>
      </trkpt>
      <trkpt lat="44.77092" lon="5.50131">
        <ele>1704.45</ele>
        <time>2019-06-01T05:43:10.000Z</time>
      </trkpt>
      <trkpt lat="44.77082" lon="5.5013">
        <ele>1704.54</ele>
        <time>2019-06-01T05:43:21.000Z</time>
      </trkpt>
      <trkpt lat="44.77074" lon="5.50121">
        <ele>1704.72</ele>
        <time>2019-06-01T05:43:30.000Z</time>
      </trkpt>
      <trkpt lat="44.77067" lon="5.50113">
        <ele>1704.58</ele>
        <time>2019-06-01T05:43:37.000Z</time>
      </trkpt>
      <trkpt lat="44.77059" lon="5.50106">
        <ele>1704.29</ele>
        <time>2019-06-01T05:43:43.000Z</time>
      </trkpt>
      <trkpt lat="44.7705" lon="5.501">
        <ele>1703.99</ele>
        <time>2019-06-01T05:43:51.000Z</time>
      </trkpt>
      <trkpt lat="44.77041" lon="5.50097">
        <ele>1703.93</ele>
        <time>2019-06-01T05:44:00.000Z</time>
      </trkpt>
      <trkpt lat="44.77032" lon="5.50101">
        <ele>1703.78</ele>
        <time>2019-06-01T05:44:12.000Z</time>
      </trkpt>
      <trkpt lat="44.77022" lon="5.50102">
        <ele>1703.78</ele>
        <time>2019-06-01T05:44:17.000Z</time>
      </trkpt>
      <trkpt lat="44.77012" lon="5.50104">
        <ele>1703.82</ele>
        <time>2019-06-01T05:44:23.000Z</time>
      </trkpt>
      <trkpt lat="44.77003" lon="5.50102">
        <ele>1703.77</ele>
        <time>2019-06-01T05:44:34.000Z</time>
      </trkpt>
      <trkpt lat="44.76993" lon="5.50101">
        <ele>1703.57</ele>
        <time>2019-06-01T05:44:43.000Z</time>
      </trkpt>
      <trkpt lat="44.76984" lon="5.50106">
        <ele>1703.49</ele>
        <time>2019-06-01T05:44:50.000Z</time>
      </trkpt>
      <trkpt lat="44.76976" lon="5.50113">
        <ele>1703.96</ele>
        <time>2019-06-01T05:45:07.000Z</time>
      </trkpt>
      <trkpt lat="44.7697" lon="5.50122">
        <ele>1704.53</ele>
        <time>2019-06-01T05:45:20.000Z</time>
      </trkpt>
      <trkpt lat="44.76961" lon="5.50123">
        <ele>1705.22</ele>
        <time>2019-06-01T05:45:35.000Z</time>
      </trkpt>
      <trkpt lat="44.76952" lon="5.50118">
        <ele>1705.56</ele>
        <time>2019-06-01T05:45:43.000Z</time>
      </trkpt>
      <trkpt lat="44.76944" lon="5.50113">
        <ele>1706.07</ele>
        <time>2019-06-01T05:45:51.000Z</time>
      </trkpt>
      <trkpt lat="44.76935" lon="5.50108">
        <ele>1707.08</ele>
        <time>2019-06-01T05:46:02.000Z</time>
      </trkpt>
      <trkpt lat="44.76925" lon="5.5011">
        <ele>1708.73</ele>
        <time>2019-06-01T05:46:12.000Z</time>
      </trkpt>
      <trkpt lat="44.76915" lon="5.50109">
        <ele>1709.79</ele>
        <time>2019-06-01T05:46:20.000Z</time>
      </trkpt>
      <trkpt lat="44.76906" lon="5.50108">
        <ele>1710.65</ele>
        <time>2019-06-01T05:46:28.000Z</time>
      </trkpt>
      <trkpt lat="44.76896" lon="5.5011">
        <ele>1711.48</ele>
        <time>2019-06-01T05:46:41.000Z</time>
      </trkpt>
      <trkpt lat="44.76889" lon="5.50102">
        <ele>1712.08</ele>
        <time>2019-06-01T05:46:52.000Z</time>
      </trkpt>
      <trkpt lat="44.7688" lon="5.50095">
        <ele>1712.07</ele>
        <time>2019-06-01T05:47:06.000Z</time>
      </trkpt>
      <trkpt lat="44.7687" lon="5.50092">
        <ele>1712.03</ele>
        <time>2019-06-01T05:47:12.000Z</time>
      </trkpt>
      <trkpt lat="44.7686" lon="5.5009">
        <ele>1711.83</ele>
        <time>2019-06-01T05:47:20.000Z</time>
      </trkpt>
      <trkpt lat="44.76851" lon="5.50089">
        <ele>1711.39</ele>
        <time>2019-06-01T05:47:27.000Z</time>
      </trkpt>
      <trkpt lat="44.76841" lon="5.5009">
        <ele>1710.87</ele>
        <time>2019-06-01T05:47:36.000Z</time>
      </trkpt>
      <trkpt lat="44.76832" lon="5.50089">
        <ele>1710.46</ele>
        <time>2019-06-01T05:47:45.000Z</time>
      </trkpt>
      <trkpt lat="44.76823" lon="5.50085">
        <ele>1710.09</ele>
        <time>2019-06-01T05:47:51.000Z</time>
      </trkpt>
      <trkpt lat="44.76814" lon="5.50081">
        <ele>1709.69</ele>
        <time>2019-06-01T05:47:56.000Z</time>
      </trkpt>
      <trkpt lat="44.76805" lon="5.50077">
        <ele>1709.08</ele>
        <time>2019-06-01T05:48:03.000Z</time>
      </trkpt>
      <trkpt lat="44.76796" lon="5.50075">
        <ele>1708.05</ele>
        <time>2019-06-01T05:48:14.000Z</time>
      </trkpt>
      <trkpt lat="44.76786" lon="5.50075">
        <ele>1707.05</ele>
        <time>2019-06-01T05:48:22.000Z</time>
      </trkpt>
      <trkpt lat="44.76776" lon="5.50071">
        <ele>1706</ele>
        <time>2019-06-01T05:48:30.000Z</time>
      </trkpt>
      <trkpt lat="44.76767" lon="5.50063">
        <ele>1705.16</ele>
        <time>2019-06-01T05:48:36.000Z</time>
      </trkpt>
      <trkpt lat="44.76762" lon="5.5005">
        <ele>1703.89</ele>
        <time>2019-06-01T05:48:44.000Z</time>
      </trkpt>
      <trkpt lat="44.76758" lon="5.50038">
        <ele>1702.97</ele>
        <time>2019-06-01T05:48:50.000Z</time>
      </trkpt>
      <trkpt lat="44.76753" lon="5.50026">
        <ele>1701.49</ele>
        <time>2019-06-01T05:48:59.000Z</time>
      </trkpt>
      <trkpt lat="44.76743" lon="5.50025">
        <ele>1699.89</ele>
        <time>2019-06-01T05:49:08.000Z</time>
      </trkpt>
      <trkpt lat="44.76734" lon="5.50026">
        <ele>1698.83</ele>
        <time>2019-06-01T05:49:16.000Z</time>
      </trkpt>
      <trkpt lat="44.76727" lon="5.50034">
        <ele>1698.35</ele>
        <time>2019-06-01T05:49:24.000Z</time>
      </trkpt>
      <trkpt lat="44.76717" lon="5.50034">
        <ele>1697.68</ele>
        <time>2019-06-01T05:49:31.000Z</time>
      </trkpt>
      <trkpt lat="44.7671" lon="5.50026">
        <ele>1696.67</ele>
        <time>2019-06-01T05:49:39.000Z</time>
      </trkpt>
      <trkpt lat="44.76711" lon="5.50013">
        <ele>1695.84</ele>
        <time>2019-06-01T05:49:46.000Z</time>
      </trkpt>
      <trkpt lat="44.76712" lon="5.5">
        <ele>1695.31</ele>
        <time>2019-06-01T05:49:53.000Z</time>
      </trkpt>
      <trkpt lat="44.76712" lon="5.49988">
        <ele>1695.06</ele>
        <time>2019-06-01T05:49:59.000Z</time>
      </trkpt>
      <trkpt lat="44.76706" lon="5.49977">
        <ele>1694.84</ele>
        <time>2019-06-01T05:50:07.000Z</time>
      </trkpt>
      <trkpt lat="44.76705" lon="5.49963">
        <ele>1694.36</ele>
        <time>2019-06-01T05:50:18.000Z</time>
      </trkpt>
      <trkpt lat="44.76712" lon="5.49955">
        <ele>1693.98</ele>
        <time>2019-06-01T05:50:25.000Z</time>
      </trkpt>
      <trkpt lat="44.7672" lon="5.49947">
        <ele>1693.63</ele>
        <time>2019-06-01T05:50:32.000Z</time>
      </trkpt>
      <trkpt lat="44.76725" lon="5.49934">
        <ele>1693.02</ele>
        <time>2019-06-01T05:50:40.000Z</time>
      </trkpt>
      <trkpt lat="44.76725" lon="5.49921">
        <ele>1692.37</ele>
        <time>2019-06-01T05:50:47.000Z</time>
      </trkpt>
      <trkpt lat="44.76724" lon="5.49907">
        <ele>1691.6</ele>
        <time>2019-06-01T05:50:54.000Z</time>
      </trkpt>
      <trkpt lat="44.76726" lon="5.49894">
        <ele>1690.63</ele>
        <time>2019-06-01T05:51:01.000Z</time>
      </trkpt>
      <trkpt lat="44.76727" lon="5.49881">
        <ele>1689.48</ele>
        <time>2019-06-01T05:51:08.000Z</time>
      </trkpt>
      <trkpt lat="44.76729" lon="5.49868">
        <ele>1687.4</ele>
        <time>2019-06-01T05:51:20.000Z</time>
      </trkpt>
      <trkpt lat="44.76728" lon="5.49855">
        <ele>1686.06</ele>
        <time>2019-06-01T05:51:28.000Z</time>
      </trkpt>
      <trkpt lat="44.76727" lon="5.49841">
        <ele>1685.13</ele>
        <time>2019-06-01T05:51:36.000Z</time>
      </trkpt>
      <trkpt lat="44.76718" lon="5.49843">
        <ele>1686.57</ele>
        <time>2019-06-01T05:52:06.000Z</time>
      </trkpt>
      <trkpt lat="44.7671" lon="5.49836">
        <ele>1684.85</ele>
        <time>2019-06-01T05:52:17.000Z</time>
      </trkpt>
      <trkpt lat="44.76702" lon="5.49829">
        <ele>1682.12</ele>
        <time>2019-06-01T05:52:23.000Z</time>
      </trkpt>
      <trkpt lat="44.76693" lon="5.4983">
        <ele>1679.79</ele>
        <time>2019-06-01T05:52:30.000Z</time>
      </trkpt>
      <trkpt lat="44.7669" lon="5.49818">
        <ele>1677.37</ele>
        <time>2019-06-01T05:52:49.000Z</time>
      </trkpt>
      <trkpt lat="44.76683" lon="5.49807">
        <ele>1678.03</ele>
        <time>2019-06-01T05:53:00.000Z</time>
      </trkpt>
      <trkpt lat="44.76676" lon="5.49799">
        <ele>1678.53</ele>
        <time>2019-06-01T05:53:06.000Z</time>
      </trkpt>
      <trkpt lat="44.76671" lon="5.49788">
        <ele>1679.43</ele>
        <time>2019-06-01T05:53:14.000Z</time>
      </trkpt>
      <trkpt lat="44.76665" lon="5.49779">
        <ele>1680.45</ele>
        <time>2019-06-01T05:53:22.000Z</time>
      </trkpt>
      <trkpt lat="44.76662" lon="5.49764">
        <ele>1681.41</ele>
        <time>2019-06-01T05:53:29.000Z</time>
      </trkpt>
      <trkpt lat="44.76662" lon="5.49751">
        <ele>1682.58</ele>
        <time>2019-06-01T05:53:36.000Z</time>
      </trkpt>
      <trkpt lat="44.76659" lon="5.49738">
        <ele>1684.11</ele>
        <time>2019-06-01T05:53:44.000Z</time>
      </trkpt>
      <trkpt lat="44.76654" lon="5.49726">
        <ele>1684.99</ele>
        <time>2019-06-01T05:53:52.000Z</time>
      </trkpt>
      <trkpt lat="44.76653" lon="5.49713">
        <ele>1685.87</ele>
        <time>2019-06-01T05:54:01.000Z</time>
      </trkpt>
      <trkpt lat="44.76658" lon="5.49701">
        <ele>1687.01</ele>
        <time>2019-06-01T05:54:12.000Z</time>
      </trkpt>
      <trkpt lat="44.76664" lon="5.49691">
        <ele>1687.71</ele>
        <time>2019-06-01T05:54:20.000Z</time>
      </trkpt>
      <trkpt lat="44.76673" lon="5.49686">
        <ele>1688.59</ele>
        <time>2019-06-01T05:54:29.000Z</time>
      </trkpt>
      <trkpt lat="44.76682" lon="5.4968">
        <ele>1689.06</ele>
        <time>2019-06-01T05:54:36.000Z</time>
      </trkpt>
      <trkpt lat="44.76688" lon="5.49671">
        <ele>1689.5</ele>
        <time>2019-06-01T05:54:43.000Z</time>
      </trkpt>
      <trkpt lat="44.76685" lon="5.49658">
        <ele>1690.19</ele>
        <time>2019-06-01T05:54:52.000Z</time>
      </trkpt>
      <trkpt lat="44.76676" lon="5.49653">
        <ele>1690.79</ele>
        <time>2019-06-01T05:55:00.000Z</time>
      </trkpt>
      <trkpt lat="44.76673" lon="5.4964">
        <ele>1691.46</ele>
        <time>2019-06-01T05:55:11.000Z</time>
      </trkpt>
      <trkpt lat="44.7668" lon="5.49631">
        <ele>1692.63</ele>
        <time>2019-06-01T05:56:37.999Z</time>
      </trkpt>
      <trkpt lat="44.76688" lon="5.49626">
        <ele>1693.08</ele>
        <time>2019-06-01T05:56:44.999Z</time>
      </trkpt>
      <trkpt lat="44.76696" lon="5.49616">
        <ele>1693.31</ele>
        <time>2019-06-01T05:56:50.999Z</time>
      </trkpt>
      <trkpt lat="44.76702" lon="5.49603">
        <ele>1693.27</ele>
        <time>2019-06-01T05:56:55.999Z</time>
      </trkpt>
      <trkpt lat="44.76708" lon="5.49593">
        <ele>1693.03</ele>
        <time>2019-06-01T05:57:02.999Z</time>
      </trkpt>
      <trkpt lat="44.76714" lon="5.49583">
        <ele>1692.88</ele>
        <time>2019-06-01T05:57:08.999Z</time>
      </trkpt>
      <trkpt lat="44.76723" lon="5.49578">
        <ele>1692.37</ele>
        <time>2019-06-01T05:57:18.999Z</time>
      </trkpt>
      <trkpt lat="44.76731" lon="5.49572">
        <ele>1691.91</ele>
        <time>2019-06-01T05:57:23.999Z</time>
      </trkpt>
      <trkpt lat="44.76738" lon="5.49561">
        <ele>1691.33</ele>
        <time>2019-06-01T05:57:30.999Z</time>
      </trkpt>
      <trkpt lat="44.76745" lon="5.4955">
        <ele>1691.02</ele>
        <time>2019-06-01T05:57:36.999Z</time>
      </trkpt>
      <trkpt lat="44.76751" lon="5.49541">
        <ele>1691</ele>
        <time>2019-06-01T05:57:41.999Z</time>
      </trkpt>
      <trkpt lat="44.76757" lon="5.4953">
        <ele>1691.22</ele>
        <time>2019-06-01T05:57:47.999Z</time>
      </trkpt>
      <trkpt lat="44.76764" lon="5.4952">
        <ele>1691.22</ele>
        <time>2019-06-01T05:57:54.999Z</time>
      </trkpt>
      <trkpt lat="44.76771" lon="5.49512">
        <ele>1691.15</ele>
        <time>2019-06-01T05:58:05.999Z</time>
      </trkpt>
      <trkpt lat="44.76777" lon="5.49502">
        <ele>1690.97</ele>
        <time>2019-06-01T05:58:12.999Z</time>
      </trkpt>
      <trkpt lat="44.76785" lon="5.49492">
        <ele>1690.84</ele>
        <time>2019-06-01T05:58:19.999Z</time>
      </trkpt>
      <trkpt lat="44.76792" lon="5.49483">
        <ele>1690.86</ele>
        <time>2019-06-01T05:58:26.999Z</time>
      </trkpt>
      <trkpt lat="44.76795" lon="5.49471">
        <ele>1691.27</ele>
        <time>2019-06-01T05:58:36.999Z</time>
      </trkpt>
      <trkpt lat="44.76798" lon="5.49458">
        <ele>1692.03</ele>
        <time>2019-06-01T05:58:46.999Z</time>
      </trkpt>
      <trkpt lat="44.76806" lon="5.49452">
        <ele>1692.82</ele>
        <time>2019-06-01T05:58:54.999Z</time>
      </trkpt>
      <trkpt lat="44.76813" lon="5.49445">
        <ele>1693.25</ele>
        <time>2019-06-01T05:59:01.999Z</time>
      </trkpt>
      <trkpt lat="44.76821" lon="5.49436">
        <ele>1693.61</ele>
        <time>2019-06-01T05:59:09.999Z</time>
      </trkpt>
      <trkpt lat="44.76829" lon="5.49429">
        <ele>1694.49</ele>
        <time>2019-06-01T05:59:17.999Z</time>
      </trkpt>
      <trkpt lat="44.76836" lon="5.4942">
        <ele>1695.28</ele>
        <time>2019-06-01T05:59:24.999Z</time>
      </trkpt>
      <trkpt lat="44.76843" lon="5.4941">
        <ele>1696.06</ele>
        <time>2019-06-01T05:59:33.999Z</time>
      </trkpt>
      <trkpt lat="44.76848" lon="5.49399">
        <ele>1696.02</ele>
        <time>2019-06-01T05:59:42.999Z</time>
      </trkpt>
      <trkpt lat="44.76847" lon="5.49385">
        <ele>1696.18</ele>
        <time>2019-06-01T05:59:49.999Z</time>
      </trkpt>
      <trkpt lat="44.76846" lon="5.49371">
        <ele>1696.36</ele>
        <time>2019-06-01T05:59:58.999Z</time>
      </trkpt>
      <trkpt lat="44.76844" lon="5.49358">
        <ele>1696.99</ele>
        <time>2019-06-01T06:00:07.999Z</time>
      </trkpt>
      <trkpt lat="44.76847" lon="5.49346">
        <ele>1697.72</ele>
        <time>2019-06-01T06:00:18.999Z</time>
      </trkpt>
      <trkpt lat="44.76848" lon="5.49333">
        <ele>1698.48</ele>
        <time>2019-06-01T06:00:28.999Z</time>
      </trkpt>
      <trkpt lat="44.76848" lon="5.4932">
        <ele>1699.34</ele>
        <time>2019-06-01T06:00:42.999Z</time>
      </trkpt>
      <trkpt lat="44.76845" lon="5.49307">
        <ele>1699.78</ele>
        <time>2019-06-01T06:00:53.999Z</time>
      </trkpt>
      <trkpt lat="44.76838" lon="5.49299">
        <ele>1700.27</ele>
        <time>2019-06-01T06:01:03.999Z</time>
      </trkpt>
      <trkpt lat="44.76829" lon="5.49294">
        <ele>1700.85</ele>
        <time>2019-06-01T06:01:13.999Z</time>
      </trkpt>
      <trkpt lat="44.76827" lon="5.49281">
        <ele>1701.77</ele>
        <time>2019-06-01T06:01:24.999Z</time>
      </trkpt>
      <trkpt lat="44.76821" lon="5.4927">
        <ele>1702.22</ele>
        <time>2019-06-01T06:01:35.999Z</time>
      </trkpt>
      <trkpt lat="44.76815" lon="5.49261">
        <ele>1702.5</ele>
        <time>2019-06-01T06:01:44.999Z</time>
      </trkpt>
      <trkpt lat="44.7681" lon="5.49249">
        <ele>1703.04</ele>
        <time>2019-06-01T06:01:53.999Z</time>
      </trkpt>
      <trkpt lat="44.76801" lon="5.49244">
        <ele>1703.94</ele>
        <time>2019-06-01T06:02:01.999Z</time>
      </trkpt>
      <trkpt lat="44.76792" lon="5.49248">
        <ele>1705.11</ele>
        <time>2019-06-01T06:02:11.999Z</time>
      </trkpt>
      <trkpt lat="44.76782" lon="5.49251">
        <ele>1706.28</ele>
        <time>2019-06-01T06:02:22.999Z</time>
      </trkpt>
      <trkpt lat="44.76774" lon="5.49246">
        <ele>1709.2</ele>
        <time>2019-06-01T06:02:36.999Z</time>
      </trkpt>
      <trkpt lat="44.76764" lon="5.49245">
        <ele>1710.18</ele>
        <time>2019-06-01T06:02:48.999Z</time>
      </trkpt>
      <trkpt lat="44.76755" lon="5.49244">
        <ele>1710.84</ele>
        <time>2019-06-01T06:02:59.999Z</time>
      </trkpt>
      <trkpt lat="44.76748" lon="5.49251">
        <ele>1713.21</ele>
        <time>2019-06-01T06:03:43.999Z</time>
      </trkpt>
      <trkpt lat="44.76744" lon="5.49263">
        <ele>1713.41</ele>
        <time>2019-06-01T06:03:50.999Z</time>
      </trkpt>
      <trkpt lat="44.76741" lon="5.49276">
        <ele>1713.44</ele>
        <time>2019-06-01T06:04:01.999Z</time>
      </trkpt>
      <trkpt lat="44.76736" lon="5.49289">
        <ele>1713.48</ele>
        <time>2019-06-01T06:04:12.999Z</time>
      </trkpt>
      <trkpt lat="44.76728" lon="5.49296">
        <ele>1713.69</ele>
        <time>2019-06-01T06:04:18.999Z</time>
      </trkpt>
      <trkpt lat="44.76719" lon="5.49302">
        <ele>1714.3</ele>
        <time>2019-06-01T06:04:27.999Z</time>
      </trkpt>
      <trkpt lat="44.7671" lon="5.49294">
        <ele>1723.71</ele>
        <time>2019-06-01T06:06:24.999Z</time>
      </trkpt>
      <trkpt lat="44.76701" lon="5.49295">
        <ele>1724.72</ele>
        <time>2019-06-01T06:06:44.999Z</time>
      </trkpt>
      <trkpt lat="44.76692" lon="5.49289">
        <ele>1725.33</ele>
        <time>2019-06-01T06:06:56.999Z</time>
      </trkpt>
      <trkpt lat="44.76685" lon="5.49279">
        <ele>1725.54</ele>
        <time>2019-06-01T06:07:05.999Z</time>
      </trkpt>
      <trkpt lat="44.76684" lon="5.49265">
        <ele>1725.41</ele>
        <time>2019-06-01T06:07:11.999Z</time>
      </trkpt>
      <trkpt lat="44.76679" lon="5.49253">
        <ele>1725.23</ele>
        <time>2019-06-01T06:07:19.999Z</time>
      </trkpt>
      <trkpt lat="44.7667" lon="5.49257">
        <ele>1724.88</ele>
        <time>2019-06-01T06:07:26.999Z</time>
      </trkpt>
      <trkpt lat="44.76663" lon="5.49265">
        <ele>1724.65</ele>
        <time>2019-06-01T06:07:32.999Z</time>
      </trkpt>
      <trkpt lat="44.76654" lon="5.4926">
        <ele>1724.32</ele>
        <time>2019-06-01T06:07:44.999Z</time>
      </trkpt>
      <trkpt lat="44.7665" lon="5.49247">
        <ele>1723.94</ele>
        <time>2019-06-01T06:07:51.999Z</time>
      </trkpt>
      <trkpt lat="44.76646" lon="5.49235">
        <ele>1723.35</ele>
        <time>2019-06-01T06:07:59.999Z</time>
      </trkpt>
      <trkpt lat="44.76642" lon="5.49223">
        <ele>1723.07</ele>
        <time>2019-06-01T06:08:07.999Z</time>
      </trkpt>
      <trkpt lat="44.76635" lon="5.49213">
        <ele>1723.11</ele>
        <time>2019-06-01T06:08:15.999Z</time>
      </trkpt>
      <trkpt lat="44.76631" lon="5.49201">
        <ele>1723.39</ele>
        <time>2019-06-01T06:08:23.999Z</time>
      </trkpt>
      <trkpt lat="44.76626" lon="5.49189">
        <ele>1723.8</ele>
        <time>2019-06-01T06:08:33.999Z</time>
      </trkpt>
      <trkpt lat="44.76617" lon="5.49193">
        <ele>1724.53</ele>
        <time>2019-06-01T06:08:44.999Z</time>
      </trkpt>
      <trkpt lat="44.76607" lon="5.49194">
        <ele>1726.76</ele>
        <time>2019-06-01T06:09:09.999Z</time>
      </trkpt>
      <trkpt lat="44.76598" lon="5.49196">
        <ele>1728.69</ele>
        <time>2019-06-01T06:09:23.999Z</time>
      </trkpt>
      <trkpt lat="44.76589" lon="5.49197">
        <ele>1730.26</ele>
        <time>2019-06-01T06:09:57.999Z</time>
      </trkpt>
      <trkpt lat="44.7658" lon="5.49194">
        <ele>1729.82</ele>
        <time>2019-06-01T06:10:06.999Z</time>
      </trkpt>
      <trkpt lat="44.76572" lon="5.49189">
        <ele>1729.91</ele>
        <time>2019-06-01T06:10:18.999Z</time>
      </trkpt>
      <trkpt lat="44.76562" lon="5.4919">
        <ele>1730.03</ele>
        <time>2019-06-01T06:10:24.999Z</time>
      </trkpt>
      <trkpt lat="44.76554" lon="5.49199">
        <ele>1730.37</ele>
        <time>2019-06-01T06:10:31.999Z</time>
      </trkpt>
      <trkpt lat="44.76545" lon="5.49202">
        <ele>1730.93</ele>
        <time>2019-06-01T06:10:36.999Z</time>
      </trkpt>
      <trkpt lat="44.76536" lon="5.49204">
        <ele>1731.89</ele>
        <time>2019-06-01T06:10:43.999Z</time>
      </trkpt>
      <trkpt lat="44.76527" lon="5.49201">
        <ele>1734.05</ele>
        <time>2019-06-01T06:10:55.999Z</time>
      </trkpt>
      <trkpt lat="44.76518" lon="5.49206">
        <ele>1736.34</ele>
        <time>2019-06-01T06:11:09.999Z</time>
      </trkpt>
      <trkpt lat="44.76508" lon="5.49209">
        <ele>1738.04</ele>
        <time>2019-06-01T06:11:19.999Z</time>
      </trkpt>
      <trkpt lat="44.76499" lon="5.49206">
        <ele>1738.76</ele>
        <time>2019-06-01T06:11:27.999Z</time>
      </trkpt>
      <trkpt lat="44.76492" lon="5.49198">
        <ele>1740.29</ele>
        <time>2019-06-01T06:11:39.999Z</time>
      </trkpt>
      <trkpt lat="44.76485" lon="5.49188">
        <ele>1741.94</ele>
        <time>2019-06-01T06:11:49.999Z</time>
      </trkpt>
      <trkpt lat="44.76478" lon="5.49181">
        <ele>1743.75</ele>
        <time>2019-06-01T06:12:00.999Z</time>
      </trkpt>
      <trkpt lat="44.76468" lon="5.49182">
        <ele>1745.91</ele>
        <time>2019-06-01T06:12:15.999Z</time>
      </trkpt>
      <trkpt lat="44.76459" lon="5.49179">
        <ele>1748.23</ele>
        <time>2019-06-01T06:12:30.999Z</time>
      </trkpt>
      <trkpt lat="44.76449" lon="5.49178">
        <ele>1751.74</ele>
        <time>2019-06-01T06:12:45.999Z</time>
      </trkpt>
      <trkpt lat="44.76443" lon="5.49169">
        <ele>1753.29</ele>
        <time>2019-06-01T06:12:51.999Z</time>
      </trkpt>
      <trkpt lat="44.76434" lon="5.49163">
        <ele>1755.19</ele>
        <time>2019-06-01T06:12:59.999Z</time>
      </trkpt>
      <trkpt lat="44.76425" lon="5.49164">
        <ele>1757.94</ele>
        <time>2019-06-01T06:13:12.999Z</time>
      </trkpt>
      <trkpt lat="44.76416" lon="5.49164">
        <ele>1760.17</ele>
        <time>2019-06-01T06:13:25.999Z</time>
      </trkpt>
      <trkpt lat="44.76406" lon="5.4916">
        <ele>1762.39</ele>
        <time>2019-06-01T06:13:38.999Z</time>
      </trkpt>
      <trkpt lat="44.76398" lon="5.49153">
        <ele>1763.87</ele>
        <time>2019-06-01T06:13:48.999Z</time>
      </trkpt>
      <trkpt lat="44.76388" lon="5.49152">
        <ele>1765.34</ele>
        <time>2019-06-01T06:14:00.999Z</time>
      </trkpt>
      <trkpt lat="44.76381" lon="5.49159">
        <ele>1767.9</ele>
        <time>2019-06-01T06:14:21.999Z</time>
      </trkpt>
      <trkpt lat="44.76373" lon="5.49167">
        <ele>1769.4</ele>
        <time>2019-06-01T06:14:30.999Z</time>
      </trkpt>
      <trkpt lat="44.76368" lon="5.49178">
        <ele>1771.87</ele>
        <time>2019-06-01T06:14:44.000Z</time>
      </trkpt>
      <trkpt lat="44.76361" lon="5.49185">
        <ele>1774.98</ele>
        <time>2019-06-01T06:14:58.000Z</time>
      </trkpt>
      <trkpt lat="44.76353" lon="5.49192">
        <ele>1778.98</ele>
        <time>2019-06-01T06:15:15.000Z</time>
      </trkpt>
      <trkpt lat="44.76358" lon="5.49202">
        <ele>1785.21</ele>
        <time>2019-06-01T06:15:49.000Z</time>
      </trkpt>
      <trkpt lat="44.76364" lon="5.49213">
        <ele>1787.97</ele>
        <time>2019-06-01T06:16:00.000Z</time>
      </trkpt>
      <trkpt lat="44.76365" lon="5.49226">
        <ele>1804.87</ele>
        <time>2019-06-01T06:19:12.000Z</time>
      </trkpt>
      <trkpt lat="44.76367" lon="5.49214">
        <ele>1807.71</ele>
        <time>2019-06-01T06:20:04.000Z</time>
      </trkpt>
      <trkpt lat="44.76371" lon="5.49225">
        <ele>1812.36</ele>
        <time>2019-06-01T06:22:07.000Z</time>
      </trkpt>
      <trkpt lat="44.76375" lon="5.49237">
        <ele>1813.3</ele>
        <time>2019-06-01T06:24:54.000Z</time>
      </trkpt>
      <trkpt lat="44.7637" lon="5.49226">
        <ele>1819.08</ele>
        <time>2019-06-01T06:25:55.000Z</time>
      </trkpt>
      <trkpt lat="44.7637" lon="5.4924">
        <ele>1819.35</ele>
        <time>2019-06-01T06:26:12.000Z</time>
      </trkpt>
      <trkpt lat="44.76369" lon="5.49254">
        <ele>1817.9</ele>
        <time>2019-06-01T06:26:21.000Z</time>
      </trkpt>
      <trkpt lat="44.7637" lon="5.49267">
        <ele>1815.42</ele>
        <time>2019-06-01T06:26:35.000Z</time>
      </trkpt>
      <trkpt lat="44.76372" lon="5.49279">
        <ele>1813.45</ele>
        <time>2019-06-01T06:26:45.000Z</time>
      </trkpt>
      <trkpt lat="44.76369" lon="5.49293">
        <ele>1811.66</ele>
        <time>2019-06-01T06:26:55.000Z</time>
      </trkpt>
      <trkpt lat="44.76363" lon="5.49302">
        <ele>1810.22</ele>
        <time>2019-06-01T06:27:04.000Z</time>
      </trkpt>
      <trkpt lat="44.76361" lon="5.49314">
        <ele>1808.59</ele>
        <time>2019-06-01T06:27:16.000Z</time>
      </trkpt>
      <trkpt lat="44.76356" lon="5.49326">
        <ele>1806.55</ele>
        <time>2019-06-01T06:27:36.000Z</time>
      </trkpt>
      <trkpt lat="44.76353" lon="5.49338">
        <ele>1802.56</ele>
        <time>2019-06-01T06:27:50.000Z</time>
      </trkpt>
      <trkpt lat="44.76354" lon="5.49351">
        <ele>1798.99</ele>
        <time>2019-06-01T06:28:00.000Z</time>
      </trkpt>
      <trkpt lat="44.76361" lon="5.4936">
        <ele>1792.94</ele>
        <time>2019-06-01T06:28:26.000Z</time>
      </trkpt>
      <trkpt lat="44.76369" lon="5.49367">
        <ele>1788.57</ele>
        <time>2019-06-01T06:28:42.000Z</time>
      </trkpt>
      <trkpt lat="44.76373" lon="5.49379">
        <ele>1785.72</ele>
        <time>2019-06-01T06:28:55.000Z</time>
      </trkpt>
      <trkpt lat="44.76382" lon="5.49377">
        <ele>1781.55</ele>
        <time>2019-06-01T06:29:08.000Z</time>
      </trkpt>
      <trkpt lat="44.7639" lon="5.4937">
        <ele>1779.61</ele>
        <time>2019-06-01T06:29:15.000Z</time>
      </trkpt>
      <trkpt lat="44.76399" lon="5.49364">
        <ele>1778.07</ele>
        <time>2019-06-01T06:29:21.000Z</time>
      </trkpt>
      <trkpt lat="44.76408" lon="5.49359">
        <ele>1776.57</ele>
        <time>2019-06-01T06:29:28.000Z</time>
      </trkpt>
      <trkpt lat="44.76417" lon="5.49354">
        <ele>1773.88</ele>
        <time>2019-06-01T06:29:38.000Z</time>
      </trkpt>
      <trkpt lat="44.76426" lon="5.49348">
        <ele>1771.69</ele>
        <time>2019-06-01T06:29:46.000Z</time>
      </trkpt>
      <trkpt lat="44.76433" lon="5.49338">
        <ele>1769.58</ele>
        <time>2019-06-01T06:29:55.000Z</time>
      </trkpt>
      <trkpt lat="44.76441" lon="5.49328">
        <ele>1768.63</ele>
        <time>2019-06-01T06:30:00.000Z</time>
      </trkpt>
      <trkpt lat="44.76449" lon="5.49315">
        <ele>1767.85</ele>
        <time>2019-06-01T06:30:05.000Z</time>
      </trkpt>
      <trkpt lat="44.76457" lon="5.49308">
        <ele>1767.06</ele>
        <time>2019-06-01T06:30:10.000Z</time>
      </trkpt>
      <trkpt lat="44.76463" lon="5.49297">
        <ele>1765.48</ele>
        <time>2019-06-01T06:30:22.000Z</time>
      </trkpt>
      <trkpt lat="44.76468" lon="5.49286">
        <ele>1764.89</ele>
        <time>2019-06-01T06:30:30.000Z</time>
      </trkpt>
      <trkpt lat="44.76473" lon="5.49273">
        <ele>1764.56</ele>
        <time>2019-06-01T06:30:39.000Z</time>
      </trkpt>
      <trkpt lat="44.76476" lon="5.4926">
        <ele>1763.38</ele>
        <time>2019-06-01T06:30:57.000Z</time>
      </trkpt>
      <trkpt lat="44.76481" lon="5.4925">
        <ele>1762.26</ele>
        <time>2019-06-01T06:31:07.000Z</time>
      </trkpt>
      <trkpt lat="44.76488" lon="5.4924">
        <ele>1760.43</ele>
        <time>2019-06-01T06:31:17.000Z</time>
      </trkpt>
      <trkpt lat="44.76493" lon="5.49227">
        <ele>1759.44</ele>
        <time>2019-06-01T06:31:23.000Z</time>
      </trkpt>
      <trkpt lat="44.765" lon="5.49217">
        <ele>1758.41</ele>
        <time>2019-06-01T06:31:29.000Z</time>
      </trkpt>
      <trkpt lat="44.76507" lon="5.49208">
        <ele>1757.25</ele>
        <time>2019-06-01T06:31:36.000Z</time>
      </trkpt>
      <trkpt lat="44.76513" lon="5.49198">
        <ele>1756.37</ele>
        <time>2019-06-01T06:31:42.000Z</time>
      </trkpt>
      <trkpt lat="44.76523" lon="5.49199">
        <ele>1755.66</ele>
        <time>2019-06-01T06:31:48.000Z</time>
      </trkpt>
      <trkpt lat="44.76532" lon="5.49199">
        <ele>1754.62</ele>
        <time>2019-06-01T06:31:56.000Z</time>
      </trkpt>
      <trkpt lat="44.76542" lon="5.49197">
        <ele>1753.42</ele>
        <time>2019-06-01T06:32:04.000Z</time>
      </trkpt>
      <trkpt lat="44.76552" lon="5.49195">
        <ele>1752.42</ele>
        <time>2019-06-01T06:32:10.000Z</time>
      </trkpt>
      <trkpt lat="44.76562" lon="5.49195">
        <ele>1751.12</ele>
        <time>2019-06-01T06:32:18.000Z</time>
      </trkpt>
      <trkpt lat="44.76571" lon="5.4919">
        <ele>1749.54</ele>
        <time>2019-06-01T06:32:28.000Z</time>
      </trkpt>
      <trkpt lat="44.7658" lon="5.49187">
        <ele>1747.87</ele>
        <time>2019-06-01T06:32:37.000Z</time>
      </trkpt>
      <trkpt lat="44.76589" lon="5.4919">
        <ele>1746.69</ele>
        <time>2019-06-01T06:32:46.000Z</time>
      </trkpt>
      <trkpt lat="44.7659" lon="5.49177">
        <ele>1749.42</ele>
        <time>2019-06-01T06:35:14.000Z</time>
      </trkpt>
      <trkpt lat="44.76595" lon="5.49167">
        <ele>1747.76</ele>
        <time>2019-06-01T06:35:22.000Z</time>
      </trkpt>
      <trkpt lat="44.76596" lon="5.49154">
        <ele>1745.18</ele>
        <time>2019-06-01T06:35:35.000Z</time>
      </trkpt>
      <trkpt lat="44.76597" lon="5.49139">
        <ele>1744.14</ele>
        <time>2019-06-01T06:35:43.000Z</time>
      </trkpt>
      <trkpt lat="44.76601" lon="5.49127">
        <ele>1743.62</ele>
        <time>2019-06-01T06:35:51.000Z</time>
      </trkpt>
      <trkpt lat="44.76605" lon="5.49115">
        <ele>1743.14</ele>
        <time>2019-06-01T06:35:59.000Z</time>
      </trkpt>
      <trkpt lat="44.76608" lon="5.49103">
        <ele>1741.36</ele>
        <time>2019-06-01T06:36:16.999Z</time>
      </trkpt>
      <trkpt lat="44.76613" lon="5.49092">
        <ele>1740.5</ele>
        <time>2019-06-01T06:36:26.999Z</time>
      </trkpt>
      <trkpt lat="44.76614" lon="5.49078">
        <ele>1740.47</ele>
        <time>2019-06-01T06:36:31.999Z</time>
      </trkpt>
      <trkpt lat="44.76614" lon="5.49065">
        <ele>1741.01</ele>
        <time>2019-06-01T06:36:51.999Z</time>
      </trkpt>
      <trkpt lat="44.76619" lon="5.49077">
        <ele>1742.2</ele>
        <time>2019-06-01T06:37:10.999Z</time>
      </trkpt>
      <trkpt lat="44.76624" lon="5.49089">
        <ele>1743.41</ele>
        <time>2019-06-01T06:37:19.999Z</time>
      </trkpt>
      <trkpt lat="44.76633" lon="5.49095">
        <ele>1744.51</ele>
        <time>2019-06-01T06:37:27.999Z</time>
      </trkpt>
      <trkpt lat="44.76639" lon="5.49105">
        <ele>1745.68</ele>
        <time>2019-06-01T06:37:36.999Z</time>
      </trkpt>
      <trkpt lat="44.76635" lon="5.49117">
        <ele>1747.04</ele>
        <time>2019-06-01T06:37:46.999Z</time>
      </trkpt>
      <trkpt lat="44.76634" lon="5.49131">
        <ele>1747.38</ele>
        <time>2019-06-01T06:37:53.999Z</time>
      </trkpt>
      <trkpt lat="44.76633" lon="5.49144">
        <ele>1747.55</ele>
        <time>2019-06-01T06:38:01.999Z</time>
      </trkpt>
      <trkpt lat="44.76628" lon="5.49157">
        <ele>1747.49</ele>
        <time>2019-06-01T06:38:09.999Z</time>
      </trkpt>
      <trkpt lat="44.76621" lon="5.49167">
        <ele>1747.55</ele>
        <time>2019-06-01T06:38:16.999Z</time>
      </trkpt>
      <trkpt lat="44.76624" lon="5.4918">
        <ele>1747.13</ele>
        <time>2019-06-01T06:38:27.999Z</time>
      </trkpt>
      <trkpt lat="44.76633" lon="5.49184">
        <ele>1746.75</ele>
        <time>2019-06-01T06:38:34.999Z</time>
      </trkpt>
      <trkpt lat="44.76642" lon="5.49184">
        <ele>1746.2</ele>
        <time>2019-06-01T06:38:40.999Z</time>
      </trkpt>
      <trkpt lat="44.76652" lon="5.49183">
        <ele>1745.43</ele>
        <time>2019-06-01T06:38:48.999Z</time>
      </trkpt>
      <trkpt lat="44.76661" lon="5.49188">
        <ele>1745.06</ele>
        <time>2019-06-01T06:38:55.999Z</time>
      </trkpt>
      <trkpt lat="44.76671" lon="5.49187">
        <ele>1744.35</ele>
        <time>2019-06-01T06:39:05.999Z</time>
      </trkpt>
      <trkpt lat="44.76681" lon="5.49183">
        <ele>1742.82</ele>
        <time>2019-06-01T06:39:15.999Z</time>
      </trkpt>
      <trkpt lat="44.76689" lon="5.49178">
        <ele>1741.55</ele>
        <time>2019-06-01T06:39:24.999Z</time>
      </trkpt>
      <trkpt lat="44.76698" lon="5.49171">
        <ele>1740.24</ele>
        <time>2019-06-01T06:39:32.999Z</time>
      </trkpt>
      <trkpt lat="44.76705" lon="5.49163">
        <ele>1738.75</ele>
        <time>2019-06-01T06:39:40.999Z</time>
      </trkpt>
      <trkpt lat="44.76709" lon="5.4915">
        <ele>1737.35</ele>
        <time>2019-06-01T06:39:48.999Z</time>
      </trkpt>
      <trkpt lat="44.76712" lon="5.49138">
        <ele>1736.16</ele>
        <time>2019-06-01T06:39:57.999Z</time>
      </trkpt>
      <trkpt lat="44.76713" lon="5.49125">
        <ele>1735.02</ele>
        <time>2019-06-01T06:40:07.999Z</time>
      </trkpt>
      <trkpt lat="44.76716" lon="5.49111">
        <ele>1734.64</ele>
        <time>2019-06-01T06:40:14.999Z</time>
      </trkpt>
      <trkpt lat="44.76722" lon="5.491">
        <ele>1734.44</ele>
        <time>2019-06-01T06:40:20.999Z</time>
      </trkpt>
      <trkpt lat="44.7673" lon="5.49093">
        <ele>1734.16</ele>
        <time>2019-06-01T06:40:29.999Z</time>
      </trkpt>
      <trkpt lat="44.7674" lon="5.49093">
        <ele>1734.16</ele>
        <time>2019-06-01T06:40:36.999Z</time>
      </trkpt>
      <trkpt lat="44.76749" lon="5.49089">
        <ele>1734.21</ele>
        <time>2019-06-01T06:40:43.999Z</time>
      </trkpt>
      <trkpt lat="44.76758" lon="5.49087">
        <ele>1734.29</ele>
        <time>2019-06-01T06:40:50.999Z</time>
      </trkpt>
      <trkpt lat="44.76766" lon="5.49083">
        <ele>1734.36</ele>
        <time>2019-06-01T06:40:58.999Z</time>
      </trkpt>
      <trkpt lat="44.76776" lon="5.4908">
        <ele>1734.59</ele>
        <time>2019-06-01T06:41:06.999Z</time>
      </trkpt>
      <trkpt lat="44.76785" lon="5.49075">
        <ele>1734.73</ele>
        <time>2019-06-01T06:41:16.999Z</time>
      </trkpt>
      <trkpt lat="44.76794" lon="5.49075">
        <ele>1734.71</ele>
        <time>2019-06-01T06:41:25.999Z</time>
      </trkpt>
      <trkpt lat="44.76804" lon="5.49076">
        <ele>1735.13</ele>
        <time>2019-06-01T06:41:36.999Z</time>
      </trkpt>
      <trkpt lat="44.76813" lon="5.49076">
        <ele>1735.53</ele>
        <time>2019-06-01T06:41:43.999Z</time>
      </trkpt>
      <trkpt lat="44.76823" lon="5.49077">
        <ele>1735.78</ele>
        <time>2019-06-01T06:41:50.999Z</time>
      </trkpt>
      <trkpt lat="44.76832" lon="5.49077">
        <ele>1735.95</ele>
        <time>2019-06-01T06:41:57.999Z</time>
      </trkpt>
      <trkpt lat="44.76842" lon="5.49078">
        <ele>1735.61</ele>
        <time>2019-06-01T06:42:08.999Z</time>
      </trkpt>
      <trkpt lat="44.76851" lon="5.49075">
        <ele>1735.6</ele>
        <time>2019-06-01T06:42:21.999Z</time>
      </trkpt>
      <trkpt lat="44.76858" lon="5.49083">
        <ele>1736.37</ele>
        <time>2019-06-01T06:42:30.999Z</time>
      </trkpt>
      <trkpt lat="44.76867" lon="5.49081">
        <ele>1736.83</ele>
        <time>2019-06-01T06:42:38.999Z</time>
      </trkpt>
      <trkpt lat="44.76873" lon="5.49091">
        <ele>1736.69</ele>
        <time>2019-06-01T06:42:46.999Z</time>
      </trkpt>
      <trkpt lat="44.76883" lon="5.49091">
        <ele>1735.05</ele>
        <time>2019-06-01T06:43:00.999Z</time>
      </trkpt>
      <trkpt lat="44.76892" lon="5.49086">
        <ele>1733.66</ele>
        <time>2019-06-01T06:43:07.999Z</time>
      </trkpt>
      <trkpt lat="44.76902" lon="5.49082">
        <ele>1732.37</ele>
        <time>2019-06-01T06:43:16.999Z</time>
      </trkpt>
      <trkpt lat="44.76912" lon="5.49077">
        <ele>1731.96</ele>
        <time>2019-06-01T06:43:21.999Z</time>
      </trkpt>
      <trkpt lat="44.76922" lon="5.49073">
        <ele>1731.28</ele>
        <time>2019-06-01T06:43:35.999Z</time>
      </trkpt>
      <trkpt lat="44.76931" lon="5.49081">
        <ele>1725.9</ele>
        <time>2019-06-01T06:44:26.999Z</time>
      </trkpt>
      <trkpt lat="44.76939" lon="5.49088">
        <ele>1725.22</ele>
        <time>2019-06-01T06:44:34.999Z</time>
      </trkpt>
      <trkpt lat="44.76947" lon="5.49096">
        <ele>1724.81</ele>
        <time>2019-06-01T06:44:40.999Z</time>
      </trkpt>
      <trkpt lat="44.76955" lon="5.49101">
        <ele>1724.18</ele>
        <time>2019-06-01T06:44:47.999Z</time>
      </trkpt>
      <trkpt lat="44.76964" lon="5.49106">
        <ele>1723.52</ele>
        <time>2019-06-01T06:44:54.999Z</time>
      </trkpt>
      <trkpt lat="44.76972" lon="5.49111">
        <ele>1722.83</ele>
        <time>2019-06-01T06:45:04.999Z</time>
      </trkpt>
      <trkpt lat="44.76981" lon="5.49116">
        <ele>1721.21</ele>
        <time>2019-06-01T06:45:17.999Z</time>
      </trkpt>
      <trkpt lat="44.7699" lon="5.49116">
        <ele>1720.25</ele>
        <time>2019-06-01T06:45:24.999Z</time>
      </trkpt>
      <trkpt lat="44.77" lon="5.49114">
        <ele>1718.88</ele>
        <time>2019-06-01T06:45:33.999Z</time>
      </trkpt>
      <trkpt lat="44.77009" lon="5.49113">
        <ele>1717.69</ele>
        <time>2019-06-01T06:45:40.999Z</time>
      </trkpt>
      <trkpt lat="44.77019" lon="5.49115">
        <ele>1716.74</ele>
        <time>2019-06-01T06:45:46.999Z</time>
      </trkpt>
      <trkpt lat="44.77028" lon="5.49118">
        <ele>1715.74</ele>
        <time>2019-06-01T06:45:53.999Z</time>
      </trkpt>
      <trkpt lat="44.77038" lon="5.49119">
        <ele>1714.49</ele>
        <time>2019-06-01T06:46:01.999Z</time>
      </trkpt>
      <trkpt lat="44.77047" lon="5.49122">
        <ele>1713.5</ele>
        <time>2019-06-01T06:46:08.999Z</time>
      </trkpt>
      <trkpt lat="44.77054" lon="5.4913">
        <ele>1712.99</ele>
        <time>2019-06-01T06:46:14.999Z</time>
      </trkpt>
      <trkpt lat="44.77063" lon="5.49137">
        <ele>1712.48</ele>
        <time>2019-06-01T06:46:22.999Z</time>
      </trkpt>
      <trkpt lat="44.7707" lon="5.49145">
        <ele>1711.91</ele>
        <time>2019-06-01T06:46:31.999Z</time>
      </trkpt>
      <trkpt lat="44.7708" lon="5.49146">
        <ele>1710.83</ele>
        <time>2019-06-01T06:46:39.999Z</time>
      </trkpt>
      <trkpt lat="44.77088" lon="5.49154">
        <ele>1709.53</ele>
        <time>2019-06-01T06:46:49.999Z</time>
      </trkpt>
      <trkpt lat="44.77096" lon="5.4916">
        <ele>1708.21</ele>
        <time>2019-06-01T06:46:57.999Z</time>
      </trkpt>
      <trkpt lat="44.77104" lon="5.49167">
        <ele>1706.68</ele>
        <time>2019-06-01T06:47:05.999Z</time>
      </trkpt>
      <trkpt lat="44.77114" lon="5.49172">
        <ele>1704.13</ele>
        <time>2019-06-01T06:47:22.999Z</time>
      </trkpt>
      <trkpt lat="44.77123" lon="5.49174">
        <ele>1703.44</ele>
        <time>2019-06-01T06:47:30.999Z</time>
      </trkpt>
      <trkpt lat="44.77132" lon="5.49178">
        <ele>1702.38</ele>
        <time>2019-06-01T06:47:39.999Z</time>
      </trkpt>
      <trkpt lat="44.77141" lon="5.49186">
        <ele>1701.42</ele>
        <time>2019-06-01T06:47:47.999Z</time>
      </trkpt>
      <trkpt lat="44.77151" lon="5.49193">
        <ele>1700.83</ele>
        <time>2019-06-01T06:47:53.999Z</time>
      </trkpt>
      <trkpt lat="44.7716" lon="5.49198">
        <ele>1700.23</ele>
        <time>2019-06-01T06:47:59.999Z</time>
      </trkpt>
      <trkpt lat="44.77168" lon="5.49204">
        <ele>1699.26</ele>
        <time>2019-06-01T06:48:06.999Z</time>
      </trkpt>
      <trkpt lat="44.77175" lon="5.49214">
        <ele>1698.26</ele>
        <time>2019-06-01T06:48:23.999Z</time>
      </trkpt>
      <trkpt lat="44.77179" lon="5.49225">
        <ele>1694.24</ele>
        <time>2019-06-01T06:48:52.999Z</time>
      </trkpt>
      <trkpt lat="44.77176" lon="5.49237">
        <ele>1691.44</ele>
        <time>2019-06-01T06:49:20.999Z</time>
      </trkpt>
      <trkpt lat="44.77168" lon="5.49232">
        <ele>1689.42</ele>
        <time>2019-06-01T06:49:44.999Z</time>
      </trkpt>
      <trkpt lat="44.77166" lon="5.49219">
        <ele>1688.36</ele>
        <time>2019-06-01T06:49:56.999Z</time>
      </trkpt>
      <trkpt lat="44.77165" lon="5.49205">
        <ele>1687.54</ele>
        <time>2019-06-01T06:50:10.999Z</time>
      </trkpt>
      <trkpt lat="44.77169" lon="5.49193">
        <ele>1686.82</ele>
        <time>2019-06-01T06:50:17.999Z</time>
      </trkpt>
      <trkpt lat="44.77178" lon="5.49186">
        <ele>1686.3</ele>
        <time>2019-06-01T06:50:25.999Z</time>
      </trkpt>
      <trkpt lat="44.77187" lon="5.49184">
        <ele>1686.26</ele>
        <time>2019-06-01T06:50:31.999Z</time>
      </trkpt>
      <trkpt lat="44.77196" lon="5.49187">
        <ele>1686.33</ele>
        <time>2019-06-01T06:50:38.999Z</time>
      </trkpt>
      <trkpt lat="44.77203" lon="5.49196">
        <ele>1686.02</ele>
        <time>2019-06-01T06:50:48.999Z</time>
      </trkpt>
      <trkpt lat="44.77208" lon="5.49208">
        <ele>1685.66</ele>
        <time>2019-06-01T06:50:56.999Z</time>
      </trkpt>
      <trkpt lat="44.7721" lon="5.49221">
        <ele>1685.09</ele>
        <time>2019-06-01T06:51:04.999Z</time>
      </trkpt>
      <trkpt lat="44.77209" lon="5.49234">
        <ele>1684.99</ele>
        <time>2019-06-01T06:51:12.999Z</time>
      </trkpt>
      <trkpt lat="44.77211" lon="5.49247">
        <ele>1685.15</ele>
        <time>2019-06-01T06:51:18.999Z</time>
      </trkpt>
      <trkpt lat="44.7722" lon="5.49248">
        <ele>1684.84</ele>
        <time>2019-06-01T06:51:31.999Z</time>
      </trkpt>
      <trkpt lat="44.77224" lon="5.49235">
        <ele>1686.3</ele>
        <time>2019-06-01T06:57:03.999Z</time>
      </trkpt>
      <trkpt lat="44.77234" lon="5.49226">
        <ele>1685.11</ele>
        <time>2019-06-01T06:57:08.999Z</time>
      </trkpt>
      <trkpt lat="44.77242" lon="5.49235">
        <ele>1683.49</ele>
        <time>2019-06-01T06:57:18.999Z</time>
      </trkpt>
      <trkpt lat="44.77249" lon="5.49243">
        <ele>1681.72</ele>
        <time>2019-06-01T06:57:28.999Z</time>
      </trkpt>
      <trkpt lat="44.77256" lon="5.4925">
        <ele>1678.93</ele>
        <time>2019-06-01T06:57:40.999Z</time>
      </trkpt>
      <trkpt lat="44.77264" lon="5.49257">
        <ele>1677.14</ele>
        <time>2019-06-01T06:57:47.999Z</time>
      </trkpt>
      <trkpt lat="44.77274" lon="5.49261">
        <ele>1675.74</ele>
        <time>2019-06-01T06:57:53.999Z</time>
      </trkpt>
      <trkpt lat="44.77282" lon="5.49257">
        <ele>1673.86</ele>
        <time>2019-06-01T06:58:01.999Z</time>
      </trkpt>
      <trkpt lat="44.77284" lon="5.49244">
        <ele>1672.66</ele>
        <time>2019-06-01T06:58:11.999Z</time>
      </trkpt>
      <trkpt lat="44.77291" lon="5.49236">
        <ele>1669.3</ele>
        <time>2019-06-01T06:58:39.000Z</time>
      </trkpt>
      <trkpt lat="44.77296" lon="5.49225">
        <ele>1667.14</ele>
        <time>2019-06-01T06:58:52.000Z</time>
      </trkpt>
      <trkpt lat="44.77303" lon="5.49216">
        <ele>1665.73</ele>
        <time>2019-06-01T06:59:01.000Z</time>
      </trkpt>
      <trkpt lat="44.7731" lon="5.49206">
        <ele>1663.81</ele>
        <time>2019-06-01T06:59:11.000Z</time>
      </trkpt>
      <trkpt lat="44.77313" lon="5.49192">
        <ele>1662.46</ele>
        <time>2019-06-01T06:59:19.000Z</time>
      </trkpt>
      <trkpt lat="44.77317" lon="5.49178">
        <ele>1661.84</ele>
        <time>2019-06-01T06:59:24.000Z</time>
      </trkpt>
      <trkpt lat="44.77321" lon="5.49166">
        <ele>1661.2</ele>
        <time>2019-06-01T06:59:32.000Z</time>
      </trkpt>
      <trkpt lat="44.77328" lon="5.49155">
        <ele>1661.23</ele>
        <time>2019-06-01T06:59:41.000Z</time>
      </trkpt>
      <trkpt lat="44.77334" lon="5.49146">
        <ele>1660.87</ele>
        <time>2019-06-01T06:59:51.000Z</time>
      </trkpt>
      <trkpt lat="44.77338" lon="5.49134">
        <ele>1658.72</ele>
        <time>2019-06-01T07:00:00.000Z</time>
      </trkpt>
      <trkpt lat="44.77339" lon="5.4912">
        <ele>1656.16</ele>
        <time>2019-06-01T07:00:09.000Z</time>
      </trkpt>
      <trkpt lat="44.77341" lon="5.49106">
        <ele>1653.84</ele>
        <time>2019-06-01T07:00:16.000Z</time>
      </trkpt>
      <trkpt lat="44.77345" lon="5.49094">
        <ele>1651.76</ele>
        <time>2019-06-01T07:00:23.000Z</time>
      </trkpt>
      <trkpt lat="44.77349" lon="5.49081">
        <ele>1649.36</ele>
        <time>2019-06-01T07:00:33.000Z</time>
      </trkpt>
      <trkpt lat="44.77351" lon="5.49067">
        <ele>1647.82</ele>
        <time>2019-06-01T07:00:42.000Z</time>
      </trkpt>
      <trkpt lat="44.77354" lon="5.49055">
        <ele>1647.14</ele>
        <time>2019-06-01T07:00:48.000Z</time>
      </trkpt>
      <trkpt lat="44.77358" lon="5.49042">
        <ele>1646.43</ele>
        <time>2019-06-01T07:00:55.000Z</time>
      </trkpt>
      <trkpt lat="44.77361" lon="5.4903">
        <ele>1645.92</ele>
        <time>2019-06-01T07:01:04.000Z</time>
      </trkpt>
      <trkpt lat="44.77368" lon="5.49022">
        <ele>1645.84</ele>
        <time>2019-06-01T07:01:12.000Z</time>
      </trkpt>
      <trkpt lat="44.77376" lon="5.49014">
        <ele>1645.37</ele>
        <time>2019-06-01T07:01:20.000Z</time>
      </trkpt>
      <trkpt lat="44.77384" lon="5.49006">
        <ele>1644.6</ele>
        <time>2019-06-01T07:01:30.000Z</time>
      </trkpt>
      <trkpt lat="44.77392" lon="5.48999">
        <ele>1643.9</ele>
        <time>2019-06-01T07:01:37.000Z</time>
      </trkpt>
      <trkpt lat="44.77398" lon="5.48989">
        <ele>1642.51</ele>
        <time>2019-06-01T07:01:46.000Z</time>
      </trkpt>
      <trkpt lat="44.77402" lon="5.48976">
        <ele>1641.08</ele>
        <time>2019-06-01T07:01:54.000Z</time>
      </trkpt>
      <trkpt lat="44.77405" lon="5.48964">
        <ele>1639.25</ele>
        <time>2019-06-01T07:02:03.000Z</time>
      </trkpt>
      <trkpt lat="44.77414" lon="5.48959">
        <ele>1637.9</ele>
        <time>2019-06-01T07:02:11.000Z</time>
      </trkpt>
      <trkpt lat="44.77424" lon="5.48962">
        <ele>1637.27</ele>
        <time>2019-06-01T07:02:19.000Z</time>
      </trkpt>
      <trkpt lat="44.77433" lon="5.48958">
        <ele>1636.94</ele>
        <time>2019-06-01T07:02:31.000Z</time>
      </trkpt>
      <trkpt lat="44.77439" lon="5.48948">
        <ele>1637.04</ele>
        <time>2019-06-01T07:02:40.000Z</time>
      </trkpt>
      <trkpt lat="44.77436" lon="5.48936">
        <ele>1636.4</ele>
        <time>2019-06-01T07:02:53.000Z</time>
      </trkpt>
      <trkpt lat="44.77429" lon="5.48926">
        <ele>1635.15</ele>
        <time>2019-06-01T07:03:02.000Z</time>
      </trkpt>
      <trkpt lat="44.77421" lon="5.48918">
        <ele>1634.46</ele>
        <time>2019-06-01T07:03:08.000Z</time>
      </trkpt>
      <trkpt lat="44.77414" lon="5.48909">
        <ele>1630.35</ele>
        <time>2019-06-01T07:03:31.000Z</time>
      </trkpt>
      <trkpt lat="44.77404" lon="5.48901">
        <ele>1624.5</ele>
        <time>2019-06-01T07:04:02.000Z</time>
      </trkpt>
      <trkpt lat="44.77396" lon="5.48895">
        <ele>1620.99</ele>
        <time>2019-06-01T07:04:12.000Z</time>
      </trkpt>
      <trkpt lat="44.77393" lon="5.48881">
        <ele>1620.3</ele>
        <time>2019-06-01T07:04:19.000Z</time>
      </trkpt>
      <trkpt lat="44.77391" lon="5.48868">
        <ele>1619.41</ele>
        <time>2019-06-01T07:04:29.000Z</time>
      </trkpt>
      <trkpt lat="44.77383" lon="5.48866">
        <ele>1618.47</ele>
        <time>2019-06-01T07:04:38.000Z</time>
      </trkpt>
      <trkpt lat="44.77376" lon="5.48854">
        <ele>1618.26</ele>
        <time>2019-06-01T07:04:44.000Z</time>
      </trkpt>
      <trkpt lat="44.7737" lon="5.48844">
        <ele>1618.2</ele>
        <time>2019-06-01T07:04:49.000Z</time>
      </trkpt>
      <trkpt lat="44.77362" lon="5.48837">
        <ele>1617.62</ele>
        <time>2019-06-01T07:05:05.000Z</time>
      </trkpt>
      <trkpt lat="44.77353" lon="5.48831">
        <ele>1616.28</ele>
        <time>2019-06-01T07:05:13.000Z</time>
      </trkpt>
      <trkpt lat="44.77344" lon="5.48825">
        <ele>1615.49</ele>
        <time>2019-06-01T07:05:19.000Z</time>
      </trkpt>
      <trkpt lat="44.77337" lon="5.48816">
        <ele>1614.66</ele>
        <time>2019-06-01T07:05:27.000Z</time>
      </trkpt>
      <trkpt lat="44.77331" lon="5.48804">
        <ele>1614.27</ele>
        <time>2019-06-01T07:05:32.000Z</time>
      </trkpt>
      <trkpt lat="44.77327" lon="5.48793">
        <ele>1613.65</ele>
        <time>2019-06-01T07:05:40.000Z</time>
      </trkpt>
      <trkpt lat="44.7732" lon="5.48784">
        <ele>1612.08</ele>
        <time>2019-06-01T07:05:51.000Z</time>
      </trkpt>
      <trkpt lat="44.77313" lon="5.48775">
        <ele>1610.86</ele>
        <time>2019-06-01T07:05:58.000Z</time>
      </trkpt>
      <trkpt lat="44.77308" lon="5.48764">
        <ele>1609.98</ele>
        <time>2019-06-01T07:06:04.000Z</time>
      </trkpt>
      <trkpt lat="44.77303" lon="5.48753">
        <ele>1609.16</ele>
        <time>2019-06-01T07:06:11.000Z</time>
      </trkpt>
      <trkpt lat="44.77299" lon="5.48739">
        <ele>1608.72</ele>
        <time>2019-06-01T07:06:19.000Z</time>
      </trkpt>
      <trkpt lat="44.77298" lon="5.48721">
        <ele>1608.41</ele>
        <time>2019-06-01T07:06:24.000Z</time>
      </trkpt>
      <trkpt lat="44.7729" lon="5.48715">
        <ele>1606.52</ele>
        <time>2019-06-01T07:07:18.000Z</time>
      </trkpt>
      <trkpt lat="44.7728" lon="5.48713">
        <ele>1606.86</ele>
        <time>2019-06-01T07:07:32.000Z</time>
      </trkpt>
      <trkpt lat="44.77271" lon="5.48705">
        <ele>1607.52</ele>
        <time>2019-06-01T07:07:37.000Z</time>
      </trkpt>
      <trkpt lat="44.77262" lon="5.48697">
        <ele>1608.16</ele>
        <time>2019-06-01T07:07:44.000Z</time>
      </trkpt>
      <trkpt lat="44.77252" lon="5.48692">
        <ele>1608.3</ele>
        <time>2019-06-01T07:07:49.000Z</time>
      </trkpt>
      <trkpt lat="44.77244" lon="5.48686">
        <ele>1607.86</ele>
        <time>2019-06-01T07:07:56.000Z</time>
      </trkpt>
      <trkpt lat="44.77235" lon="5.48688">
        <ele>1607.27</ele>
        <time>2019-06-01T07:08:05.000Z</time>
      </trkpt>
      <trkpt lat="44.77226" lon="5.48688">
        <ele>1607.02</ele>
        <time>2019-06-01T07:08:16.000Z</time>
      </trkpt>
      <trkpt lat="44.77216" lon="5.48683">
        <ele>1606.25</ele>
        <time>2019-06-01T07:08:24.000Z</time>
      </trkpt>
      <trkpt lat="44.77206" lon="5.48678">
        <ele>1605.54</ele>
        <time>2019-06-01T07:08:32.000Z</time>
      </trkpt>
      <trkpt lat="44.772" lon="5.48666">
        <ele>1604.8</ele>
        <time>2019-06-01T07:08:41.000Z</time>
      </trkpt>
      <trkpt lat="44.77193" lon="5.48658">
        <ele>1603.85</ele>
        <time>2019-06-01T07:08:50.000Z</time>
      </trkpt>
      <trkpt lat="44.77185" lon="5.48652">
        <ele>1603.02</ele>
        <time>2019-06-01T07:08:56.000Z</time>
      </trkpt>
      <trkpt lat="44.7718" lon="5.4864">
        <ele>1602.4</ele>
        <time>2019-06-01T07:09:03.000Z</time>
      </trkpt>
      <trkpt lat="44.77173" lon="5.48632">
        <ele>1601.91</ele>
        <time>2019-06-01T07:09:11.000Z</time>
      </trkpt>
      <trkpt lat="44.77165" lon="5.48623">
        <ele>1601.48</ele>
        <time>2019-06-01T07:09:21.000Z</time>
      </trkpt>
      <trkpt lat="44.77158" lon="5.48615">
        <ele>1601.17</ele>
        <time>2019-06-01T07:09:28.000Z</time>
      </trkpt>
      <trkpt lat="44.77151" lon="5.48607">
        <ele>1601.1</ele>
        <time>2019-06-01T07:09:37.000Z</time>
      </trkpt>
      <trkpt lat="44.77142" lon="5.48602">
        <ele>1601.36</ele>
        <time>2019-06-01T07:09:48.000Z</time>
      </trkpt>
      <trkpt lat="44.77136" lon="5.48592">
        <ele>1601.66</ele>
        <time>2019-06-01T07:09:57.000Z</time>
      </trkpt>
      <trkpt lat="44.77135" lon="5.48578">
        <ele>1602.83</ele>
        <time>2019-06-01T07:10:20.000Z</time>
      </trkpt>
      <trkpt lat="44.77137" lon="5.48565">
        <ele>1602.16</ele>
        <time>2019-06-01T07:10:53.000Z</time>
      </trkpt>
      <trkpt lat="44.77132" lon="5.48554">
        <ele>1600.93</ele>
        <time>2019-06-01T07:11:07.000Z</time>
      </trkpt>
      <trkpt lat="44.77124" lon="5.48546">
        <ele>1582.69</ele>
        <time>2019-06-01T07:12:13.000Z</time>
      </trkpt>
      <trkpt lat="44.77116" lon="5.48553">
        <ele>1580.88</ele>
        <time>2019-06-01T07:12:23.000Z</time>
      </trkpt>
      <trkpt lat="44.77107" lon="5.48557">
        <ele>1579.77</ele>
        <time>2019-06-01T07:12:35.000Z</time>
      </trkpt>
      <trkpt lat="44.77098" lon="5.48555">
        <ele>1571.76</ele>
        <time>2019-06-01T07:14:03.000Z</time>
      </trkpt>
      <trkpt lat="44.7709" lon="5.48548">
        <ele>1570.15</ele>
        <time>2019-06-01T07:14:18.000Z</time>
      </trkpt>
      <trkpt lat="44.77085" lon="5.48536">
        <ele>1568.25</ele>
        <time>2019-06-01T07:14:31.000Z</time>
      </trkpt>
      <trkpt lat="44.77082" lon="5.48524">
        <ele>1566.57</ele>
        <time>2019-06-01T07:14:40.000Z</time>
      </trkpt>
      <trkpt lat="44.7708" lon="5.48511">
        <ele>1563.08</ele>
        <time>2019-06-01T07:14:57.000Z</time>
      </trkpt>
      <trkpt lat="44.7709" lon="5.48512">
        <ele>1561.68</ele>
        <time>2019-06-01T07:15:10.000Z</time>
      </trkpt>
      <trkpt lat="44.77102" lon="5.48509">
        <ele>1561.21</ele>
        <time>2019-06-01T07:15:15.000Z</time>
      </trkpt>
      <trkpt lat="44.7711" lon="5.48514">
        <ele>1560.95</ele>
        <time>2019-06-01T07:15:20.000Z</time>
      </trkpt>
      <trkpt lat="44.77117" lon="5.48523">
        <ele>1557.44</ele>
        <time>2019-06-01T07:15:40.000Z</time>
      </trkpt>
      <trkpt lat="44.77117" lon="5.48509">
        <ele>1550.49</ele>
        <time>2019-06-01T07:16:06.000Z</time>
      </trkpt>
      <trkpt lat="44.77115" lon="5.4849">
        <ele>1550.1</ele>
        <time>2019-06-01T07:16:11.000Z</time>
      </trkpt>
      <trkpt lat="44.7712" lon="5.48479">
        <ele>1540.9</ele>
        <time>2019-06-01T07:16:51.000Z</time>
      </trkpt>
      <trkpt lat="44.77121" lon="5.48466">
        <ele>1538.1</ele>
        <time>2019-06-01T07:16:59.000Z</time>
      </trkpt>
      <trkpt lat="44.77116" lon="5.48454">
        <ele>1534.76</ele>
        <time>2019-06-01T07:17:10.000Z</time>
      </trkpt>
      <trkpt lat="44.77125" lon="5.48451">
        <ele>1523.91</ele>
        <time>2019-06-01T07:17:43.000Z</time>
      </trkpt>
      <trkpt lat="44.77121" lon="5.48438">
        <ele>1521.62</ele>
        <time>2019-06-01T07:17:50.000Z</time>
      </trkpt>
      <trkpt lat="44.7712" lon="5.48424">
        <ele>1518.01</ele>
        <time>2019-06-01T07:17:58.000Z</time>
      </trkpt>
      <trkpt lat="44.7712" lon="5.4841">
        <ele>1513.38</ele>
        <time>2019-06-01T07:18:11.000Z</time>
      </trkpt>
      <trkpt lat="44.77114" lon="5.48401">
        <ele>1508.47</ele>
        <time>2019-06-01T07:18:27.000Z</time>
      </trkpt>
      <trkpt lat="44.7711" lon="5.48388">
        <ele>1507.74</ele>
        <time>2019-06-01T07:18:41.000Z</time>
      </trkpt>
      <trkpt lat="44.77109" lon="5.48374">
        <ele>1507.34</ele>
        <time>2019-06-01T07:18:49.000Z</time>
      </trkpt>
      <trkpt lat="44.77104" lon="5.48363">
        <ele>1507.31</ele>
        <time>2019-06-01T07:19:01.000Z</time>
      </trkpt>
      <trkpt lat="44.77111" lon="5.48355">
        <ele>1506.58</ele>
        <time>2019-06-01T07:19:12.000Z</time>
      </trkpt>
      <trkpt lat="44.77117" lon="5.48344">
        <ele>1503.95</ele>
        <time>2019-06-01T07:19:31.999Z</time>
      </trkpt>
      <trkpt lat="44.77127" lon="5.48345">
        <ele>1503.22</ele>
        <time>2019-06-01T07:19:38.999Z</time>
      </trkpt>
      <trkpt lat="44.77122" lon="5.48334">
        <ele>1498.11</ele>
        <time>2019-06-01T07:19:57.999Z</time>
      </trkpt>
      <trkpt lat="44.77118" lon="5.48322">
        <ele>1496.29</ele>
        <time>2019-06-01T07:20:05.999Z</time>
      </trkpt>
      <trkpt lat="44.7711" lon="5.48315">
        <ele>1493.72</ele>
        <time>2019-06-01T07:20:17.999Z</time>
      </trkpt>
      <trkpt lat="44.77112" lon="5.48302">
        <ele>1487.15</ele>
        <time>2019-06-01T07:20:43.999Z</time>
      </trkpt>
      <trkpt lat="44.77108" lon="5.48291">
        <ele>1482.5</ele>
        <time>2019-06-01T07:20:54.999Z</time>
      </trkpt>
      <trkpt lat="44.77098" lon="5.48293">
        <ele>1478.73</ele>
        <time>2019-06-01T07:21:05.999Z</time>
      </trkpt>
      <trkpt lat="44.77091" lon="5.48284">
        <ele>1471.87</ele>
        <time>2019-06-01T07:21:21.999Z</time>
      </trkpt>
      <trkpt lat="44.77084" lon="5.48276">
        <ele>1469.51</ele>
        <time>2019-06-01T07:21:30.999Z</time>
      </trkpt>
      <trkpt lat="44.77077" lon="5.48268">
        <ele>1466.84</ele>
        <time>2019-06-01T07:21:48.999Z</time>
      </trkpt>
      <trkpt lat="44.77084" lon="5.48257">
        <ele>1467.05</ele>
        <time>2019-06-01T07:22:02.999Z</time>
      </trkpt>
      <trkpt lat="44.77093" lon="5.48255">
        <ele>1464.18</ele>
        <time>2019-06-01T07:22:22.999Z</time>
      </trkpt>
      <trkpt lat="44.77097" lon="5.48242">
        <ele>1464</ele>
        <time>2019-06-01T07:22:28.999Z</time>
      </trkpt>
      <trkpt lat="44.7709" lon="5.48232">
        <ele>1461.89</ele>
        <time>2019-06-01T07:22:43.999Z</time>
      </trkpt>
      <trkpt lat="44.77081" lon="5.48228">
        <ele>1460.25</ele>
        <time>2019-06-01T07:22:58.999Z</time>
      </trkpt>
      <trkpt lat="44.77073" lon="5.48219">
        <ele>1460.14</ele>
        <time>2019-06-01T07:23:04.999Z</time>
      </trkpt>
      <trkpt lat="44.77065" lon="5.4821">
        <ele>1460.4</ele>
        <time>2019-06-01T07:23:09.999Z</time>
      </trkpt>
      <trkpt lat="44.77059" lon="5.482">
        <ele>1460.91</ele>
        <time>2019-06-01T07:23:16.999Z</time>
      </trkpt>
      <trkpt lat="44.77052" lon="5.48191">
        <ele>1461.04</ele>
        <time>2019-06-01T07:23:22.999Z</time>
      </trkpt>
      <trkpt lat="44.77044" lon="5.48186">
        <ele>1460.02</ele>
        <time>2019-06-01T07:23:38.999Z</time>
      </trkpt>
      <trkpt lat="44.77046" lon="5.48173">
        <ele>1451.04</ele>
        <time>2019-06-01T07:24:14.999Z</time>
      </trkpt>
      <trkpt lat="44.77056" lon="5.4817">
        <ele>1450.43</ele>
        <time>2019-06-01T07:24:19.999Z</time>
      </trkpt>
      <trkpt lat="44.77064" lon="5.48165">
        <ele>1449.11</ele>
        <time>2019-06-01T07:24:24.999Z</time>
      </trkpt>
      <trkpt lat="44.77074" lon="5.48166">
        <ele>1446.03</ele>
        <time>2019-06-01T07:24:43.999Z</time>
      </trkpt>
      <trkpt lat="44.77065" lon="5.48163">
        <ele>1441.75</ele>
        <time>2019-06-01T07:25:12.999Z</time>
      </trkpt>
      <trkpt lat="44.77055" lon="5.48159">
        <ele>1440.62</ele>
        <time>2019-06-01T07:25:28.999Z</time>
      </trkpt>
      <trkpt lat="44.77046" lon="5.48151">
        <ele>1440.04</ele>
        <time>2019-06-01T07:25:35.999Z</time>
      </trkpt>
      <trkpt lat="44.77037" lon="5.48144">
        <ele>1439.37</ele>
        <time>2019-06-01T07:25:41.999Z</time>
      </trkpt>
      <trkpt lat="44.77028" lon="5.48145">
        <ele>1438.56</ele>
        <time>2019-06-01T07:25:50.999Z</time>
      </trkpt>
      <trkpt lat="44.77018" lon="5.48141">
        <ele>1437.4</ele>
        <time>2019-06-01T07:26:04.999Z</time>
      </trkpt>
      <trkpt lat="44.7701" lon="5.48136">
        <ele>1436.44</ele>
        <time>2019-06-01T07:26:13.999Z</time>
      </trkpt>
      <trkpt lat="44.77001" lon="5.4813">
        <ele>1430.8</ele>
        <time>2019-06-01T07:26:30.999Z</time>
      </trkpt>
      <trkpt lat="44.76993" lon="5.48124">
        <ele>1424.52</ele>
        <time>2019-06-01T07:26:42.999Z</time>
      </trkpt>
      <trkpt lat="44.76984" lon="5.48128">
        <ele>1420.31</ele>
        <time>2019-06-01T07:26:52.999Z</time>
      </trkpt>
      <trkpt lat="44.76974" lon="5.48129">
        <ele>1418.21</ele>
        <time>2019-06-01T07:26:57.999Z</time>
      </trkpt>
      <trkpt lat="44.76965" lon="5.48133">
        <ele>1415.92</ele>
        <time>2019-06-01T07:27:04.999Z</time>
      </trkpt>
      <trkpt lat="44.76956" lon="5.48139">
        <ele>1413.64</ele>
        <time>2019-06-01T07:27:15.999Z</time>
      </trkpt>
      <trkpt lat="44.76946" lon="5.48143">
        <ele>1412.18</ele>
        <time>2019-06-01T07:27:21.999Z</time>
      </trkpt>
      <trkpt lat="44.76936" lon="5.48143">
        <ele>1409.01</ele>
        <time>2019-06-01T07:27:30.999Z</time>
      </trkpt>
      <trkpt lat="44.76926" lon="5.48142">
        <ele>1406.21</ele>
        <time>2019-06-01T07:27:40.999Z</time>
      </trkpt>
      <trkpt lat="44.76917" lon="5.48141">
        <ele>1404.86</ele>
        <time>2019-06-01T07:27:49.999Z</time>
      </trkpt>
      <trkpt lat="44.76907" lon="5.48144">
        <ele>1403.6</ele>
        <time>2019-06-01T07:27:56.999Z</time>
      </trkpt>
      <trkpt lat="44.76897" lon="5.48144">
        <ele>1403.67</ele>
        <time>2019-06-01T07:28:03.999Z</time>
      </trkpt>
      <trkpt lat="44.76887" lon="5.48142">
        <ele>1403.65</ele>
        <time>2019-06-01T07:28:09.999Z</time>
      </trkpt>
      <trkpt lat="44.76877" lon="5.48142">
        <ele>1403.82</ele>
        <time>2019-06-01T07:28:14.999Z</time>
      </trkpt>
      <trkpt lat="44.76867" lon="5.48143">
        <ele>1404.21</ele>
        <time>2019-06-01T07:28:20.999Z</time>
      </trkpt>
      <trkpt lat="44.76857" lon="5.48142">
        <ele>1404.87</ele>
        <time>2019-06-01T07:28:26.999Z</time>
      </trkpt>
      <trkpt lat="44.76847" lon="5.48143">
        <ele>1405.39</ele>
        <time>2019-06-01T07:28:33.999Z</time>
      </trkpt>
      <trkpt lat="44.76838" lon="5.48143">
        <ele>1405.75</ele>
        <time>2019-06-01T07:28:42.999Z</time>
      </trkpt>
      <trkpt lat="44.76829" lon="5.48146">
        <ele>1405.63</ele>
        <time>2019-06-01T07:28:52.999Z</time>
      </trkpt>
      <trkpt lat="44.76818" lon="5.48148">
        <ele>1405.36</ele>
        <time>2019-06-01T07:29:01.999Z</time>
      </trkpt>
      <trkpt lat="44.76809" lon="5.48153">
        <ele>1405.55</ele>
        <time>2019-06-01T07:29:07.999Z</time>
      </trkpt>
      <trkpt lat="44.768" lon="5.48158">
        <ele>1405.96</ele>
        <time>2019-06-01T07:29:13.999Z</time>
      </trkpt>
      <trkpt lat="44.76791" lon="5.48162">
        <ele>1406.25</ele>
        <time>2019-06-01T07:29:20.999Z</time>
      </trkpt>
      <trkpt lat="44.76781" lon="5.48164">
        <ele>1406.95</ele>
        <time>2019-06-01T07:29:28.999Z</time>
      </trkpt>
      <trkpt lat="44.76772" lon="5.48168">
        <ele>1407.95</ele>
        <time>2019-06-01T07:29:35.999Z</time>
      </trkpt>
      <trkpt lat="44.76762" lon="5.48168">
        <ele>1409.24</ele>
        <time>2019-06-01T07:29:43.999Z</time>
      </trkpt>
      <trkpt lat="44.76753" lon="5.48169">
        <ele>1410.23</ele>
        <time>2019-06-01T07:29:53.999Z</time>
      </trkpt>
      <trkpt lat="44.76743" lon="5.48166">
        <ele>1409.49</ele>
        <time>2019-06-01T07:30:03.999Z</time>
      </trkpt>
      <trkpt lat="44.76735" lon="5.48162">
        <ele>1408.61</ele>
        <time>2019-06-01T07:30:09.999Z</time>
      </trkpt>
      <trkpt lat="44.76725" lon="5.48158">
        <ele>1407.44</ele>
        <time>2019-06-01T07:30:15.999Z</time>
      </trkpt>
      <trkpt lat="44.76718" lon="5.48149">
        <ele>1405.33</ele>
        <time>2019-06-01T07:30:30.999Z</time>
      </trkpt>
      <trkpt lat="44.76709" lon="5.48148">
        <ele>1402.93</ele>
        <time>2019-06-01T07:30:47.999Z</time>
      </trkpt>
      <trkpt lat="44.767" lon="5.48144">
        <ele>1391.48</ele>
        <time>2019-06-01T07:31:09.999Z</time>
      </trkpt>
      <trkpt lat="44.76692" lon="5.48137">
        <ele>1389.55</ele>
        <time>2019-06-01T07:31:14.999Z</time>
      </trkpt>
      <trkpt lat="44.76683" lon="5.48125">
        <ele>1387.69</ele>
        <time>2019-06-01T07:31:19.999Z</time>
      </trkpt>
      <trkpt lat="44.76675" lon="5.4812">
        <ele>1385.34</ele>
        <time>2019-06-01T07:31:25.999Z</time>
      </trkpt>
      <trkpt lat="44.76665" lon="5.48117">
        <ele>1383.88</ele>
        <time>2019-06-01T07:31:31.999Z</time>
      </trkpt>
      <trkpt lat="44.76658" lon="5.48107">
        <ele>1382.98</ele>
        <time>2019-06-01T07:31:41.999Z</time>
      </trkpt>
      <trkpt lat="44.76649" lon="5.48103">
        <ele>1381.18</ele>
        <time>2019-06-01T07:31:55.999Z</time>
      </trkpt>
      <trkpt lat="44.76639" lon="5.481">
        <ele>1379.95</ele>
        <time>2019-06-01T07:32:02.999Z</time>
      </trkpt>
      <trkpt lat="44.7663" lon="5.48101">
        <ele>1379.49</ele>
        <time>2019-06-01T07:32:09.999Z</time>
      </trkpt>
      <trkpt lat="44.76621" lon="5.48104">
        <ele>1379.68</ele>
        <time>2019-06-01T07:32:17.999Z</time>
      </trkpt>
      <trkpt lat="44.76612" lon="5.48107">
        <ele>1379.67</ele>
        <time>2019-06-01T07:32:25.999Z</time>
      </trkpt>
      <trkpt lat="44.76603" lon="5.48111">
        <ele>1379.69</ele>
        <time>2019-06-01T07:32:35.999Z</time>
      </trkpt>
      <trkpt lat="44.76594" lon="5.48115">
        <ele>1381.7</ele>
        <time>2019-06-01T07:32:46.999Z</time>
      </trkpt>
      <trkpt lat="44.76581" lon="5.48121">
        <ele>1383.67</ele>
        <time>2019-06-01T07:32:51.999Z</time>
      </trkpt>
      <trkpt lat="44.76568" lon="5.48125">
        <ele>1385.85</ele>
        <time>2019-06-01T07:32:56.999Z</time>
      </trkpt>
      <trkpt lat="44.7656" lon="5.48121">
        <ele>1387.88</ele>
        <time>2019-06-01T07:33:05.999Z</time>
      </trkpt>
      <trkpt lat="44.76552" lon="5.48113">
        <ele>1390.1</ele>
        <time>2019-06-01T07:33:15.999Z</time>
      </trkpt>
      <trkpt lat="44.76545" lon="5.48105">
        <ele>1392.44</ele>
        <time>2019-06-01T07:33:31.999Z</time>
      </trkpt>
      <trkpt lat="44.7654" lon="5.48094">
        <ele>1387.17</ele>
        <time>2019-06-01T07:34:05.999Z</time>
      </trkpt>
      <trkpt lat="44.76531" lon="5.48095">
        <ele>1383.73</ele>
        <time>2019-06-01T07:34:17.999Z</time>
      </trkpt>
      <trkpt lat="44.76522" lon="5.48092">
        <ele>1381.35</ele>
        <time>2019-06-01T07:34:28.999Z</time>
      </trkpt>
      <trkpt lat="44.76513" lon="5.48088">
        <ele>1379.68</ele>
        <time>2019-06-01T07:34:37.999Z</time>
      </trkpt>
      <trkpt lat="44.76504" lon="5.48084">
        <ele>1378.41</ele>
        <time>2019-06-01T07:34:44.999Z</time>
      </trkpt>
      <trkpt lat="44.76494" lon="5.4808">
        <ele>1378.33</ele>
        <time>2019-06-01T07:34:49.999Z</time>
      </trkpt>
      <trkpt lat="44.76486" lon="5.48073">
        <ele>1377.09</ele>
        <time>2019-06-01T07:34:57.999Z</time>
      </trkpt>
      <trkpt lat="44.76477" lon="5.48067">
        <ele>1374.35</ele>
        <time>2019-06-01T07:35:05.999Z</time>
      </trkpt>
      <trkpt lat="44.76468" lon="5.48066">
        <ele>1372.42</ele>
        <time>2019-06-01T07:35:13.999Z</time>
      </trkpt>
      <trkpt lat="44.76459" lon="5.48064">
        <ele>1369.91</ele>
        <time>2019-06-01T07:35:23.999Z</time>
      </trkpt>
      <trkpt lat="44.76451" lon="5.48054">
        <ele>1367.65</ele>
        <time>2019-06-01T07:35:34.999Z</time>
      </trkpt>
      <trkpt lat="44.76444" lon="5.48045">
        <ele>1367.41</ele>
        <time>2019-06-01T07:35:42.999Z</time>
      </trkpt>
      <trkpt lat="44.76435" lon="5.48044">
        <ele>1368.23</ele>
        <time>2019-06-01T07:35:49.999Z</time>
      </trkpt>
      <trkpt lat="44.76427" lon="5.48053">
        <ele>1369.41</ele>
        <time>2019-06-01T07:35:58.999Z</time>
      </trkpt>
      <trkpt lat="44.76419" lon="5.4806">
        <ele>1366.61</ele>
        <time>2019-06-01T07:36:14.999Z</time>
      </trkpt>
      <trkpt lat="44.76411" lon="5.48067">
        <ele>1359.8</ele>
        <time>2019-06-01T07:36:26.999Z</time>
      </trkpt>
      <trkpt lat="44.76405" lon="5.48076">
        <ele>1355.91</ele>
        <time>2019-06-01T07:36:35.999Z</time>
      </trkpt>
      <trkpt lat="44.76399" lon="5.48087">
        <ele>1353.26</ele>
        <time>2019-06-01T07:36:43.999Z</time>
      </trkpt>
      <trkpt lat="44.76382" lon="5.48068">
        <ele>1351.88</ele>
        <time>2019-06-01T07:36:56.999Z</time>
      </trkpt>
      <trkpt lat="44.76371" lon="5.48047">
        <ele>1361.94</ele>
        <time>2019-06-01T07:37:07.999Z</time>
      </trkpt>
      <trkpt lat="44.76363" lon="5.48041">
        <ele>1367.76</ele>
        <time>2019-06-01T07:37:14.999Z</time>
      </trkpt>
      <trkpt lat="44.76352" lon="5.48035">
        <ele>1370.16</ele>
        <time>2019-06-01T07:37:19.999Z</time>
      </trkpt>
      <trkpt lat="44.76344" lon="5.48041">
        <ele>1370.34</ele>
        <time>2019-06-01T07:37:29.999Z</time>
      </trkpt>
      <trkpt lat="44.76343" lon="5.48054">
        <ele>1327.39</ele>
        <time>2019-06-01T07:38:40.000Z</time>
      </trkpt>
      <trkpt lat="44.76345" lon="5.48068">
        <ele>1326</ele>
        <time>2019-06-01T07:38:48.000Z</time>
      </trkpt>
      <trkpt lat="44.76335" lon="5.48072">
        <ele>1314.04</ele>
        <time>2019-06-01T07:39:01.000Z</time>
      </trkpt>
      <trkpt lat="44.76324" lon="5.48069">
        <ele>1311.09</ele>
        <time>2019-06-01T07:39:06.000Z</time>
      </trkpt>
      <trkpt lat="44.76316" lon="5.48062">
        <ele>1286.69</ele>
        <time>2019-06-01T07:39:14.000Z</time>
      </trkpt>
      <trkpt lat="44.76308" lon="5.48056">
        <ele>1280.86</ele>
        <time>2019-06-01T07:39:20.000Z</time>
      </trkpt>
      <trkpt lat="44.76303" lon="5.48068">
        <ele>1272.35</ele>
        <time>2019-06-01T07:39:38.000Z</time>
      </trkpt>
      <trkpt lat="44.76301" lon="5.48084">
        <ele>1272.24</ele>
        <time>2019-06-01T07:39:43.000Z</time>
      </trkpt>
      <trkpt lat="44.76298" lon="5.48098">
        <ele>1274.55</ele>
        <time>2019-06-01T07:39:50.000Z</time>
      </trkpt>
      <trkpt lat="44.76294" lon="5.4811">
        <ele>1277.67</ele>
        <time>2019-06-01T07:39:55.000Z</time>
      </trkpt>
      <trkpt lat="44.76293" lon="5.48138">
        <ele>1282.4</ele>
        <time>2019-06-01T07:40:00.000Z</time>
      </trkpt>
      <trkpt lat="44.76291" lon="5.48187">
        <ele>1287.38</ele>
        <time>2019-06-01T07:40:05.000Z</time>
      </trkpt>
      <trkpt lat="44.76289" lon="5.48205">
        <ele>1293.14</ele>
        <time>2019-06-01T07:40:10.000Z</time>
      </trkpt>
      <trkpt lat="44.76286" lon="5.48218">
        <ele>1300.01</ele>
        <time>2019-06-01T07:40:16.000Z</time>
      </trkpt>
      <trkpt lat="44.7628" lon="5.48228">
        <ele>1306</ele>
        <time>2019-06-01T07:40:21.000Z</time>
      </trkpt>
      <trkpt lat="44.76275" lon="5.48239">
        <ele>1316.63</ele>
        <time>2019-06-01T07:40:31.000Z</time>
      </trkpt>
      <trkpt lat="44.76271" lon="5.48251">
        <ele>1326.55</ele>
        <time>2019-06-01T07:40:44.000Z</time>
      </trkpt>
      <trkpt lat="44.76265" lon="5.48262">
        <ele>1332.36</ele>
        <time>2019-06-01T07:40:53.000Z</time>
      </trkpt>
      <trkpt lat="44.76259" lon="5.48272">
        <ele>1335.64</ele>
        <time>2019-06-01T07:41:00.000Z</time>
      </trkpt>
      <trkpt lat="44.76252" lon="5.48283">
        <ele>1339.66</ele>
        <time>2019-06-01T07:41:09.000Z</time>
      </trkpt>
      <trkpt lat="44.76246" lon="5.48294">
        <ele>1341.3</ele>
        <time>2019-06-01T07:41:14.000Z</time>
      </trkpt>
      <trkpt lat="44.76239" lon="5.48303">
        <ele>1342.47</ele>
        <time>2019-06-01T07:41:26.000Z</time>
      </trkpt>
      <trkpt lat="44.76231" lon="5.48309">
        <ele>1345.63</ele>
        <time>2019-06-01T07:41:37.000Z</time>
      </trkpt>
      <trkpt lat="44.76221" lon="5.48315">
        <ele>1348.27</ele>
        <time>2019-06-01T07:41:44.000Z</time>
      </trkpt>
      <trkpt lat="44.76211" lon="5.48319">
        <ele>1350.4</ele>
        <time>2019-06-01T07:41:49.000Z</time>
      </trkpt>
      <trkpt lat="44.76203" lon="5.48324">
        <ele>1355.37</ele>
        <time>2019-06-01T07:42:01.000Z</time>
      </trkpt>
      <trkpt lat="44.76201" lon="5.48336">
        <ele>1358.66</ele>
        <time>2019-06-01T07:42:09.000Z</time>
      </trkpt>
      <trkpt lat="44.76196" lon="5.48348">
        <ele>1361.39</ele>
        <time>2019-06-01T07:42:18.000Z</time>
      </trkpt>
      <trkpt lat="44.76191" lon="5.4836">
        <ele>1362.21</ele>
        <time>2019-06-01T07:42:27.000Z</time>
      </trkpt>
      <trkpt lat="44.76182" lon="5.48364">
        <ele>1365</ele>
        <time>2019-06-01T07:42:36.000Z</time>
      </trkpt>
      <trkpt lat="44.76174" lon="5.48371">
        <ele>1364.92</ele>
        <time>2019-06-01T07:42:42.000Z</time>
      </trkpt>
      <trkpt lat="44.76171" lon="5.48383">
        <ele>1363.66</ele>
        <time>2019-06-01T07:42:49.000Z</time>
      </trkpt>
      <trkpt lat="44.76172" lon="5.48397">
        <ele>1361.67</ele>
        <time>2019-06-01T07:42:59.000Z</time>
      </trkpt>
      <trkpt lat="44.76172" lon="5.48412">
        <ele>1359.47</ele>
        <time>2019-06-01T07:43:06.000Z</time>
      </trkpt>
      <trkpt lat="44.76172" lon="5.48426">
        <ele>1357.75</ele>
        <time>2019-06-01T07:43:11.000Z</time>
      </trkpt>
      <trkpt lat="44.76173" lon="5.48439">
        <ele>1354.36</ele>
        <time>2019-06-01T07:43:20.000Z</time>
      </trkpt>
      <trkpt lat="44.76172" lon="5.48452">
        <ele>1350.6</ele>
        <time>2019-06-01T07:43:28.000Z</time>
      </trkpt>
      <trkpt lat="44.76168" lon="5.48464">
        <ele>1346.96</ele>
        <time>2019-06-01T07:43:35.000Z</time>
      </trkpt>
      <trkpt lat="44.76162" lon="5.48476">
        <ele>1343.44</ele>
        <time>2019-06-01T07:43:42.000Z</time>
      </trkpt>
      <trkpt lat="44.76156" lon="5.48487">
        <ele>1340.7</ele>
        <time>2019-06-01T07:43:48.000Z</time>
      </trkpt>
      <trkpt lat="44.76146" lon="5.48496">
        <ele>1338.28</ele>
        <time>2019-06-01T07:43:53.000Z</time>
      </trkpt>
      <trkpt lat="44.76139" lon="5.48505">
        <ele>1335.83</ele>
        <time>2019-06-01T07:44:04.000Z</time>
      </trkpt>
      <trkpt lat="44.7613" lon="5.48507">
        <ele>1334.61</ele>
        <time>2019-06-01T07:44:15.000Z</time>
      </trkpt>
      <trkpt lat="44.7612" lon="5.48509">
        <ele>1334.75</ele>
        <time>2019-06-01T07:44:21.000Z</time>
      </trkpt>
      <trkpt lat="44.7611" lon="5.48507">
        <ele>1335.06</ele>
        <time>2019-06-01T07:44:31.000Z</time>
      </trkpt>
      <trkpt lat="44.761" lon="5.48509">
        <ele>1335.03</ele>
        <time>2019-06-01T07:44:40.000Z</time>
      </trkpt>
      <trkpt lat="44.7609" lon="5.4851">
        <ele>1334.3</ele>
        <time>2019-06-01T07:44:49.000Z</time>
      </trkpt>
      <trkpt lat="44.76081" lon="5.48511">
        <ele>1331.78</ele>
        <time>2019-06-01T07:44:59.000Z</time>
      </trkpt>
      <trkpt lat="44.76073" lon="5.48517">
        <ele>1330.03</ele>
        <time>2019-06-01T07:45:11.000Z</time>
      </trkpt>
      <trkpt lat="44.76064" lon="5.48521">
        <ele>1329.18</ele>
        <time>2019-06-01T07:45:23.000Z</time>
      </trkpt>
      <trkpt lat="44.76055" lon="5.48525">
        <ele>1327.21</ele>
        <time>2019-06-01T07:45:40.000Z</time>
      </trkpt>
      <trkpt lat="44.76042" lon="5.4853">
        <ele>1326.59</ele>
        <time>2019-06-01T07:45:45.000Z</time>
      </trkpt>
      <trkpt lat="44.76027" lon="5.48521">
        <ele>1324.88</ele>
        <time>2019-06-01T07:46:07.000Z</time>
      </trkpt>
      <trkpt lat="44.7602" lon="5.48512">
        <ele>1324.58</ele>
        <time>2019-06-01T07:46:19.000Z</time>
      </trkpt>
      <trkpt lat="44.76011" lon="5.4851">
        <ele>1323.92</ele>
        <time>2019-06-01T07:46:28.000Z</time>
      </trkpt>
      <trkpt lat="44.76001" lon="5.4851">
        <ele>1323.31</ele>
        <time>2019-06-01T07:46:36.000Z</time>
      </trkpt>
      <trkpt lat="44.75992" lon="5.48513">
        <ele>1322.91</ele>
        <time>2019-06-01T07:46:42.000Z</time>
      </trkpt>
      <trkpt lat="44.75983" lon="5.48516">
        <ele>1322.79</ele>
        <time>2019-06-01T07:46:48.000Z</time>
      </trkpt>
      <trkpt lat="44.75973" lon="5.48518">
        <ele>1322.87</ele>
        <time>2019-06-01T07:46:54.000Z</time>
      </trkpt>
      <trkpt lat="44.75964" lon="5.48522">
        <ele>1323.22</ele>
        <time>2019-06-01T07:47:00.000Z</time>
      </trkpt>
      <trkpt lat="44.75956" lon="5.48527">
        <ele>1323.77</ele>
        <time>2019-06-01T07:47:10.000Z</time>
      </trkpt>
      <trkpt lat="44.75946" lon="5.48529">
        <ele>1324.15</ele>
        <time>2019-06-01T07:47:18.000Z</time>
      </trkpt>
      <trkpt lat="44.75936" lon="5.48532">
        <ele>1324.39</ele>
        <time>2019-06-01T07:47:27.000Z</time>
      </trkpt>
      <trkpt lat="44.75927" lon="5.48534">
        <ele>1323.76</ele>
        <time>2019-06-01T07:47:37.000Z</time>
      </trkpt>
      <trkpt lat="44.75917" lon="5.48534">
        <ele>1320.87</ele>
        <time>2019-06-01T07:47:51.000Z</time>
      </trkpt>
      <trkpt lat="44.75907" lon="5.48534">
        <ele>1315.98</ele>
        <time>2019-06-01T07:48:06.000Z</time>
      </trkpt>
      <trkpt lat="44.75898" lon="5.48536">
        <ele>1313.77</ele>
        <time>2019-06-01T07:48:16.000Z</time>
      </trkpt>
      <trkpt lat="44.75891" lon="5.48543">
        <ele>1311.15</ele>
        <time>2019-06-01T07:48:27.000Z</time>
      </trkpt>
      <trkpt lat="44.75881" lon="5.48546">
        <ele>1308.3</ele>
        <time>2019-06-01T07:48:37.000Z</time>
      </trkpt>
      <trkpt lat="44.75872" lon="5.48549">
        <ele>1304.02</ele>
        <time>2019-06-01T07:48:52.000Z</time>
      </trkpt>
      <trkpt lat="44.75865" lon="5.48556">
        <ele>1296.58</ele>
        <time>2019-06-01T07:49:07.000Z</time>
      </trkpt>
      <trkpt lat="44.75856" lon="5.48561">
        <ele>1291.01</ele>
        <time>2019-06-01T07:49:17.000Z</time>
      </trkpt>
      <trkpt lat="44.75849" lon="5.48568">
        <ele>1285.02</ele>
        <time>2019-06-01T07:49:27.000Z</time>
      </trkpt>
      <trkpt lat="44.75843" lon="5.48579">
        <ele>1280.87</ele>
        <time>2019-06-01T07:49:36.000Z</time>
      </trkpt>
      <trkpt lat="44.75836" lon="5.48587">
        <ele>1277.71</ele>
        <time>2019-06-01T07:49:45.000Z</time>
      </trkpt>
      <trkpt lat="44.75829" lon="5.48597">
        <ele>1269.09</ele>
        <time>2019-06-01T07:50:07.000Z</time>
      </trkpt>
      <trkpt lat="44.7582" lon="5.48596">
        <ele>1262.9</ele>
        <time>2019-06-01T07:50:21.000Z</time>
      </trkpt>
      <trkpt lat="44.75814" lon="5.48606">
        <ele>1256.06</ele>
        <time>2019-06-01T07:50:35.000Z</time>
      </trkpt>
      <trkpt lat="44.75809" lon="5.48617">
        <ele>1241.14</ele>
        <time>2019-06-01T07:50:58.000Z</time>
      </trkpt>
      <trkpt lat="44.75801" lon="5.48624">
        <ele>1235.85</ele>
        <time>2019-06-01T07:51:06.000Z</time>
      </trkpt>
      <trkpt lat="44.75792" lon="5.48628">
        <ele>1230.72</ele>
        <time>2019-06-01T07:51:14.000Z</time>
      </trkpt>
      <trkpt lat="44.75783" lon="5.48629">
        <ele>1224.21</ele>
        <time>2019-06-01T07:51:25.000Z</time>
      </trkpt>
      <trkpt lat="44.75773" lon="5.48629">
        <ele>1195.3</ele>
        <time>2019-06-01T07:51:47.000Z</time>
      </trkpt>
      <trkpt lat="44.75765" lon="5.48634">
        <ele>1193.47</ele>
        <time>2019-06-01T07:52:02.000Z</time>
      </trkpt>
      <trkpt lat="44.75756" lon="5.48636">
        <ele>1194.57</ele>
        <time>2019-06-01T07:52:14.000Z</time>
      </trkpt>
      <trkpt lat="44.75748" lon="5.48639">
        <ele>1196.64</ele>
        <time>2019-06-01T07:52:21.000Z</time>
      </trkpt>
      <trkpt lat="44.75738" lon="5.48644">
        <ele>1199.8</ele>
        <time>2019-06-01T07:52:28.000Z</time>
      </trkpt>
      <trkpt lat="44.75729" lon="5.48647">
        <ele>1203.87</ele>
        <time>2019-06-01T07:52:36.000Z</time>
      </trkpt>
      <trkpt lat="44.75718" lon="5.48649">
        <ele>1207.8</ele>
        <time>2019-06-01T07:52:46.000Z</time>
      </trkpt>
      <trkpt lat="44.75709" lon="5.48652">
        <ele>1211.5</ele>
        <time>2019-06-01T07:52:54.000Z</time>
      </trkpt>
      <trkpt lat="44.757" lon="5.48649">
        <ele>1216.66</ele>
        <time>2019-06-01T07:53:12.000Z</time>
      </trkpt>
      <trkpt lat="44.75693" lon="5.48658">
        <ele>1217.88</ele>
        <time>2019-06-01T07:53:22.000Z</time>
      </trkpt>
      <trkpt lat="44.75685" lon="5.48665">
        <ele>1218.97</ele>
        <time>2019-06-01T07:53:42.000Z</time>
      </trkpt>
      <trkpt lat="44.75676" lon="5.48671">
        <ele>1219.35</ele>
        <time>2019-06-01T07:53:55.000Z</time>
      </trkpt>
      <trkpt lat="44.75668" lon="5.48676">
        <ele>1220.93</ele>
        <time>2019-06-01T07:54:02.000Z</time>
      </trkpt>
      <trkpt lat="44.75659" lon="5.48683">
        <ele>1222.95</ele>
        <time>2019-06-01T07:54:09.000Z</time>
      </trkpt>
      <trkpt lat="44.75652" lon="5.48692">
        <ele>1225.21</ele>
        <time>2019-06-01T07:54:17.000Z</time>
      </trkpt>
      <trkpt lat="44.75646" lon="5.48702">
        <ele>1227.02</ele>
        <time>2019-06-01T07:54:26.000Z</time>
      </trkpt>
      <trkpt lat="44.75639" lon="5.48711">
        <ele>1228.56</ele>
        <time>2019-06-01T07:54:39.000Z</time>
      </trkpt>
      <trkpt lat="44.75631" lon="5.48719">
        <ele>1228.29</ele>
        <time>2019-06-01T07:54:52.000Z</time>
      </trkpt>
      <trkpt lat="44.75623" lon="5.48726">
        <ele>1228.46</ele>
        <time>2019-06-01T07:55:01.000Z</time>
      </trkpt>
      <trkpt lat="44.75614" lon="5.48729">
        <ele>1229.23</ele>
        <time>2019-06-01T07:55:12.000Z</time>
      </trkpt>
      <trkpt lat="44.75605" lon="5.48734">
        <ele>1230.34</ele>
        <time>2019-06-01T07:55:24.000Z</time>
      </trkpt>
      <trkpt lat="44.75597" lon="5.48742">
        <ele>1230.86</ele>
        <time>2019-06-01T07:55:35.000Z</time>
      </trkpt>
      <trkpt lat="44.7559" lon="5.4875">
        <ele>1231.4</ele>
        <time>2019-06-01T07:55:45.000Z</time>
      </trkpt>
      <trkpt lat="44.75582" lon="5.48758">
        <ele>1232.05</ele>
        <time>2019-06-01T07:55:57.000Z</time>
      </trkpt>
      <trkpt lat="44.75575" lon="5.48767">
        <ele>1232.13</ele>
        <time>2019-06-01T07:56:11.000Z</time>
      </trkpt>
      <trkpt lat="44.75566" lon="5.48773">
        <ele>1231.61</ele>
        <time>2019-06-01T07:56:30.000Z</time>
      </trkpt>
      <trkpt lat="44.7556" lon="5.48784">
        <ele>1232</ele>
        <time>2019-06-01T07:56:38.000Z</time>
      </trkpt>
      <trkpt lat="44.75554" lon="5.48794">
        <ele>1232.6</ele>
        <time>2019-06-01T07:56:47.000Z</time>
      </trkpt>
      <trkpt lat="44.75548" lon="5.48803">
        <ele>1232.65</ele>
        <time>2019-06-01T07:56:57.000Z</time>
      </trkpt>
      <trkpt lat="44.75543" lon="5.48815">
        <ele>1232.39</ele>
        <time>2019-06-01T07:57:07.000Z</time>
      </trkpt>
      <trkpt lat="44.75538" lon="5.48826">
        <ele>1230.12</ele>
        <time>2019-06-01T07:57:16.000Z</time>
      </trkpt>
      <trkpt lat="44.75536" lon="5.48839">
        <ele>1227.24</ele>
        <time>2019-06-01T07:57:29.000Z</time>
      </trkpt>
      <trkpt lat="44.75531" lon="5.4885">
        <ele>1221.46</ele>
        <time>2019-06-01T07:57:43.000Z</time>
      </trkpt>
      <trkpt lat="44.75526" lon="5.48861">
        <ele>1216.55</ele>
        <time>2019-06-01T07:57:58.000Z</time>
      </trkpt>
      <trkpt lat="44.75517" lon="5.48866">
        <ele>1208.15</ele>
        <time>2019-06-01T07:58:28.000Z</time>
      </trkpt>
      <trkpt lat="44.75511" lon="5.48875">
        <ele>1201.13</ele>
        <time>2019-06-01T07:58:44.000Z</time>
      </trkpt>
      <trkpt lat="44.75512" lon="5.48888">
        <ele>1193.42</ele>
        <time>2019-06-01T07:58:55.999Z</time>
      </trkpt>
      <trkpt lat="44.75512" lon="5.48902">
        <ele>1186.59</ele>
        <time>2019-06-01T07:59:05.999Z</time>
      </trkpt>
      <trkpt lat="44.75512" lon="5.48916">
        <ele>1182.31</ele>
        <time>2019-06-01T07:59:12.999Z</time>
      </trkpt>
      <trkpt lat="44.75511" lon="5.48929">
        <ele>1178.09</ele>
        <time>2019-06-01T07:59:20.999Z</time>
      </trkpt>
      <trkpt lat="44.75504" lon="5.48939">
        <ele>1174.73</ele>
        <time>2019-06-01T07:59:28.999Z</time>
      </trkpt>
      <trkpt lat="44.75494" lon="5.48954">
        <ele>1169.24</ele>
        <time>2019-06-01T07:59:49.999Z</time>
      </trkpt>
      <trkpt lat="44.7549" lon="5.48965">
        <ele>1162.68</ele>
        <time>2019-06-01T08:00:05.999Z</time>
      </trkpt>
      <trkpt lat="44.75487" lon="5.48977">
        <ele>1156.56</ele>
        <time>2019-06-01T08:00:22.999Z</time>
      </trkpt>
      <trkpt lat="44.75485" lon="5.4899">
        <ele>1149.66</ele>
        <time>2019-06-01T08:00:35.999Z</time>
      </trkpt>
      <trkpt lat="44.75481" lon="5.49002">
        <ele>1144.25</ele>
        <time>2019-06-01T08:00:46.999Z</time>
      </trkpt>
      <trkpt lat="44.75481" lon="5.49015">
        <ele>1138.58</ele>
        <time>2019-06-01T08:00:58.999Z</time>
      </trkpt>
      <trkpt lat="44.75481" lon="5.49029">
        <ele>1131.6</ele>
        <time>2019-06-01T08:01:09.999Z</time>
      </trkpt>
      <trkpt lat="44.75482" lon="5.49042">
        <ele>1124.51</ele>
        <time>2019-06-01T08:01:25.999Z</time>
      </trkpt>
      <trkpt lat="44.75488" lon="5.49054">
        <ele>1116.87</ele>
        <time>2019-06-01T08:01:41.999Z</time>
      </trkpt>
      <trkpt lat="44.75483" lon="5.49065">
        <ele>1109.37</ele>
        <time>2019-06-01T08:01:52.999Z</time>
      </trkpt>
      <trkpt lat="44.75475" lon="5.49073">
        <ele>1105.26</ele>
        <time>2019-06-01T08:02:00.999Z</time>
      </trkpt>
      <trkpt lat="44.75472" lon="5.49086">
        <ele>1098.45</ele>
        <time>2019-06-01T08:02:12.999Z</time>
      </trkpt>
      <trkpt lat="44.75464" lon="5.49078">
        <ele>1080.18</ele>
        <time>2019-06-01T08:02:36.999Z</time>
      </trkpt>
      <trkpt lat="44.75455" lon="5.49082">
        <ele>1064.54</ele>
        <time>2019-06-01T08:03:09.999Z</time>
      </trkpt>
      <trkpt lat="44.75448" lon="5.49091">
        <ele>1063.03</ele>
        <time>2019-06-01T08:03:40.999Z</time>
      </trkpt>
      <trkpt lat="44.75439" lon="5.49086">
        <ele>1062.74</ele>
        <time>2019-06-01T08:03:47.999Z</time>
      </trkpt>
      <trkpt lat="44.75428" lon="5.49071">
        <ele>1063.32</ele>
        <time>2019-06-01T08:03:52.999Z</time>
      </trkpt>
      <trkpt lat="44.75423" lon="5.4906">
        <ele>1065.2</ele>
        <time>2019-06-01T08:03:57.999Z</time>
      </trkpt>
      <trkpt lat="44.75414" lon="5.49043">
        <ele>1067</ele>
        <time>2019-06-01T08:04:02.999Z</time>
      </trkpt>
      <trkpt lat="44.75411" lon="5.49055">
        <ele>1067.31</ele>
        <time>2019-06-01T08:04:38.999Z</time>
      </trkpt>
      <trkpt lat="44.75403" lon="5.49062">
        <ele>1065.39</ele>
        <time>2019-06-01T08:04:50.999Z</time>
      </trkpt>
      <trkpt lat="44.75397" lon="5.49072">
        <ele>1059.93</ele>
        <time>2019-06-01T08:05:32.999Z</time>
      </trkpt>
      <trkpt lat="44.75394" lon="5.49085">
        <ele>1059.05</ele>
        <time>2019-06-01T08:05:42.999Z</time>
      </trkpt>
      <trkpt lat="44.75396" lon="5.49098">
        <ele>1057.71</ele>
        <time>2019-06-01T08:05:55.999Z</time>
      </trkpt>
      <trkpt lat="44.75386" lon="5.491">
        <ele>1061.67</ele>
        <time>2019-06-01T08:06:38.999Z</time>
      </trkpt>
      <trkpt lat="44.75379" lon="5.49122">
        <ele>1064.38</ele>
        <time>2019-06-01T08:07:21.999Z</time>
      </trkpt>
      <trkpt lat="44.75381" lon="5.49135">
        <ele>1065.44</ele>
        <time>2019-06-01T08:07:39.999Z</time>
      </trkpt>
      <trkpt lat="44.75378" lon="5.49157">
        <ele>1065.09</ele>
        <time>2019-06-01T08:08:30.999Z</time>
      </trkpt>
      <trkpt lat="44.75384" lon="5.49168">
        <ele>1063.16</ele>
        <time>2019-06-01T08:09:00.999Z</time>
      </trkpt>
      <trkpt lat="44.75382" lon="5.49181">
        <ele>1061.75</ele>
        <time>2019-06-01T08:09:15.999Z</time>
      </trkpt>
      <trkpt lat="44.75373" lon="5.49186">
        <ele>1057.82</ele>
        <time>2019-06-01T08:09:33.999Z</time>
      </trkpt>
      <trkpt lat="44.75364" lon="5.49185">
        <ele>1054.1</ele>
        <time>2019-06-01T08:09:44.999Z</time>
      </trkpt>
      <trkpt lat="44.75355" lon="5.49188">
        <ele>1050.26</ele>
        <time>2019-06-01T08:09:58.999Z</time>
      </trkpt>
      <trkpt lat="44.75346" lon="5.49195">
        <ele>1047.39</ele>
        <time>2019-06-01T08:10:10.999Z</time>
      </trkpt>
      <trkpt lat="44.75337" lon="5.49199">
        <ele>1043.9</ele>
        <time>2019-06-01T08:10:22.999Z</time>
      </trkpt>
      <trkpt lat="44.75327" lon="5.49201">
        <ele>1041.28</ele>
        <time>2019-06-01T08:10:34.999Z</time>
      </trkpt>
      <trkpt lat="44.75319" lon="5.49208">
        <ele>1038.69</ele>
        <time>2019-06-01T08:10:44.999Z</time>
      </trkpt>
      <trkpt lat="44.75313" lon="5.49219">
        <ele>1036.54</ele>
        <time>2019-06-01T08:10:54.999Z</time>
      </trkpt>
      <trkpt lat="44.75308" lon="5.49229">
        <ele>1033.54</ele>
        <time>2019-06-01T08:11:05.999Z</time>
      </trkpt>
      <trkpt lat="44.75299" lon="5.49235">
        <ele>1027.25</ele>
        <time>2019-06-01T08:11:27.999Z</time>
      </trkpt>
      <trkpt lat="44.7529" lon="5.49241">
        <ele>1024.34</ele>
        <time>2019-06-01T08:11:39.999Z</time>
      </trkpt>
      <trkpt lat="44.75282" lon="5.49248">
        <ele>1019.95</ele>
        <time>2019-06-01T08:11:52.999Z</time>
      </trkpt>
      <trkpt lat="44.75274" lon="5.49257">
        <ele>1017.53</ele>
        <time>2019-06-01T08:12:03.999Z</time>
      </trkpt>
      <trkpt lat="44.75266" lon="5.49263">
        <ele>1015.67</ele>
        <time>2019-06-01T08:12:11.999Z</time>
      </trkpt>
      <trkpt lat="44.75258" lon="5.4927">
        <ele>1012.24</ele>
        <time>2019-06-01T08:12:29.999Z</time>
      </trkpt>
      <trkpt lat="44.75251" lon="5.49279">
        <ele>1006.52</ele>
        <time>2019-06-01T08:12:57.999Z</time>
      </trkpt>
      <trkpt lat="44.75248" lon="5.49292">
        <ele>1003.7</ele>
        <time>2019-06-01T08:13:09.999Z</time>
      </trkpt>
      <trkpt lat="44.75239" lon="5.49292">
        <ele>1000.14</ele>
        <time>2019-06-01T08:13:20.999Z</time>
      </trkpt>
      <trkpt lat="44.7523" lon="5.49292">
        <ele>997.42</ele>
        <time>2019-06-01T08:13:30.999Z</time>
      </trkpt>
      <trkpt lat="44.75221" lon="5.49308">
        <ele>990.98</ele>
        <time>2019-06-01T08:14:18.999Z</time>
      </trkpt>
      <trkpt lat="44.75226" lon="5.49319">
        <ele>985.5</ele>
        <time>2019-06-01T08:14:43.999Z</time>
      </trkpt>
      <trkpt lat="44.7523" lon="5.49331">
        <ele>983.41</ele>
        <time>2019-06-01T08:14:52.999Z</time>
      </trkpt>
      <trkpt lat="44.75226" lon="5.49343">
        <ele>981.81</ele>
        <time>2019-06-01T08:15:01.999Z</time>
      </trkpt>
      <trkpt lat="44.75217" lon="5.49351">
        <ele>981.36</ele>
        <time>2019-06-01T08:15:15.999Z</time>
      </trkpt>
      <trkpt lat="44.75209" lon="5.49357">
        <ele>981.13</ele>
        <time>2019-06-01T08:15:25.999Z</time>
      </trkpt>
      <trkpt lat="44.752" lon="5.49362">
        <ele>979.9</ele>
        <time>2019-06-01T08:15:35.999Z</time>
      </trkpt>
      <trkpt lat="44.75191" lon="5.49359">
        <ele>977.25</ele>
        <time>2019-06-01T08:15:47.999Z</time>
      </trkpt>
      <trkpt lat="44.75182" lon="5.49357">
        <ele>972.38</ele>
        <time>2019-06-01T08:16:02.999Z</time>
      </trkpt>
      <trkpt lat="44.75173" lon="5.49358">
        <ele>966.73</ele>
        <time>2019-06-01T08:16:14.999Z</time>
      </trkpt>
      <trkpt lat="44.75164" lon="5.49359">
        <ele>963.33</ele>
        <time>2019-06-01T08:16:25.999Z</time>
      </trkpt>
      <trkpt lat="44.75156" lon="5.49351">
        <ele>959.71</ele>
        <time>2019-06-01T08:16:35.999Z</time>
      </trkpt>
      <trkpt lat="44.75146" lon="5.49351">
        <ele>951.65</ele>
        <time>2019-06-01T08:17:13.999Z</time>
      </trkpt>
      <trkpt lat="44.75138" lon="5.49358">
        <ele>949.13</ele>
        <time>2019-06-01T08:17:25.999Z</time>
      </trkpt>
      <trkpt lat="44.75129" lon="5.49362">
        <ele>947.92</ele>
        <time>2019-06-01T08:17:34.999Z</time>
      </trkpt>
      <trkpt lat="44.7512" lon="5.49367">
        <ele>945.82</ele>
        <time>2019-06-01T08:17:47.999Z</time>
      </trkpt>
      <trkpt lat="44.75111" lon="5.49375">
        <ele>944.7</ele>
        <time>2019-06-01T08:17:56.999Z</time>
      </trkpt>
      <trkpt lat="44.75104" lon="5.49383">
        <ele>941.08</ele>
        <time>2019-06-01T08:18:19.999Z</time>
      </trkpt>
      <trkpt lat="44.75099" lon="5.49394">
        <ele>939.18</ele>
        <time>2019-06-01T08:18:29.999Z</time>
      </trkpt>
      <trkpt lat="44.7509" lon="5.49399">
        <ele>936.48</ele>
        <time>2019-06-01T08:18:40.999Z</time>
      </trkpt>
      <trkpt lat="44.75083" lon="5.49409">
        <ele>933.11</ele>
        <time>2019-06-01T08:18:53.999Z</time>
      </trkpt>
      <trkpt lat="44.75076" lon="5.49418">
        <ele>931.58</ele>
        <time>2019-06-01T08:19:02.999Z</time>
      </trkpt>
      <trkpt lat="44.75068" lon="5.49424">
        <ele>927.03</ele>
        <time>2019-06-01T08:19:18.999Z</time>
      </trkpt>
      <trkpt lat="44.7506" lon="5.49431">
        <ele>924.99</ele>
        <time>2019-06-01T08:19:27.999Z</time>
      </trkpt>
      <trkpt lat="44.75051" lon="5.49433">
        <ele>922.51</ele>
        <time>2019-06-01T08:19:36.999Z</time>
      </trkpt>
      <trkpt lat="44.75042" lon="5.49437">
        <ele>919.22</ele>
        <time>2019-06-01T08:19:47.999Z</time>
      </trkpt>
      <trkpt lat="44.75032" lon="5.49437">
        <ele>917.11</ele>
        <time>2019-06-01T08:19:54.999Z</time>
      </trkpt>
      <trkpt lat="44.75022" lon="5.49439">
        <ele>915.64</ele>
        <time>2019-06-01T08:20:00.999Z</time>
      </trkpt>
      <trkpt lat="44.75015" lon="5.49447">
        <ele>912.9</ele>
        <time>2019-06-01T08:20:10.999Z</time>
      </trkpt>
      <trkpt lat="44.75007" lon="5.49455">
        <ele>910.64</ele>
        <time>2019-06-01T08:20:20.999Z</time>
      </trkpt>
      <trkpt lat="44.75002" lon="5.49466">
        <ele>908.37</ele>
        <time>2019-06-01T08:20:30.999Z</time>
      </trkpt>
      <trkpt lat="44.74994" lon="5.49473">
        <ele>905.97</ele>
        <time>2019-06-01T08:20:41.999Z</time>
      </trkpt>
      <trkpt lat="44.74988" lon="5.49484">
        <ele>904.46</ele>
        <time>2019-06-01T08:20:48.999Z</time>
      </trkpt>
      <trkpt lat="44.74982" lon="5.49495">
        <ele>902.99</ele>
        <time>2019-06-01T08:20:57.999Z</time>
      </trkpt>
      <trkpt lat="44.74972" lon="5.495">
        <ele>902.08</ele>
        <time>2019-06-01T08:21:06.999Z</time>
      </trkpt>
      <trkpt lat="44.74967" lon="5.49511">
        <ele>900.3</ele>
        <time>2019-06-01T08:21:15.999Z</time>
      </trkpt>
      <trkpt lat="44.74958" lon="5.49515">
        <ele>890.06</ele>
        <time>2019-06-01T08:22:55.000Z</time>
      </trkpt>
      <trkpt lat="44.7495" lon="5.49522">
        <ele>888.98</ele>
        <time>2019-06-01T08:23:02.000Z</time>
      </trkpt>
      <trkpt lat="44.74942" lon="5.4953">
        <ele>887.71</ele>
        <time>2019-06-01T08:23:10.000Z</time>
      </trkpt>
      <trkpt lat="44.74934" lon="5.49538">
        <ele>885.9</ele>
        <time>2019-06-01T08:23:21.000Z</time>
      </trkpt>
      <trkpt lat="44.74925" lon="5.49538">
        <ele>883.49</ele>
        <time>2019-06-01T08:23:32.000Z</time>
      </trkpt>
      <trkpt lat="44.74922" lon="5.4955">
        <ele>879.41</ele>
        <time>2019-06-01T08:23:46.000Z</time>
      </trkpt>
      <trkpt lat="44.74925" lon="5.49563">
        <ele>876.61</ele>
        <time>2019-06-01T08:23:56.000Z</time>
      </trkpt>
      <trkpt lat="44.74926" lon="5.49577">
        <ele>874.17</ele>
        <time>2019-06-01T08:24:06.000Z</time>
      </trkpt>
      <trkpt lat="44.74922" lon="5.49589">
        <ele>872.22</ele>
        <time>2019-06-01T08:24:14.000Z</time>
      </trkpt>
      <trkpt lat="44.74919" lon="5.49601">
        <ele>870.53</ele>
        <time>2019-06-01T08:24:22.000Z</time>
      </trkpt>
      <trkpt lat="44.74914" lon="5.49613">
        <ele>869.56</ele>
        <time>2019-06-01T08:24:27.000Z</time>
      </trkpt>
      <trkpt lat="44.74909" lon="5.49626">
        <ele>868.81</ele>
        <time>2019-06-01T08:24:34.000Z</time>
      </trkpt>
      <trkpt lat="44.74909" lon="5.4964">
        <ele>868.34</ele>
        <time>2019-06-01T08:24:48.000Z</time>
      </trkpt>
      <trkpt lat="44.74905" lon="5.49652">
        <ele>867.18</ele>
        <time>2019-06-01T08:24:58.000Z</time>
      </trkpt>
      <trkpt lat="44.74899" lon="5.49661">
        <ele>865.81</ele>
        <time>2019-06-01T08:25:07.000Z</time>
      </trkpt>
      <trkpt lat="44.74891" lon="5.4967">
        <ele>864.07</ele>
        <time>2019-06-01T08:25:17.000Z</time>
      </trkpt>
      <trkpt lat="44.74883" lon="5.49678">
        <ele>862.49</ele>
        <time>2019-06-01T08:25:25.000Z</time>
      </trkpt>
      <trkpt lat="44.74875" lon="5.49684">
        <ele>861.42</ele>
        <time>2019-06-01T08:25:31.000Z</time>
      </trkpt>
      <trkpt lat="44.74866" lon="5.49688">
        <ele>860.88</ele>
        <time>2019-06-01T08:25:38.000Z</time>
      </trkpt>
      <trkpt lat="44.74856" lon="5.49688">
        <ele>852.76</ele>
        <time>2019-06-01T08:27:24.000Z</time>
      </trkpt>
      <trkpt lat="44.74847" lon="5.49695">
        <ele>852.82</ele>
        <time>2019-06-01T08:27:36.000Z</time>
      </trkpt>
      <trkpt lat="44.74841" lon="5.49705">
        <ele>852.23</ele>
        <time>2019-06-01T08:27:45.000Z</time>
      </trkpt>
      <trkpt lat="44.74836" lon="5.49715">
        <ele>851.61</ele>
        <time>2019-06-01T08:27:52.000Z</time>
      </trkpt>
      <trkpt lat="44.74831" lon="5.49727">
        <ele>851.27</ele>
        <time>2019-06-01T08:27:57.000Z</time>
      </trkpt>
      <trkpt lat="44.74826" lon="5.49739">
        <ele>850.33</ele>
        <time>2019-06-01T08:28:04.000Z</time>
      </trkpt>
      <trkpt lat="44.74823" lon="5.49751">
        <ele>848.52</ele>
        <time>2019-06-01T08:28:13.000Z</time>
      </trkpt>
      <trkpt lat="44.74817" lon="5.4976">
        <ele>846.61</ele>
        <time>2019-06-01T08:28:22.000Z</time>
      </trkpt>
      <trkpt lat="44.7481" lon="5.49751">
        <ele>845.22</ele>
        <time>2019-06-01T08:28:31.000Z</time>
      </trkpt>
      <trkpt lat="44.74808" lon="5.49739">
        <ele>842.21</ele>
        <time>2019-06-01T08:28:39.000Z</time>
      </trkpt>
      <trkpt lat="44.74812" lon="5.49726">
        <ele>838.15</ele>
        <time>2019-06-01T08:28:49.000Z</time>
      </trkpt>
      <trkpt lat="44.74814" lon="5.49713">
        <ele>835.11</ele>
        <time>2019-06-01T08:29:00.000Z</time>
      </trkpt>
      <trkpt lat="44.74812" lon="5.49701">
        <ele>832.11</ele>
        <time>2019-06-01T08:29:12.000Z</time>
      </trkpt>
      <trkpt lat="44.74804" lon="5.49695">
        <ele>828.84</ele>
        <time>2019-06-01T08:30:04.000Z</time>
      </trkpt>
      <trkpt lat="44.74813" lon="5.49698">
        <ele>827.87</ele>
        <time>2019-06-01T08:30:32.000Z</time>
      </trkpt>
      <trkpt lat="44.74806" lon="5.49688">
        <ele>597.08</ele>
        <time>2019-06-01T08:31:32.000Z</time>
      </trkpt>
      <trkpt lat="44.74813" lon="5.49699">
        <ele>650.68</ele>
        <time>2019-06-01T08:31:38.000Z</time>
      </trkpt>
      <trkpt lat="44.74797" lon="5.49693">
        <ele>861.27</ele>
        <time>2019-06-01T08:38:53.000Z</time>
      </trkpt>
      <trkpt lat="44.74806" lon="5.49695">
        <ele>858.08</ele>
        <time>2019-06-01T08:39:20.000Z</time>
      </trkpt>
      <trkpt lat="44.74816" lon="5.49695">
        <ele>847.33</ele>
        <time>2019-06-01T08:39:54.000Z</time>
      </trkpt>
      <trkpt lat="44.74813" lon="5.49709">
        <ele>821.67</ele>
        <time>2019-06-01T08:45:08.000Z</time>
      </trkpt>
      <trkpt lat="44.74813" lon="5.49722">
        <ele>821.31</ele>
        <time>2019-06-01T08:45:20.000Z</time>
      </trkpt>
      <trkpt lat="44.74812" lon="5.49737">
        <ele>820.67</ele>
        <time>2019-06-01T08:45:29.000Z</time>
      </trkpt>
      <trkpt lat="44.74812" lon="5.49751">
        <ele>820.51</ele>
        <time>2019-06-01T08:45:35.000Z</time>
      </trkpt>
      <trkpt lat="44.74807" lon="5.49762">
        <ele>821.39</ele>
        <time>2019-06-01T08:45:44.000Z</time>
      </trkpt>
      <trkpt lat="44.74799" lon="5.49774">
        <ele>822.26</ele>
        <time>2019-06-01T08:45:49.000Z</time>
      </trkpt>
      <trkpt lat="44.74793" lon="5.49783">
        <ele>823.02</ele>
        <time>2019-06-01T08:45:54.000Z</time>
      </trkpt>
      <trkpt lat="44.74786" lon="5.49792">
        <ele>823.5</ele>
        <time>2019-06-01T08:45:59.000Z</time>
      </trkpt>
      <trkpt lat="44.74778" lon="5.49801">
        <ele>823.85</ele>
        <time>2019-06-01T08:46:05.000Z</time>
      </trkpt>
      <trkpt lat="44.74772" lon="5.49811">
        <ele>823.28</ele>
        <time>2019-06-01T08:46:27.000Z</time>
      </trkpt>
      <trkpt lat="44.74766" lon="5.49823">
        <ele>821.72</ele>
        <time>2019-06-01T08:46:35.000Z</time>
      </trkpt>
      <trkpt lat="44.74762" lon="5.49836">
        <ele>820.46</ele>
        <time>2019-06-01T08:46:45.000Z</time>
      </trkpt>
      <trkpt lat="44.74765" lon="5.49849">
        <ele>818.38</ele>
        <time>2019-06-01T08:46:57.000Z</time>
      </trkpt>
      <trkpt lat="44.74761" lon="5.49864">
        <ele>816.62</ele>
        <time>2019-06-01T08:47:03.000Z</time>
      </trkpt>
      <trkpt lat="44.74762" lon="5.49879">
        <ele>815</ele>
        <time>2019-06-01T08:47:08.000Z</time>
      </trkpt>
      <trkpt lat="44.74768" lon="5.4989">
        <ele>814.87</ele>
        <time>2019-06-01T08:48:17.999Z</time>
      </trkpt>
      <trkpt lat="44.74761" lon="5.499">
        <ele>814.92</ele>
        <time>2019-06-01T08:48:23.999Z</time>
      </trkpt>
      <trkpt lat="44.74758" lon="5.49912">
        <ele>814.89</ele>
        <time>2019-06-01T08:48:28.999Z</time>
      </trkpt>
      <trkpt lat="44.74758" lon="5.49925">
        <ele>814.92</ele>
        <time>2019-06-01T08:48:33.999Z</time>
      </trkpt>
      <trkpt lat="44.74758" lon="5.49938">
        <ele>814.79</ele>
        <time>2019-06-01T08:48:40.999Z</time>
      </trkpt>
      <trkpt lat="44.74758" lon="5.49954">
        <ele>814.26</ele>
        <time>2019-06-01T08:48:45.999Z</time>
      </trkpt>
      <trkpt lat="44.74757" lon="5.49968">
        <ele>813.62</ele>
        <time>2019-06-01T08:48:51.999Z</time>
      </trkpt>
      <trkpt lat="44.74757" lon="5.49982">
        <ele>813.02</ele>
        <time>2019-06-01T08:48:58.999Z</time>
      </trkpt>
      <trkpt lat="44.74758" lon="5.49996">
        <ele>812.48</ele>
        <time>2019-06-01T08:49:05.999Z</time>
      </trkpt>
      <trkpt lat="44.74759" lon="5.5001">
        <ele>812.07</ele>
        <time>2019-06-01T08:49:12.999Z</time>
      </trkpt>
      <trkpt lat="44.7476" lon="5.50022">
        <ele>811.64</ele>
        <time>2019-06-01T08:49:19.999Z</time>
      </trkpt>
      <trkpt lat="44.74756" lon="5.50034">
        <ele>809.69</ele>
        <time>2019-06-01T08:49:27.999Z</time>
      </trkpt>
      <trkpt lat="44.74752" lon="5.50047">
        <ele>808.08</ele>
        <time>2019-06-01T08:49:34.999Z</time>
      </trkpt>
      <trkpt lat="44.74754" lon="5.5006">
        <ele>805.56</ele>
        <time>2019-06-01T08:49:48.999Z</time>
      </trkpt>
      <trkpt lat="44.74749" lon="5.50071">
        <ele>802.64</ele>
        <time>2019-06-01T08:50:05.999Z</time>
      </trkpt>
      <trkpt lat="44.74741" lon="5.5008">
        <ele>800.89</ele>
        <time>2019-06-01T08:50:52.999Z</time>
      </trkpt>
      <trkpt lat="44.74737" lon="5.50092">
        <ele>800.9</ele>
        <time>2019-06-01T08:50:57.999Z</time>
      </trkpt>
      <trkpt lat="44.74735" lon="5.50107">
        <ele>801.01</ele>
        <time>2019-06-01T08:51:02.999Z</time>
      </trkpt>
      <trkpt lat="44.74734" lon="5.50121">
        <ele>801.27</ele>
        <time>2019-06-01T08:51:11.999Z</time>
      </trkpt>
      <trkpt lat="44.74738" lon="5.50133">
        <ele>801.91</ele>
        <time>2019-06-01T08:51:18.999Z</time>
      </trkpt>
      <trkpt lat="44.74737" lon="5.50146">
        <ele>802.73</ele>
        <time>2019-06-01T08:51:26.999Z</time>
      </trkpt>
      <trkpt lat="44.74729" lon="5.50154">
        <ele>803.15</ele>
        <time>2019-06-01T08:51:33.999Z</time>
      </trkpt>
      <trkpt lat="44.74721" lon="5.50162">
        <ele>803.48</ele>
        <time>2019-06-01T08:51:42.999Z</time>
      </trkpt>
      <trkpt lat="44.74719" lon="5.50174">
        <ele>803.38</ele>
        <time>2019-06-01T08:51:50.999Z</time>
      </trkpt>
      <trkpt lat="44.74717" lon="5.50191">
        <ele>803.6</ele>
        <time>2019-06-01T08:51:55.999Z</time>
      </trkpt>
      <trkpt lat="44.74715" lon="5.50204">
        <ele>803.4</ele>
        <time>2019-06-01T08:52:01.999Z</time>
      </trkpt>
      <trkpt lat="44.74713" lon="5.50218">
        <ele>803.21</ele>
        <time>2019-06-01T08:52:08.999Z</time>
      </trkpt>
      <trkpt lat="44.7471" lon="5.50232">
        <ele>808.8</ele>
        <time>2019-06-01T08:53:28.999Z</time>
      </trkpt>
      <trkpt lat="44.74706" lon="5.50245">
        <ele>808.38</ele>
        <time>2019-06-01T08:53:34.999Z</time>
      </trkpt>
      <trkpt lat="44.74702" lon="5.50258">
        <ele>806.9</ele>
        <time>2019-06-01T08:53:41.999Z</time>
      </trkpt>
      <trkpt lat="44.747" lon="5.50273">
        <ele>803.4</ele>
        <time>2019-06-01T08:53:49.999Z</time>
      </trkpt>
      <trkpt lat="44.74697" lon="5.50289">
        <ele>800.33</ele>
        <time>2019-06-01T08:53:54.999Z</time>
      </trkpt>
      <trkpt lat="44.74695" lon="5.50302">
        <ele>795.55</ele>
        <time>2019-06-01T08:54:01.999Z</time>
      </trkpt>
      <trkpt lat="44.74691" lon="5.50314">
        <ele>789.16</ele>
        <time>2019-06-01T08:54:10.999Z</time>
      </trkpt>
      <trkpt lat="44.74685" lon="5.50324">
        <ele>785.12</ele>
        <time>2019-06-01T08:54:17.999Z</time>
      </trkpt>
      <trkpt lat="44.74678" lon="5.50332">
        <ele>782.73</ele>
        <time>2019-06-01T08:54:22.999Z</time>
      </trkpt>
      <trkpt lat="44.74669" lon="5.50335">
        <ele>782.66</ele>
        <time>2019-06-01T08:55:43.999Z</time>
      </trkpt>
      <trkpt lat="44.74666" lon="5.50348">
        <ele>781.26</ele>
        <time>2019-06-01T08:55:53.999Z</time>
      </trkpt>
      <trkpt lat="44.74661" lon="5.5036">
        <ele>778.65</ele>
        <time>2019-06-01T08:56:01.999Z</time>
      </trkpt>
      <trkpt lat="44.74658" lon="5.50373">
        <ele>777.25</ele>
        <time>2019-06-01T08:56:06.999Z</time>
      </trkpt>
      <trkpt lat="44.74656" lon="5.50387">
        <ele>775.59</ele>
        <time>2019-06-01T08:56:11.999Z</time>
      </trkpt>
      <trkpt lat="44.74654" lon="5.504">
        <ele>773.33</ele>
        <time>2019-06-01T08:56:16.999Z</time>
      </trkpt>
      <trkpt lat="44.74651" lon="5.50412">
        <ele>770.48</ele>
        <time>2019-06-01T08:56:23.999Z</time>
      </trkpt>
      <trkpt lat="44.74646" lon="5.50424">
        <ele>768.85</ele>
        <time>2019-06-01T08:56:28.999Z</time>
      </trkpt>
      <trkpt lat="44.74638" lon="5.50431">
        <ele>766.09</ele>
        <time>2019-06-01T08:56:36.999Z</time>
      </trkpt>
      <trkpt lat="44.7463" lon="5.50436">
        <ele>757.45</ele>
        <time>2019-06-01T08:56:48.999Z</time>
      </trkpt>
      <trkpt lat="44.74621" lon="5.50426">
        <ele>750.61</ele>
        <time>2019-06-01T08:58:19.999Z</time>
      </trkpt>
      <trkpt lat="44.74625" lon="5.50437">
        <ele>754.45</ele>
        <time>2019-06-01T08:59:06.999Z</time>
      </trkpt>
      <trkpt lat="44.7462" lon="5.50426">
        <ele>754.29</ele>
        <time>2019-06-01T08:59:23.999Z</time>
      </trkpt>
      <trkpt lat="44.74614" lon="5.50416">
        <ele>752.24</ele>
        <time>2019-06-01T08:59:33.999Z</time>
      </trkpt>
      <trkpt lat="44.74605" lon="5.50411">
        <ele>751.19</ele>
        <time>2019-06-01T08:59:40.999Z</time>
      </trkpt>
      <trkpt lat="44.74596" lon="5.50405">
        <ele>750.51</ele>
        <time>2019-06-01T08:59:47.999Z</time>
      </trkpt>
      <trkpt lat="44.74589" lon="5.50414">
        <ele>749.59</ele>
        <time>2019-06-01T08:59:58.999Z</time>
      </trkpt>
      <trkpt lat="44.74582" lon="5.50406">
        <ele>753.19</ele>
        <time>2019-06-01T09:00:24.999Z</time>
      </trkpt>
      <trkpt lat="44.74586" lon="5.50394">
        <ele>769.58</ele>
        <time>2019-06-01T09:05:17.999Z</time>
      </trkpt>
      <trkpt lat="44.7459" lon="5.5038">
        <ele>768.36</ele>
        <time>2019-06-01T09:05:27.999Z</time>
      </trkpt>
      <trkpt lat="44.74593" lon="5.50367">
        <ele>767.82</ele>
        <time>2019-06-01T09:05:34.999Z</time>
      </trkpt>
      <trkpt lat="44.74595" lon="5.50354">
        <ele>767.65</ele>
        <time>2019-06-01T09:05:39.999Z</time>
      </trkpt>
      <trkpt lat="44.74599" lon="5.50342">
        <ele>767.38</ele>
        <time>2019-06-01T09:05:45.999Z</time>
      </trkpt>
      <trkpt lat="44.74604" lon="5.50331">
        <ele>767.31</ele>
        <time>2019-06-01T09:05:53.999Z</time>
      </trkpt>
      <trkpt lat="44.74609" lon="5.5032">
        <ele>767.39</ele>
        <time>2019-06-01T09:06:03.999Z</time>
      </trkpt>
      <trkpt lat="44.74604" lon="5.50308">
        <ele>767.82</ele>
        <time>2019-06-01T09:06:13.999Z</time>
      </trkpt>
      <trkpt lat="44.74595" lon="5.5031">
        <ele>769</ele>
        <time>2019-06-01T09:10:13.999Z</time>
      </trkpt>
      <trkpt lat="44.74586" lon="5.50305">
        <ele>767.52</ele>
        <time>2019-06-01T09:10:32.999Z</time>
      </trkpt>
      <trkpt lat="44.74577" lon="5.50303">
        <ele>768.22</ele>
        <time>2019-06-01T09:10:48.999Z</time>
      </trkpt>
      <trkpt lat="44.74567" lon="5.50304">
        <ele>769.03</ele>
        <time>2019-06-01T09:11:03.999Z</time>
      </trkpt>
      <trkpt lat="44.74558" lon="5.50306">
        <ele>769.62</ele>
        <time>2019-06-01T09:11:11.999Z</time>
      </trkpt>
      <trkpt lat="44.74549" lon="5.50303">
        <ele>770.41</ele>
        <time>2019-06-01T09:11:22.999Z</time>
      </trkpt>
      <trkpt lat="44.74552" lon="5.50291">
        <ele>772.48</ele>
        <time>2019-06-01T09:11:41.999Z</time>
      </trkpt>
      <trkpt lat="44.74556" lon="5.5028">
        <ele>775.8</ele>
        <time>2019-06-01T09:11:58.999Z</time>
      </trkpt>
      <trkpt lat="44.74564" lon="5.50272">
        <ele>777.96</ele>
        <time>2019-06-01T09:12:16.999Z</time>
      </trkpt>
      <trkpt lat="44.74566" lon="5.50259">
        <ele>779.84</ele>
        <time>2019-06-01T09:12:30.999Z</time>
      </trkpt>
      <trkpt lat="44.7457" lon="5.50246">
        <ele>781.27</ele>
        <time>2019-06-01T09:12:40.999Z</time>
      </trkpt>
      <trkpt lat="44.74573" lon="5.50234">
        <ele>782.3</ele>
        <time>2019-06-01T09:12:47.999Z</time>
      </trkpt>
      <trkpt lat="44.74575" lon="5.50221">
        <ele>784.44</ele>
        <time>2019-06-01T09:12:57.999Z</time>
      </trkpt>
      <trkpt lat="44.74576" lon="5.50208">
        <ele>786.34</ele>
        <time>2019-06-01T09:13:07.999Z</time>
      </trkpt>
      <trkpt lat="44.74574" lon="5.50195">
        <ele>788.69</ele>
        <time>2019-06-01T09:13:19.999Z</time>
      </trkpt>
      <trkpt lat="44.74573" lon="5.50181">
        <ele>791.32</ele>
        <time>2019-06-01T09:13:30.999Z</time>
      </trkpt>
      <trkpt lat="44.74576" lon="5.50169">
        <ele>793.84</ele>
        <time>2019-06-01T09:13:40.999Z</time>
      </trkpt>
      <trkpt lat="44.74579" lon="5.50156">
        <ele>796.15</ele>
        <time>2019-06-01T09:13:51.999Z</time>
      </trkpt>
      <trkpt lat="44.7458" lon="5.50143">
        <ele>798.17</ele>
        <time>2019-06-01T09:14:02.999Z</time>
      </trkpt>
      <trkpt lat="44.74579" lon="5.5013">
        <ele>799.56</ele>
        <time>2019-06-01T09:14:12.999Z</time>
      </trkpt>
      <trkpt lat="44.74582" lon="5.50118">
        <ele>800.74</ele>
        <time>2019-06-01T09:14:21.999Z</time>
      </trkpt>
      <trkpt lat="44.74586" lon="5.50105">
        <ele>802.77</ele>
        <time>2019-06-01T09:14:33.999Z</time>
      </trkpt>
      <trkpt lat="44.74586" lon="5.50092">
        <ele>804.91</ele>
        <time>2019-06-01T09:14:45.000Z</time>
      </trkpt>
      <trkpt lat="44.74585" lon="5.50079">
        <ele>806.67</ele>
        <time>2019-06-01T09:14:56.000Z</time>
      </trkpt>
      <trkpt lat="44.74585" lon="5.50066">
        <ele>808.33</ele>
        <time>2019-06-01T09:15:09.000Z</time>
      </trkpt>
      <trkpt lat="44.74586" lon="5.50053">
        <ele>809.92</ele>
        <time>2019-06-01T09:15:19.000Z</time>
      </trkpt>
      <trkpt lat="44.74587" lon="5.5004">
        <ele>811.55</ele>
        <time>2019-06-01T09:15:29.000Z</time>
      </trkpt>
      <trkpt lat="44.74587" lon="5.50027">
        <ele>812.73</ele>
        <time>2019-06-01T09:15:39.000Z</time>
      </trkpt>
      <trkpt lat="44.74586" lon="5.50014">
        <ele>813.73</ele>
        <time>2019-06-01T09:15:52.000Z</time>
      </trkpt>
      <trkpt lat="44.74586" lon="5.5">
        <ele>815.14</ele>
        <time>2019-06-01T09:16:04.000Z</time>
      </trkpt>
      <trkpt lat="44.74588" lon="5.49987">
        <ele>817.23</ele>
        <time>2019-06-01T09:16:17.000Z</time>
      </trkpt>
      <trkpt lat="44.7459" lon="5.49975">
        <ele>818.78</ele>
        <time>2019-06-01T09:16:26.000Z</time>
      </trkpt>
      <trkpt lat="44.74594" lon="5.49963">
        <ele>820.19</ele>
        <time>2019-06-01T09:16:36.000Z</time>
      </trkpt>
      <trkpt lat="44.74599" lon="5.49952">
        <ele>821.99</ele>
        <time>2019-06-01T09:16:48.000Z</time>
      </trkpt>
      <trkpt lat="44.74602" lon="5.49939">
        <ele>823.6</ele>
        <time>2019-06-01T09:16:58.000Z</time>
      </trkpt>
      <trkpt lat="44.74604" lon="5.49926">
        <ele>825.25</ele>
        <time>2019-06-01T09:17:08.000Z</time>
      </trkpt>
      <trkpt lat="44.74606" lon="5.49914">
        <ele>826.88</ele>
        <time>2019-06-01T09:17:19.000Z</time>
      </trkpt>
      <trkpt lat="44.74604" lon="5.499">
        <ele>828.83</ele>
        <time>2019-06-01T09:17:32.000Z</time>
      </trkpt>
      <trkpt lat="44.74602" lon="5.49888">
        <ele>830.39</ele>
        <time>2019-06-01T09:17:41.000Z</time>
      </trkpt>
      <trkpt lat="44.74602" lon="5.49875">
        <ele>831.89</ele>
        <time>2019-06-01T09:17:51.000Z</time>
      </trkpt>
      <trkpt lat="44.74602" lon="5.49862">
        <ele>833.45</ele>
        <time>2019-06-01T09:18:01.000Z</time>
      </trkpt>
      <trkpt lat="44.74604" lon="5.49849">
        <ele>835.14</ele>
        <time>2019-06-01T09:18:12.000Z</time>
      </trkpt>
      <trkpt lat="44.7461" lon="5.49838">
        <ele>836.47</ele>
        <time>2019-06-01T09:18:23.000Z</time>
      </trkpt>
      <trkpt lat="44.74617" lon="5.49829">
        <ele>836.69</ele>
        <time>2019-06-01T09:18:34.000Z</time>
      </trkpt>
      <trkpt lat="44.74622" lon="5.49819">
        <ele>836</ele>
        <time>2019-06-01T09:18:42.000Z</time>
      </trkpt>
      <trkpt lat="44.74629" lon="5.49811">
        <ele>837.02</ele>
        <time>2019-06-01T09:18:58.000Z</time>
      </trkpt>
      <trkpt lat="44.74636" lon="5.49802">
        <ele>838.05</ele>
        <time>2019-06-01T09:19:13.000Z</time>
      </trkpt>
      <trkpt lat="44.7464" lon="5.4979">
        <ele>838.77</ele>
        <time>2019-06-01T09:19:23.000Z</time>
      </trkpt>
      <trkpt lat="44.74641" lon="5.49777">
        <ele>840.3</ele>
        <time>2019-06-01T09:19:34.000Z</time>
      </trkpt>
      <trkpt lat="44.74643" lon="5.49765">
        <ele>842.48</ele>
        <time>2019-06-01T09:19:47.000Z</time>
      </trkpt>
      <trkpt lat="44.74644" lon="5.49752">
        <ele>845.58</ele>
        <time>2019-06-01T09:20:00.000Z</time>
      </trkpt>
      <trkpt lat="44.74648" lon="5.4974">
        <ele>848.29</ele>
        <time>2019-06-01T09:20:14.000Z</time>
      </trkpt>
      <trkpt lat="44.74654" lon="5.49729">
        <ele>850.56</ele>
        <time>2019-06-01T09:20:25.000Z</time>
      </trkpt>
      <trkpt lat="44.74655" lon="5.49716">
        <ele>853.4</ele>
        <time>2019-06-01T09:20:36.000Z</time>
      </trkpt>
      <trkpt lat="44.74652" lon="5.49704">
        <ele>855.62</ele>
        <time>2019-06-01T09:20:47.000Z</time>
      </trkpt>
      <trkpt lat="44.74651" lon="5.49691">
        <ele>857.86</ele>
        <time>2019-06-01T09:20:59.000Z</time>
      </trkpt>
      <trkpt lat="44.74655" lon="5.49679">
        <ele>860.41</ele>
        <time>2019-06-01T09:21:10.000Z</time>
      </trkpt>
      <trkpt lat="44.74661" lon="5.49669">
        <ele>862.24</ele>
        <time>2019-06-01T09:21:18.000Z</time>
      </trkpt>
      <trkpt lat="44.74665" lon="5.49657">
        <ele>864.62</ele>
        <time>2019-06-01T09:21:28.000Z</time>
      </trkpt>
      <trkpt lat="44.74666" lon="5.49644">
        <ele>866.93</ele>
        <time>2019-06-01T09:21:41.000Z</time>
      </trkpt>
      <trkpt lat="44.74669" lon="5.49632">
        <ele>871.66</ele>
        <time>2019-06-01T09:22:00.000Z</time>
      </trkpt>
      <trkpt lat="44.74671" lon="5.4962">
        <ele>874.85</ele>
        <time>2019-06-01T09:22:14.000Z</time>
      </trkpt>
      <trkpt lat="44.74676" lon="5.49607">
        <ele>877.22</ele>
        <time>2019-06-01T09:22:25.000Z</time>
      </trkpt>
      <trkpt lat="44.74677" lon="5.49594">
        <ele>879.45</ele>
        <time>2019-06-01T09:22:39.000Z</time>
      </trkpt>
      <trkpt lat="44.74679" lon="5.49581">
        <ele>880.86</ele>
        <time>2019-06-01T09:22:54.000Z</time>
      </trkpt>
      <trkpt lat="44.74688" lon="5.49576">
        <ele>885.07</ele>
        <time>2019-06-01T09:23:41.000Z</time>
      </trkpt>
      <trkpt lat="44.74685" lon="5.49564">
        <ele>887.74</ele>
        <time>2019-06-01T09:24:15.000Z</time>
      </trkpt>
      <trkpt lat="44.7469" lon="5.49553">
        <ele>888.4</ele>
        <time>2019-06-01T09:24:27.000Z</time>
      </trkpt>
      <trkpt lat="44.74698" lon="5.49546">
        <ele>888.66</ele>
        <time>2019-06-01T09:24:40.000Z</time>
      </trkpt>
      <trkpt lat="44.74706" lon="5.49551">
        <ele>889.36</ele>
        <time>2019-06-01T09:24:51.000Z</time>
      </trkpt>
      <trkpt lat="44.74713" lon="5.4956">
        <ele>892.07</ele>
        <time>2019-06-01T09:25:01.000Z</time>
      </trkpt>
      <trkpt lat="44.74714" lon="5.49547">
        <ele>891.75</ele>
        <time>2019-06-01T09:25:27.000Z</time>
      </trkpt>
      <trkpt lat="44.7471" lon="5.49535">
        <ele>890.4</ele>
        <time>2019-06-01T09:25:36.000Z</time>
      </trkpt>
      <trkpt lat="44.74701" lon="5.49528">
        <ele>887.67</ele>
        <time>2019-06-01T09:25:46.000Z</time>
      </trkpt>
      <trkpt lat="44.74699" lon="5.49516">
        <ele>885.03</ele>
        <time>2019-06-01T09:25:56.000Z</time>
      </trkpt>
      <trkpt lat="44.74689" lon="5.49518">
        <ele>880.46</ele>
        <time>2019-06-01T09:26:14.000Z</time>
      </trkpt>
      <trkpt lat="44.7468" lon="5.49518">
        <ele>878.34</ele>
        <time>2019-06-01T09:26:30.000Z</time>
      </trkpt>
      <trkpt lat="44.74672" lon="5.49525">
        <ele>880.47</ele>
        <time>2019-06-01T09:26:41.000Z</time>
      </trkpt>
      <trkpt lat="44.74665" lon="5.49534">
        <ele>882.45</ele>
        <time>2019-06-01T09:26:49.000Z</time>
      </trkpt>
      <trkpt lat="44.74658" lon="5.49543">
        <ele>883.34</ele>
        <time>2019-06-01T09:26:58.000Z</time>
      </trkpt>
      <trkpt lat="44.74649" lon="5.4955">
        <ele>884.33</ele>
        <time>2019-06-01T09:27:07.000Z</time>
      </trkpt>
      <trkpt lat="44.74644" lon="5.49562">
        <ele>885.73</ele>
        <time>2019-06-01T09:27:14.000Z</time>
      </trkpt>
      <trkpt lat="44.74635" lon="5.49569">
        <ele>890.79</ele>
        <time>2019-06-01T09:27:30.000Z</time>
      </trkpt>
      <trkpt lat="44.74627" lon="5.49575">
        <ele>893.51</ele>
        <time>2019-06-01T09:27:43.000Z</time>
      </trkpt>
      <trkpt lat="44.74618" lon="5.49582">
        <ele>894.53</ele>
        <time>2019-06-01T09:27:51.000Z</time>
      </trkpt>
      <trkpt lat="44.74611" lon="5.49593">
        <ele>896.67</ele>
        <time>2019-06-01T09:28:04.000Z</time>
      </trkpt>
      <trkpt lat="44.74607" lon="5.49605">
        <ele>898.92</ele>
        <time>2019-06-01T09:28:14.000Z</time>
      </trkpt>
      <trkpt lat="44.746" lon="5.49615">
        <ele>900.75</ele>
        <time>2019-06-01T09:28:23.000Z</time>
      </trkpt>
      <trkpt lat="44.74594" lon="5.49624">
        <ele>903.33</ele>
        <time>2019-06-01T09:28:33.000Z</time>
      </trkpt>
      <trkpt lat="44.74586" lon="5.49633">
        <ele>907.35</ele>
        <time>2019-06-01T09:28:48.000Z</time>
      </trkpt>
      <trkpt lat="44.74579" lon="5.49641">
        <ele>909.33</ele>
        <time>2019-06-01T09:28:56.000Z</time>
      </trkpt>
      <trkpt lat="44.74572" lon="5.4965">
        <ele>911.13</ele>
        <time>2019-06-01T09:29:10.000Z</time>
      </trkpt>
      <trkpt lat="44.74564" lon="5.49656">
        <ele>920.44</ele>
        <time>2019-06-01T09:29:58.000Z</time>
      </trkpt>
      <trkpt lat="44.74556" lon="5.49662">
        <ele>921.81</ele>
        <time>2019-06-01T09:30:06.000Z</time>
      </trkpt>
      <trkpt lat="44.74546" lon="5.49665">
        <ele>923.91</ele>
        <time>2019-06-01T09:30:21.000Z</time>
      </trkpt>
      <trkpt lat="44.74538" lon="5.49669">
        <ele>925.47</ele>
        <time>2019-06-01T09:30:34.000Z</time>
      </trkpt>
      <trkpt lat="44.74529" lon="5.49674">
        <ele>928.02</ele>
        <time>2019-06-01T09:30:45.000Z</time>
      </trkpt>
      <trkpt lat="44.7452" lon="5.49678">
        <ele>930.55</ele>
        <time>2019-06-01T09:30:54.000Z</time>
      </trkpt>
      <trkpt lat="44.74511" lon="5.49681">
        <ele>933.23</ele>
        <time>2019-06-01T09:31:11.000Z</time>
      </trkpt>
      <trkpt lat="44.74503" lon="5.4969">
        <ele>932.98</ele>
        <time>2019-06-01T09:31:21.000Z</time>
      </trkpt>
      <trkpt lat="44.74495" lon="5.49698">
        <ele>932.89</ele>
        <time>2019-06-01T09:31:30.000Z</time>
      </trkpt>
      <trkpt lat="44.74487" lon="5.49706">
        <ele>932.31</ele>
        <time>2019-06-01T09:31:39.000Z</time>
      </trkpt>
      <trkpt lat="44.74478" lon="5.49709">
        <ele>930.78</ele>
        <time>2019-06-01T09:32:00.000Z</time>
      </trkpt>
      <trkpt lat="44.7447" lon="5.49717">
        <ele>932.09</ele>
        <time>2019-06-01T09:32:12.000Z</time>
      </trkpt>
      <trkpt lat="44.74466" lon="5.49729">
        <ele>934.98</ele>
        <time>2019-06-01T09:32:24.000Z</time>
      </trkpt>
      <trkpt lat="44.74461" lon="5.49739">
        <ele>937.16</ele>
        <time>2019-06-01T09:32:32.000Z</time>
      </trkpt>
      <trkpt lat="44.74454" lon="5.4975">
        <ele>940.89</ele>
        <time>2019-06-01T09:32:43.000Z</time>
      </trkpt>
      <trkpt lat="44.74447" lon="5.49757">
        <ele>944.12</ele>
        <time>2019-06-01T09:33:00.000Z</time>
      </trkpt>
      <trkpt lat="44.74439" lon="5.49766">
        <ele>946.31</ele>
        <time>2019-06-01T09:33:16.000Z</time>
      </trkpt>
      <trkpt lat="44.74432" lon="5.49775">
        <ele>947.55</ele>
        <time>2019-06-01T09:33:24.000Z</time>
      </trkpt>
      <trkpt lat="44.74425" lon="5.49784">
        <ele>948.92</ele>
        <time>2019-06-01T09:33:35.000Z</time>
      </trkpt>
      <trkpt lat="44.74417" lon="5.49793">
        <ele>949.8</ele>
        <time>2019-06-01T09:33:44.000Z</time>
      </trkpt>
      <trkpt lat="44.74409" lon="5.49799">
        <ele>950.92</ele>
        <time>2019-06-01T09:34:07.000Z</time>
      </trkpt>
      <trkpt lat="44.74401" lon="5.49806">
        <ele>950.82</ele>
        <time>2019-06-01T09:34:17.000Z</time>
      </trkpt>
      <trkpt lat="44.74391" lon="5.49807">
        <ele>949.98</ele>
        <time>2019-06-01T09:34:25.000Z</time>
      </trkpt>
      <trkpt lat="44.74382" lon="5.49806">
        <ele>949.29</ele>
        <time>2019-06-01T09:34:33.000Z</time>
      </trkpt>
      <trkpt lat="44.74373" lon="5.49804">
        <ele>947.8</ele>
        <time>2019-06-01T09:34:42.000Z</time>
      </trkpt>
      <trkpt lat="44.74364" lon="5.49798">
        <ele>946.28</ele>
        <time>2019-06-01T09:34:54.000Z</time>
      </trkpt>
      <trkpt lat="44.74353" lon="5.49797">
        <ele>946.15</ele>
        <time>2019-06-01T09:35:05.000Z</time>
      </trkpt>
      <trkpt lat="44.74345" lon="5.49791">
        <ele>947.04</ele>
        <time>2019-06-01T09:35:20.000Z</time>
      </trkpt>
      <trkpt lat="44.74335" lon="5.49797">
        <ele>949.95</ele>
        <time>2019-06-01T09:35:33.000Z</time>
      </trkpt>
      <trkpt lat="44.7433" lon="5.49812">
        <ele>953.04</ele>
        <time>2019-06-01T09:35:39.000Z</time>
      </trkpt>
      <trkpt lat="44.74325" lon="5.49823">
        <ele>956.81</ele>
        <time>2019-06-01T09:35:44.000Z</time>
      </trkpt>
      <trkpt lat="44.74324" lon="5.49836">
        <ele>963.58</ele>
        <time>2019-06-01T09:35:52.000Z</time>
      </trkpt>
      <trkpt lat="44.74323" lon="5.49849">
        <ele>971.23</ele>
        <time>2019-06-01T09:36:07.000Z</time>
      </trkpt>
      <trkpt lat="44.74322" lon="5.49861">
        <ele>973.69</ele>
        <time>2019-06-01T09:36:14.000Z</time>
      </trkpt>
      <trkpt lat="44.74322" lon="5.49875">
        <ele>980.33</ele>
        <time>2019-06-01T09:36:33.000Z</time>
      </trkpt>
      <trkpt lat="44.74317" lon="5.49887">
        <ele>982.26</ele>
        <time>2019-06-01T09:36:40.000Z</time>
      </trkpt>
      <trkpt lat="44.74315" lon="5.49899">
        <ele>985.2</ele>
        <time>2019-06-01T09:36:55.000Z</time>
      </trkpt>
      <trkpt lat="44.74312" lon="5.49911">
        <ele>988</ele>
        <time>2019-06-01T09:37:08.000Z</time>
      </trkpt>
      <trkpt lat="44.74305" lon="5.49921">
        <ele>990.68</ele>
        <time>2019-06-01T09:37:17.000Z</time>
      </trkpt>
      <trkpt lat="44.743" lon="5.49931">
        <ele>993.47</ele>
        <time>2019-06-01T09:37:27.000Z</time>
      </trkpt>
      <trkpt lat="44.74293" lon="5.49943">
        <ele>995.13</ele>
        <time>2019-06-01T09:37:36.000Z</time>
      </trkpt>
      <trkpt lat="44.74284" lon="5.4995">
        <ele>996.16</ele>
        <time>2019-06-01T09:37:41.000Z</time>
      </trkpt>
      <trkpt lat="44.74275" lon="5.49957">
        <ele>996.1</ele>
        <time>2019-06-01T09:37:50.000Z</time>
      </trkpt>
      <trkpt lat="44.74266" lon="5.49957">
        <ele>995.7</ele>
        <time>2019-06-01T09:37:55.000Z</time>
      </trkpt>
      <trkpt lat="44.74257" lon="5.49956">
        <ele>994.58</ele>
        <time>2019-06-01T09:38:02.000Z</time>
      </trkpt>
      <trkpt lat="44.74248" lon="5.49958">
        <ele>992.64</ele>
        <time>2019-06-01T09:38:11.000Z</time>
      </trkpt>
      <trkpt lat="44.74239" lon="5.4996">
        <ele>992.36</ele>
        <time>2019-06-01T09:38:24.000Z</time>
      </trkpt>
      <trkpt lat="44.74229" lon="5.49965">
        <ele>992.54</ele>
        <time>2019-06-01T09:38:34.000Z</time>
      </trkpt>
      <trkpt lat="44.7422" lon="5.49969">
        <ele>992.89</ele>
        <time>2019-06-01T09:38:42.000Z</time>
      </trkpt>
      <trkpt lat="44.74212" lon="5.49975">
        <ele>993.23</ele>
        <time>2019-06-01T09:38:52.000Z</time>
      </trkpt>
      <trkpt lat="44.74204" lon="5.49982">
        <ele>993.73</ele>
        <time>2019-06-01T09:39:01.000Z</time>
      </trkpt>
      <trkpt lat="44.74194" lon="5.49987">
        <ele>994.89</ele>
        <time>2019-06-01T09:39:11.000Z</time>
      </trkpt>
      <trkpt lat="44.74186" lon="5.49992">
        <ele>996.12</ele>
        <time>2019-06-01T09:39:18.000Z</time>
      </trkpt>
      <trkpt lat="44.74177" lon="5.49995">
        <ele>997.43</ele>
        <time>2019-06-01T09:39:27.000Z</time>
      </trkpt>
      <trkpt lat="44.74167" lon="5.49995">
        <ele>999.03</ele>
        <time>2019-06-01T09:39:37.000Z</time>
      </trkpt>
      <trkpt lat="44.74158" lon="5.49995">
        <ele>1001.02</ele>
        <time>2019-06-01T09:39:48.000Z</time>
      </trkpt>
      <trkpt lat="44.74149" lon="5.49991">
        <ele>1003.42</ele>
        <time>2019-06-01T09:40:05.000Z</time>
      </trkpt>
      <trkpt lat="44.7414" lon="5.4999">
        <ele>1004.47</ele>
        <time>2019-06-01T09:40:15.000Z</time>
      </trkpt>
      <trkpt lat="44.74131" lon="5.49985">
        <ele>1005.19</ele>
        <time>2019-06-01T09:40:23.000Z</time>
      </trkpt>
      <trkpt lat="44.74124" lon="5.49977">
        <ele>1005.63</ele>
        <time>2019-06-01T09:40:33.000Z</time>
      </trkpt>
      <trkpt lat="44.74117" lon="5.49968">
        <ele>1004.69</ele>
        <time>2019-06-01T09:40:42.000Z</time>
      </trkpt>
      <trkpt lat="44.74108" lon="5.49965">
        <ele>1004.57</ele>
        <time>2019-06-01T09:40:49.999Z</time>
      </trkpt>
      <trkpt lat="44.741" lon="5.49958">
        <ele>1004.52</ele>
        <time>2019-06-01T09:40:59.999Z</time>
      </trkpt>
      <trkpt lat="44.74089" lon="5.49954">
        <ele>1003.5</ele>
        <time>2019-06-01T09:41:09.999Z</time>
      </trkpt>
      <trkpt lat="44.7408" lon="5.49951">
        <ele>1003.42</ele>
        <time>2019-06-01T09:41:16.999Z</time>
      </trkpt>
      <trkpt lat="44.74071" lon="5.49945">
        <ele>1003.46</ele>
        <time>2019-06-01T09:41:22.999Z</time>
      </trkpt>
      <trkpt lat="44.74062" lon="5.49939">
        <ele>1003.72</ele>
        <time>2019-06-01T09:41:29.999Z</time>
      </trkpt>
      <trkpt lat="44.74053" lon="5.49934">
        <ele>1003.88</ele>
        <time>2019-06-01T09:41:36.999Z</time>
      </trkpt>
      <trkpt lat="44.74045" lon="5.49928">
        <ele>1003.71</ele>
        <time>2019-06-01T09:41:42.999Z</time>
      </trkpt>
      <trkpt lat="44.74035" lon="5.49929">
        <ele>1003.92</ele>
        <time>2019-06-01T09:41:55.999Z</time>
      </trkpt>
      <trkpt lat="44.74025" lon="5.49927">
        <ele>1004.31</ele>
        <time>2019-06-01T09:42:02.999Z</time>
      </trkpt>
      <trkpt lat="44.74017" lon="5.49919">
        <ele>1004.63</ele>
        <time>2019-06-01T09:42:07.999Z</time>
      </trkpt>
      <trkpt lat="44.74011" lon="5.4991">
        <ele>1004.96</ele>
        <time>2019-06-01T09:42:18.999Z</time>
      </trkpt>
      <trkpt lat="44.74002" lon="5.49905">
        <ele>1005.51</ele>
        <time>2019-06-01T09:42:26.999Z</time>
      </trkpt>
      <trkpt lat="44.73994" lon="5.49897">
        <ele>1010.97</ele>
        <time>2019-06-01T09:43:07.999Z</time>
      </trkpt>
      <trkpt lat="44.73989" lon="5.49885">
        <ele>1013.78</ele>
        <time>2019-06-01T09:44:40.999Z</time>
      </trkpt>
      <trkpt lat="44.73982" lon="5.49877">
        <ele>1013.8</ele>
        <time>2019-06-01T09:44:51.999Z</time>
      </trkpt>
      <trkpt lat="44.73976" lon="5.49866">
        <ele>1014.04</ele>
        <time>2019-06-01T09:44:59.999Z</time>
      </trkpt>
      <trkpt lat="44.73967" lon="5.49861">
        <ele>1013.11</ele>
        <time>2019-06-01T09:45:08.999Z</time>
      </trkpt>
      <trkpt lat="44.73961" lon="5.49851">
        <ele>1012.2</ele>
        <time>2019-06-01T09:45:16.999Z</time>
      </trkpt>
      <trkpt lat="44.73953" lon="5.49843">
        <ele>1011.57</ele>
        <time>2019-06-01T09:45:25.999Z</time>
      </trkpt>
      <trkpt lat="44.73946" lon="5.49835">
        <ele>1011.17</ele>
        <time>2019-06-01T09:45:30.999Z</time>
      </trkpt>
      <trkpt lat="44.73937" lon="5.49831">
        <ele>1011.31</ele>
        <time>2019-06-01T09:45:39.999Z</time>
      </trkpt>
      <trkpt lat="44.73928" lon="5.49825">
        <ele>1010.92</ele>
        <time>2019-06-01T09:45:46.999Z</time>
      </trkpt>
      <trkpt lat="44.73921" lon="5.49816">
        <ele>1009.92</ele>
        <time>2019-06-01T09:45:55.999Z</time>
      </trkpt>
      <trkpt lat="44.73916" lon="5.49805">
        <ele>1008.89</ele>
        <time>2019-06-01T09:46:02.999Z</time>
      </trkpt>
      <trkpt lat="44.73909" lon="5.49795">
        <ele>1007.76</ele>
        <time>2019-06-01T09:46:10.999Z</time>
      </trkpt>
      <trkpt lat="44.73899" lon="5.49789">
        <ele>1006.09</ele>
        <time>2019-06-01T09:46:18.999Z</time>
      </trkpt>
      <trkpt lat="44.73889" lon="5.49786">
        <ele>1005.63</ele>
        <time>2019-06-01T09:46:23.999Z</time>
      </trkpt>
      <trkpt lat="44.73881" lon="5.49779">
        <ele>1004.71</ele>
        <time>2019-06-01T09:46:34.999Z</time>
      </trkpt>
      <trkpt lat="44.73872" lon="5.49776">
        <ele>1004.41</ele>
        <time>2019-06-01T09:46:42.999Z</time>
      </trkpt>
      <trkpt lat="44.73864" lon="5.49768">
        <ele>1004.19</ele>
        <time>2019-06-01T09:46:48.999Z</time>
      </trkpt>
      <trkpt lat="44.73859" lon="5.49758">
        <ele>1006.16</ele>
        <time>2019-06-01T09:47:01.999Z</time>
      </trkpt>
      <trkpt lat="44.7385" lon="5.49752">
        <ele>1007.09</ele>
        <time>2019-06-01T09:47:15.999Z</time>
      </trkpt>
      <trkpt lat="44.73837" lon="5.49752">
        <ele>1007.3</ele>
        <time>2019-06-01T09:47:20.999Z</time>
      </trkpt>
      <trkpt lat="44.73827" lon="5.49753">
        <ele>1007.81</ele>
        <time>2019-06-01T09:47:26.999Z</time>
      </trkpt>
      <trkpt lat="44.73817" lon="5.49755">
        <ele>1010.01</ele>
        <time>2019-06-01T09:47:33.999Z</time>
      </trkpt>
      <trkpt lat="44.73807" lon="5.49758">
        <ele>1012.9</ele>
        <time>2019-06-01T09:47:39.999Z</time>
      </trkpt>
      <trkpt lat="44.73799" lon="5.49751">
        <ele>1016.3</ele>
        <time>2019-06-01T09:47:49.999Z</time>
      </trkpt>
      <trkpt lat="44.73789" lon="5.49753">
        <ele>1018.54</ele>
        <time>2019-06-01T09:47:56.999Z</time>
      </trkpt>
      <trkpt lat="44.7378" lon="5.49755">
        <ele>1022.49</ele>
        <time>2019-06-01T09:48:10.999Z</time>
      </trkpt>
      <trkpt lat="44.73774" lon="5.49765">
        <ele>1029.82</ele>
        <time>2019-06-01T09:48:26.999Z</time>
      </trkpt>
      <trkpt lat="44.73765" lon="5.4977">
        <ele>1032.81</ele>
        <time>2019-06-01T09:48:36.999Z</time>
      </trkpt>
      <trkpt lat="44.73757" lon="5.49778">
        <ele>1034.74</ele>
        <time>2019-06-01T09:48:46.999Z</time>
      </trkpt>
      <trkpt lat="44.7375" lon="5.49788">
        <ele>1035.9</ele>
        <time>2019-06-01T09:48:55.999Z</time>
      </trkpt>
      <trkpt lat="44.73741" lon="5.49787">
        <ele>1037.36</ele>
        <time>2019-06-01T09:49:07.999Z</time>
      </trkpt>
      <trkpt lat="44.73736" lon="5.49776">
        <ele>1039.69</ele>
        <time>2019-06-01T09:49:24.999Z</time>
      </trkpt>
      <trkpt lat="44.73743" lon="5.49767">
        <ele>1041.44</ele>
        <time>2019-06-01T09:49:34.999Z</time>
      </trkpt>
      <trkpt lat="44.73748" lon="5.49757">
        <ele>1044.35</ele>
        <time>2019-06-01T09:49:49.999Z</time>
      </trkpt>
      <trkpt lat="44.73739" lon="5.49757">
        <ele>1047.54</ele>
        <time>2019-06-01T09:50:03.999Z</time>
      </trkpt>
      <trkpt lat="44.73731" lon="5.49761">
        <ele>1049.35</ele>
        <time>2019-06-01T09:50:11.999Z</time>
      </trkpt>
      <trkpt lat="44.73721" lon="5.4976">
        <ele>1049.96</ele>
        <time>2019-06-01T09:50:18.999Z</time>
      </trkpt>
      <trkpt lat="44.73712" lon="5.49758">
        <ele>1049.74</ele>
        <time>2019-06-01T09:50:25.999Z</time>
      </trkpt>
      <trkpt lat="44.73702" lon="5.49757">
        <ele>1050.43</ele>
        <time>2019-06-01T09:50:33.999Z</time>
      </trkpt>
      <trkpt lat="44.73694" lon="5.4975">
        <ele>1050.26</ele>
        <time>2019-06-01T09:50:41.999Z</time>
      </trkpt>
      <trkpt lat="44.73687" lon="5.49741">
        <ele>1048.56</ele>
        <time>2019-06-01T09:50:48.999Z</time>
      </trkpt>
      <trkpt lat="44.73681" lon="5.49729">
        <ele>1046.89</ele>
        <time>2019-06-01T09:50:54.999Z</time>
      </trkpt>
      <trkpt lat="44.73672" lon="5.49729">
        <ele>1046.16</ele>
        <time>2019-06-01T09:51:04.999Z</time>
      </trkpt>
      <trkpt lat="44.73665" lon="5.49738">
        <ele>1047.61</ele>
        <time>2019-06-01T09:51:21.999Z</time>
      </trkpt>
      <trkpt lat="44.7366" lon="5.4975">
        <ele>1049.58</ele>
        <time>2019-06-01T09:51:33.999Z</time>
      </trkpt>
      <trkpt lat="44.73656" lon="5.49763">
        <ele>1051.15</ele>
        <time>2019-06-01T09:51:42.999Z</time>
      </trkpt>
      <trkpt lat="44.73652" lon="5.49775">
        <ele>1051.54</ele>
        <time>2019-06-01T09:51:47.999Z</time>
      </trkpt>
      <trkpt lat="44.73651" lon="5.49788">
        <ele>1051.44</ele>
        <time>2019-06-01T09:51:56.999Z</time>
      </trkpt>
      <trkpt lat="44.73658" lon="5.49804">
        <ele>1050.02</ele>
        <time>2019-06-01T09:53:12.999Z</time>
      </trkpt>
      <trkpt lat="44.73652" lon="5.49792">
        <ele>1048.6</ele>
        <time>2019-06-01T09:53:18.999Z</time>
      </trkpt>
      <trkpt lat="44.73657" lon="5.49804">
        <ele>1047.42</ele>
        <time>2019-06-01T09:53:35.999Z</time>
      </trkpt>
      <trkpt lat="44.73651" lon="5.49814">
        <ele>1048.96</ele>
        <time>2019-06-01T09:53:45.999Z</time>
      </trkpt>
      <trkpt lat="44.73642" lon="5.49818">
        <ele>1050.04</ele>
        <time>2019-06-01T09:53:50.999Z</time>
      </trkpt>
      <trkpt lat="44.73634" lon="5.49824">
        <ele>1052.78</ele>
        <time>2019-06-01T09:53:59.999Z</time>
      </trkpt>
      <trkpt lat="44.7363" lon="5.49837">
        <ele>1055.29</ele>
        <time>2019-06-01T09:54:07.999Z</time>
      </trkpt>
      <trkpt lat="44.73624" lon="5.49848">
        <ele>1057.81</ele>
        <time>2019-06-01T09:54:15.999Z</time>
      </trkpt>
      <trkpt lat="44.73625" lon="5.49863">
        <ele>1060.27</ele>
        <time>2019-06-01T09:54:23.999Z</time>
      </trkpt>
      <trkpt lat="44.73624" lon="5.49876">
        <ele>1061.95</ele>
        <time>2019-06-01T09:54:29.999Z</time>
      </trkpt>
      <trkpt lat="44.7362" lon="5.49888">
        <ele>1064.52</ele>
        <time>2019-06-01T09:54:39.999Z</time>
      </trkpt>
      <trkpt lat="44.73615" lon="5.49901">
        <ele>1066.21</ele>
        <time>2019-06-01T09:54:46.999Z</time>
      </trkpt>
      <trkpt lat="44.7361" lon="5.49914">
        <ele>1067.89</ele>
        <time>2019-06-01T09:54:53.999Z</time>
      </trkpt>
      <trkpt lat="44.73607" lon="5.49926">
        <ele>1069.63</ele>
        <time>2019-06-01T09:55:02.999Z</time>
      </trkpt>
      <trkpt lat="44.73602" lon="5.49939">
        <ele>1070.58</ele>
        <time>2019-06-01T09:55:12.999Z</time>
      </trkpt>
      <trkpt lat="44.73598" lon="5.49951">
        <ele>1071.3</ele>
        <time>2019-06-01T09:55:20.999Z</time>
      </trkpt>
      <trkpt lat="44.73593" lon="5.49963">
        <ele>1072.18</ele>
        <time>2019-06-01T09:55:28.999Z</time>
      </trkpt>
      <trkpt lat="44.7359" lon="5.49975">
        <ele>1073.42</ele>
        <time>2019-06-01T09:55:37.999Z</time>
      </trkpt>
      <trkpt lat="44.73588" lon="5.49989">
        <ele>1074.69</ele>
        <time>2019-06-01T09:55:45.999Z</time>
      </trkpt>
      <trkpt lat="44.73585" lon="5.50002">
        <ele>1075.85</ele>
        <time>2019-06-01T09:55:55.999Z</time>
      </trkpt>
      <trkpt lat="44.73583" lon="5.50015">
        <ele>1076.03</ele>
        <time>2019-06-01T09:56:04.999Z</time>
      </trkpt>
      <trkpt lat="44.73583" lon="5.50029">
        <ele>1076.51</ele>
        <time>2019-06-01T09:56:13.999Z</time>
      </trkpt>
      <trkpt lat="44.73583" lon="5.50042">
        <ele>1078.09</ele>
        <time>2019-06-01T09:56:23.999Z</time>
      </trkpt>
      <trkpt lat="44.73577" lon="5.50054">
        <ele>1079.64</ele>
        <time>2019-06-01T09:56:33.999Z</time>
      </trkpt>
      <trkpt lat="44.73571" lon="5.50065">
        <ele>1080.61</ele>
        <time>2019-06-01T09:56:40.999Z</time>
      </trkpt>
      <trkpt lat="44.73564" lon="5.50075">
        <ele>1081.51</ele>
        <time>2019-06-01T09:56:47.999Z</time>
      </trkpt>
      <trkpt lat="44.7356" lon="5.50086">
        <ele>1082.72</ele>
        <time>2019-06-01T09:56:57.999Z</time>
      </trkpt>
      <trkpt lat="44.73553" lon="5.50094">
        <ele>1083.2</ele>
        <time>2019-06-01T09:57:05.999Z</time>
      </trkpt>
      <trkpt lat="44.73545" lon="5.501">
        <ele>1083.89</ele>
        <time>2019-06-01T09:57:13.999Z</time>
      </trkpt>
      <trkpt lat="44.73536" lon="5.50107">
        <ele>1084.59</ele>
        <time>2019-06-01T09:57:20.999Z</time>
      </trkpt>
      <trkpt lat="44.73527" lon="5.50112">
        <ele>1085.34</ele>
        <time>2019-06-01T09:57:27.999Z</time>
      </trkpt>
      <trkpt lat="44.73518" lon="5.50112">
        <ele>1086.33</ele>
        <time>2019-06-01T09:57:37.999Z</time>
      </trkpt>
      <trkpt lat="44.73508" lon="5.50111">
        <ele>1086.98</ele>
        <time>2019-06-01T09:57:47.999Z</time>
      </trkpt>
      <trkpt lat="44.73499" lon="5.50113">
        <ele>1087.97</ele>
        <time>2019-06-01T09:57:55.999Z</time>
      </trkpt>
      <trkpt lat="44.73489" lon="5.50117">
        <ele>1089</ele>
        <time>2019-06-01T09:58:02.999Z</time>
      </trkpt>
      <trkpt lat="44.7348" lon="5.50121">
        <ele>1090.02</ele>
        <time>2019-06-01T09:58:09.999Z</time>
      </trkpt>
      <trkpt lat="44.73471" lon="5.50125">
        <ele>1091.48</ele>
        <time>2019-06-01T09:58:18.999Z</time>
      </trkpt>
      <trkpt lat="44.73462" lon="5.5013">
        <ele>1093.06</ele>
        <time>2019-06-01T09:58:26.999Z</time>
      </trkpt>
      <trkpt lat="44.73452" lon="5.50133">
        <ele>1094.64</ele>
        <time>2019-06-01T09:58:33.999Z</time>
      </trkpt>
      <trkpt lat="44.73442" lon="5.50134">
        <ele>1096.06</ele>
        <time>2019-06-01T09:58:40.999Z</time>
      </trkpt>
      <trkpt lat="44.73432" lon="5.5013">
        <ele>1096.93</ele>
        <time>2019-06-01T09:58:48.999Z</time>
      </trkpt>
      <trkpt lat="44.73423" lon="5.50128">
        <ele>1097.78</ele>
        <time>2019-06-01T09:58:56.999Z</time>
      </trkpt>
      <trkpt lat="44.73413" lon="5.50125">
        <ele>1098.2</ele>
        <time>2019-06-01T09:59:05.999Z</time>
      </trkpt>
      <trkpt lat="44.73403" lon="5.50123">
        <ele>1098.18</ele>
        <time>2019-06-01T09:59:14.999Z</time>
      </trkpt>
      <trkpt lat="44.73394" lon="5.50123">
        <ele>1098.4</ele>
        <time>2019-06-01T09:59:22.999Z</time>
      </trkpt>
      <trkpt lat="44.73385" lon="5.50126">
        <ele>1099.12</ele>
        <time>2019-06-01T09:59:29.999Z</time>
      </trkpt>
      <trkpt lat="44.73375" lon="5.50129">
        <ele>1099.76</ele>
        <time>2019-06-01T09:59:36.999Z</time>
      </trkpt>
      <trkpt lat="44.73366" lon="5.50134">
        <ele>1099.94</ele>
        <time>2019-06-01T09:59:41.999Z</time>
      </trkpt>
      <trkpt lat="44.73357" lon="5.5014">
        <ele>1100.19</ele>
        <time>2019-06-01T09:59:48.999Z</time>
      </trkpt>
      <trkpt lat="44.73349" lon="5.50146">
        <ele>1100.98</ele>
        <time>2019-06-01T09:59:58.999Z</time>
      </trkpt>
      <trkpt lat="44.7334" lon="5.50147">
        <ele>1102.73</ele>
        <time>2019-06-01T10:00:08.999Z</time>
      </trkpt>
      <trkpt lat="44.73331" lon="5.50149">
        <ele>1104.37</ele>
        <time>2019-06-01T10:00:20.999Z</time>
      </trkpt>
      <trkpt lat="44.73323" lon="5.50156">
        <ele>1105.46</ele>
        <time>2019-06-01T10:00:30.999Z</time>
      </trkpt>
      <trkpt lat="44.73315" lon="5.50166">
        <ele>1106.41</ele>
        <time>2019-06-01T10:00:40.999Z</time>
      </trkpt>
      <trkpt lat="44.73307" lon="5.50174">
        <ele>1107.09</ele>
        <time>2019-06-01T10:00:47.999Z</time>
      </trkpt>
      <trkpt lat="44.73302" lon="5.50184">
        <ele>1107.67</ele>
        <time>2019-06-01T10:00:57.999Z</time>
      </trkpt>
      <trkpt lat="44.73296" lon="5.50195">
        <ele>1107.74</ele>
        <time>2019-06-01T10:01:05.999Z</time>
      </trkpt>
      <trkpt lat="44.7329" lon="5.50204">
        <ele>1107.46</ele>
        <time>2019-06-01T10:01:13.999Z</time>
      </trkpt>
      <trkpt lat="44.73282" lon="5.50212">
        <ele>1106.79</ele>
        <time>2019-06-01T10:01:21.999Z</time>
      </trkpt>
      <trkpt lat="44.73275" lon="5.50222">
        <ele>1106.51</ele>
        <time>2019-06-01T10:01:29.999Z</time>
      </trkpt>
      <trkpt lat="44.73268" lon="5.50232">
        <ele>1106.72</ele>
        <time>2019-06-01T10:01:36.999Z</time>
      </trkpt>
      <trkpt lat="44.73259" lon="5.50239">
        <ele>1107.75</ele>
        <time>2019-06-01T10:01:46.999Z</time>
      </trkpt>
      <trkpt lat="44.73251" lon="5.50244">
        <ele>1108.79</ele>
        <time>2019-06-01T10:01:53.999Z</time>
      </trkpt>
      <trkpt lat="44.73241" lon="5.50249">
        <ele>1109.83</ele>
        <time>2019-06-01T10:02:01.999Z</time>
      </trkpt>
      <trkpt lat="44.73232" lon="5.50253">
        <ele>1110.66</ele>
        <time>2019-06-01T10:02:09.999Z</time>
      </trkpt>
      <trkpt lat="44.73223" lon="5.50254">
        <ele>1111.24</ele>
        <time>2019-06-01T10:02:17.999Z</time>
      </trkpt>
      <trkpt lat="44.73214" lon="5.50255">
        <ele>1111.79</ele>
        <time>2019-06-01T10:02:25.999Z</time>
      </trkpt>
      <trkpt lat="44.73204" lon="5.50257">
        <ele>1112.19</ele>
        <time>2019-06-01T10:02:32.999Z</time>
      </trkpt>
      <trkpt lat="44.73195" lon="5.5026">
        <ele>1112.44</ele>
        <time>2019-06-01T10:02:40.999Z</time>
      </trkpt>
      <trkpt lat="44.73185" lon="5.50257">
        <ele>1112.72</ele>
        <time>2019-06-01T10:02:49.999Z</time>
      </trkpt>
      <trkpt lat="44.73175" lon="5.50254">
        <ele>1112.83</ele>
        <time>2019-06-01T10:02:57.999Z</time>
      </trkpt>
      <trkpt lat="44.73166" lon="5.50254">
        <ele>1113.39</ele>
        <time>2019-06-01T10:03:04.999Z</time>
      </trkpt>
      <trkpt lat="44.73156" lon="5.50254">
        <ele>1113.78</ele>
        <time>2019-06-01T10:03:12.999Z</time>
      </trkpt>
      <trkpt lat="44.73146" lon="5.50253">
        <ele>1114.17</ele>
        <time>2019-06-01T10:03:20.999Z</time>
      </trkpt>
      <trkpt lat="44.73137" lon="5.50254">
        <ele>1114.43</ele>
        <time>2019-06-01T10:03:27.999Z</time>
      </trkpt>
      <trkpt lat="44.73127" lon="5.50258">
        <ele>1114.38</ele>
        <time>2019-06-01T10:03:36.999Z</time>
      </trkpt>
      <trkpt lat="44.73119" lon="5.50263">
        <ele>1114.78</ele>
        <time>2019-06-01T10:03:44.999Z</time>
      </trkpt>
      <trkpt lat="44.73112" lon="5.50271">
        <ele>1115.37</ele>
        <time>2019-06-01T10:03:51.999Z</time>
      </trkpt>
      <trkpt lat="44.73105" lon="5.50281">
        <ele>1115.77</ele>
        <time>2019-06-01T10:03:59.999Z</time>
      </trkpt>
      <trkpt lat="44.73097" lon="5.50289">
        <ele>1116.19</ele>
        <time>2019-06-01T10:04:07.999Z</time>
      </trkpt>
      <trkpt lat="44.73088" lon="5.50296">
        <ele>1116.83</ele>
        <time>2019-06-01T10:04:15.999Z</time>
      </trkpt>
      <trkpt lat="44.73078" lon="5.50298">
        <ele>1117.75</ele>
        <time>2019-06-01T10:04:24.999Z</time>
      </trkpt>
      <trkpt lat="44.73068" lon="5.50297">
        <ele>1118.88</ele>
        <time>2019-06-01T10:04:31.999Z</time>
      </trkpt>
      <trkpt lat="44.73059" lon="5.50298">
        <ele>1119.52</ele>
        <time>2019-06-01T10:04:38.999Z</time>
      </trkpt>
      <trkpt lat="44.73049" lon="5.50299">
        <ele>1119.95</ele>
        <time>2019-06-01T10:04:45.999Z</time>
      </trkpt>
      <trkpt lat="44.73039" lon="5.50301">
        <ele>1120.14</ele>
        <time>2019-06-01T10:04:52.999Z</time>
      </trkpt>
      <trkpt lat="44.73029" lon="5.50303">
        <ele>1120.28</ele>
        <time>2019-06-01T10:05:00.999Z</time>
      </trkpt>
      <trkpt lat="44.7302" lon="5.50304">
        <ele>1119.96</ele>
        <time>2019-06-01T10:05:08.999Z</time>
      </trkpt>
      <trkpt lat="44.73011" lon="5.50304">
        <ele>1119.96</ele>
        <time>2019-06-01T10:05:17.999Z</time>
      </trkpt>
      <trkpt lat="44.73002" lon="5.50309">
        <ele>1120.43</ele>
        <time>2019-06-01T10:05:28.999Z</time>
      </trkpt>
      <trkpt lat="44.72993" lon="5.50313">
        <ele>1121.09</ele>
        <time>2019-06-01T10:05:37.999Z</time>
      </trkpt>
      <trkpt lat="44.72984" lon="5.50318">
        <ele>1121.32</ele>
        <time>2019-06-01T10:05:44.999Z</time>
      </trkpt>
      <trkpt lat="44.72976" lon="5.50323">
        <ele>1121.08</ele>
        <time>2019-06-01T10:05:52.999Z</time>
      </trkpt>
      <trkpt lat="44.72968" lon="5.50332">
        <ele>1120.36</ele>
        <time>2019-06-01T10:06:01.999Z</time>
      </trkpt>
      <trkpt lat="44.7296" lon="5.50341">
        <ele>1119.97</ele>
        <time>2019-06-01T10:06:08.999Z</time>
      </trkpt>
      <trkpt lat="44.72951" lon="5.50345">
        <ele>1119.77</ele>
        <time>2019-06-01T10:06:15.999Z</time>
      </trkpt>
      <trkpt lat="44.72942" lon="5.50351">
        <ele>1119.94</ele>
        <time>2019-06-01T10:06:23.999Z</time>
      </trkpt>
      <trkpt lat="44.72935" lon="5.5036">
        <ele>1120.34</ele>
        <time>2019-06-01T10:06:30.999Z</time>
      </trkpt>
      <trkpt lat="44.7293" lon="5.50372">
        <ele>1120.7</ele>
        <time>2019-06-01T10:06:37.999Z</time>
      </trkpt>
      <trkpt lat="44.72927" lon="5.50385">
        <ele>1119.78</ele>
        <time>2019-06-01T10:06:47.999Z</time>
      </trkpt>
      <trkpt lat="44.72925" lon="5.50398">
        <ele>1118.33</ele>
        <time>2019-06-01T10:06:55.999Z</time>
      </trkpt>
      <trkpt lat="44.72921" lon="5.50411">
        <ele>1116.4</ele>
        <time>2019-06-01T10:07:04.999Z</time>
      </trkpt>
      <trkpt lat="44.72916" lon="5.50422">
        <ele>1114.92</ele>
        <time>2019-06-01T10:07:14.999Z</time>
      </trkpt>
      <trkpt lat="44.72906" lon="5.50429">
        <ele>1114.09</ele>
        <time>2019-06-01T10:07:21.999Z</time>
      </trkpt>
      <trkpt lat="44.72898" lon="5.50435">
        <ele>1113.69</ele>
        <time>2019-06-01T10:07:27.999Z</time>
      </trkpt>
      <trkpt lat="44.7289" lon="5.5044">
        <ele>1113.37</ele>
        <time>2019-06-01T10:07:33.999Z</time>
      </trkpt>
      <trkpt lat="44.72881" lon="5.50445">
        <ele>1112.35</ele>
        <time>2019-06-01T10:07:39.999Z</time>
      </trkpt>
      <trkpt lat="44.72871" lon="5.5045">
        <ele>1111.28</ele>
        <time>2019-06-01T10:07:45.999Z</time>
      </trkpt>
      <trkpt lat="44.72862" lon="5.50454">
        <ele>1109.67</ele>
        <time>2019-06-01T10:07:53.999Z</time>
      </trkpt>
      <trkpt lat="44.72852" lon="5.50455">
        <ele>1108.21</ele>
        <time>2019-06-01T10:08:02.000Z</time>
      </trkpt>
      <trkpt lat="44.72843" lon="5.50456">
        <ele>1107.17</ele>
        <time>2019-06-01T10:08:09.000Z</time>
      </trkpt>
      <trkpt lat="44.72833" lon="5.5046">
        <ele>1106.05</ele>
        <time>2019-06-01T10:08:17.000Z</time>
      </trkpt>
      <trkpt lat="44.72826" lon="5.50467">
        <ele>1105.13</ele>
        <time>2019-06-01T10:08:26.000Z</time>
      </trkpt>
      <trkpt lat="44.72819" lon="5.50477">
        <ele>1104.21</ele>
        <time>2019-06-01T10:08:35.000Z</time>
      </trkpt>
      <trkpt lat="44.72815" lon="5.5049">
        <ele>1103.66</ele>
        <time>2019-06-01T10:08:42.000Z</time>
      </trkpt>
      <trkpt lat="44.72815" lon="5.50503">
        <ele>1103.61</ele>
        <time>2019-06-01T10:08:49.000Z</time>
      </trkpt>
      <trkpt lat="44.72813" lon="5.50516">
        <ele>1103.38</ele>
        <time>2019-06-01T10:08:57.000Z</time>
      </trkpt>
      <trkpt lat="44.72808" lon="5.50528">
        <ele>1102.65</ele>
        <time>2019-06-01T10:09:05.000Z</time>
      </trkpt>
      <trkpt lat="44.72802" lon="5.50539">
        <ele>1101.25</ele>
        <time>2019-06-01T10:09:13.000Z</time>
      </trkpt>
      <trkpt lat="44.72797" lon="5.50552">
        <ele>1099.43</ele>
        <time>2019-06-01T10:09:21.000Z</time>
      </trkpt>
      <trkpt lat="44.72799" lon="5.50566">
        <ele>1097.95</ele>
        <time>2019-06-01T10:09:29.000Z</time>
      </trkpt>
      <trkpt lat="44.72807" lon="5.50577">
        <ele>1097.8</ele>
        <time>2019-06-01T10:09:35.000Z</time>
      </trkpt>
      <trkpt lat="44.72814" lon="5.50585">
        <ele>1098.01</ele>
        <time>2019-06-01T10:09:40.000Z</time>
      </trkpt>
      <trkpt lat="44.72817" lon="5.50598">
        <ele>1098.17</ele>
        <time>2019-06-01T10:09:48.000Z</time>
      </trkpt>
      <trkpt lat="44.72818" lon="5.50612">
        <ele>1097.86</ele>
        <time>2019-06-01T10:09:56.000Z</time>
      </trkpt>
      <trkpt lat="44.72819" lon="5.50626">
        <ele>1097.5</ele>
        <time>2019-06-01T10:10:04.000Z</time>
      </trkpt>
      <trkpt lat="44.7282" lon="5.50639">
        <ele>1097.37</ele>
        <time>2019-06-01T10:10:11.000Z</time>
      </trkpt>
      <trkpt lat="44.72819" lon="5.50652">
        <ele>1097.11</ele>
        <time>2019-06-01T10:10:18.000Z</time>
      </trkpt>
      <trkpt lat="44.72815" lon="5.50664">
        <ele>1096.75</ele>
        <time>2019-06-01T10:10:26.000Z</time>
      </trkpt>
      <trkpt lat="44.72809" lon="5.50675">
        <ele>1096.56</ele>
        <time>2019-06-01T10:10:32.000Z</time>
      </trkpt>
      <trkpt lat="44.72803" lon="5.50686">
        <ele>1096.62</ele>
        <time>2019-06-01T10:10:39.000Z</time>
      </trkpt>
      <trkpt lat="44.72797" lon="5.50697">
        <ele>1096.76</ele>
        <time>2019-06-01T10:10:46.000Z</time>
      </trkpt>
      <trkpt lat="44.7279" lon="5.50706">
        <ele>1097</ele>
        <time>2019-06-01T10:10:53.000Z</time>
      </trkpt>
      <trkpt lat="44.72782" lon="5.50713">
        <ele>1096.97</ele>
        <time>2019-06-01T10:11:00.000Z</time>
      </trkpt>
      <trkpt lat="44.72773" lon="5.50716">
        <ele>1096.9</ele>
        <time>2019-06-01T10:11:08.000Z</time>
      </trkpt>
      <trkpt lat="44.72763" lon="5.50718">
        <ele>1096.91</ele>
        <time>2019-06-01T10:11:14.000Z</time>
      </trkpt>
      <trkpt lat="44.72754" lon="5.50721">
        <ele>1096.47</ele>
        <time>2019-06-01T10:11:20.000Z</time>
      </trkpt>
      <trkpt lat="44.72745" lon="5.50728">
        <ele>1095.89</ele>
        <time>2019-06-01T10:11:27.000Z</time>
      </trkpt>
      <trkpt lat="44.72738" lon="5.50738">
        <ele>1095.79</ele>
        <time>2019-06-01T10:11:33.000Z</time>
      </trkpt>
      <trkpt lat="44.7273" lon="5.50745">
        <ele>1096.13</ele>
        <time>2019-06-01T10:11:40.000Z</time>
      </trkpt>
      <trkpt lat="44.72721" lon="5.50745">
        <ele>1096.62</ele>
        <time>2019-06-01T10:11:49.000Z</time>
      </trkpt>
      <trkpt lat="44.72711" lon="5.50742">
        <ele>1095.8</ele>
        <time>2019-06-01T10:11:56.000Z</time>
      </trkpt>
      <trkpt lat="44.72701" lon="5.50741">
        <ele>1094.66</ele>
        <time>2019-06-01T10:12:02.000Z</time>
      </trkpt>
      <trkpt lat="44.72692" lon="5.50739">
        <ele>1093.43</ele>
        <time>2019-06-01T10:12:08.000Z</time>
      </trkpt>
      <trkpt lat="44.72682" lon="5.50739">
        <ele>1092.16</ele>
        <time>2019-06-01T10:12:15.000Z</time>
      </trkpt>
      <trkpt lat="44.72672" lon="5.50743">
        <ele>1091.69</ele>
        <time>2019-06-01T10:12:22.000Z</time>
      </trkpt>
      <trkpt lat="44.72662" lon="5.50748">
        <ele>1091.2</ele>
        <time>2019-06-01T10:12:30.000Z</time>
      </trkpt>
      <trkpt lat="44.72653" lon="5.50754">
        <ele>1091.12</ele>
        <time>2019-06-01T10:12:38.000Z</time>
      </trkpt>
      <trkpt lat="44.72648" lon="5.50766">
        <ele>1091.14</ele>
        <time>2019-06-01T10:12:47.000Z</time>
      </trkpt>
      <trkpt lat="44.72648" lon="5.50779">
        <ele>1089.9</ele>
        <time>2019-06-01T10:12:58.000Z</time>
      </trkpt>
      <trkpt lat="44.72646" lon="5.50792">
        <ele>1088.75</ele>
        <time>2019-06-01T10:13:07.000Z</time>
      </trkpt>
      <trkpt lat="44.72645" lon="5.50805">
        <ele>1087.59</ele>
        <time>2019-06-01T10:13:16.000Z</time>
      </trkpt>
      <trkpt lat="44.72642" lon="5.50818">
        <ele>1086.6</ele>
        <time>2019-06-01T10:13:24.000Z</time>
      </trkpt>
      <trkpt lat="44.72639" lon="5.5083">
        <ele>1085.31</ele>
        <time>2019-06-01T10:13:32.000Z</time>
      </trkpt>
      <trkpt lat="44.72636" lon="5.50843">
        <ele>1083.85</ele>
        <time>2019-06-01T10:13:41.000Z</time>
      </trkpt>
      <trkpt lat="44.72633" lon="5.50857">
        <ele>1082.05</ele>
        <time>2019-06-01T10:13:49.000Z</time>
      </trkpt>
      <trkpt lat="44.72629" lon="5.50869">
        <ele>1079.97</ele>
        <time>2019-06-01T10:13:56.000Z</time>
      </trkpt>
      <trkpt lat="44.72627" lon="5.50883">
        <ele>1078.06</ele>
        <time>2019-06-01T10:14:04.000Z</time>
      </trkpt>
      <trkpt lat="44.72627" lon="5.50896">
        <ele>1076.28</ele>
        <time>2019-06-01T10:14:12.000Z</time>
      </trkpt>
      <trkpt lat="44.72625" lon="5.50909">
        <ele>1075</ele>
        <time>2019-06-01T10:14:19.000Z</time>
      </trkpt>
      <trkpt lat="44.72624" lon="5.50923">
        <ele>1073.86</ele>
        <time>2019-06-01T10:14:26.000Z</time>
      </trkpt>
      <trkpt lat="44.72625" lon="5.50935">
        <ele>1072.71</ele>
        <time>2019-06-01T10:14:33.000Z</time>
      </trkpt>
      <trkpt lat="44.72637" lon="5.50941">
        <ele>1078.46</ele>
        <time>2019-06-01T10:15:39.000Z</time>
      </trkpt>
      <trkpt lat="44.72639" lon="5.50929">
        <ele>1080.36</ele>
        <time>2019-06-01T10:16:14.000Z</time>
      </trkpt>
      <trkpt lat="44.7263" lon="5.50933">
        <ele>1076.8</ele>
        <time>2019-06-01T10:16:52.000Z</time>
      </trkpt>
      <trkpt lat="44.72621" lon="5.50929">
        <ele>1075.06</ele>
        <time>2019-06-01T10:16:58.000Z</time>
      </trkpt>
      <trkpt lat="44.72612" lon="5.50928">
        <ele>1073.26</ele>
        <time>2019-06-01T10:17:05.000Z</time>
      </trkpt>
      <trkpt lat="44.72602" lon="5.50926">
        <ele>1071.69</ele>
        <time>2019-06-01T10:17:12.000Z</time>
      </trkpt>
      <trkpt lat="44.72592" lon="5.50927">
        <ele>1070.29</ele>
        <time>2019-06-01T10:17:20.000Z</time>
      </trkpt>
      <trkpt lat="44.72581" lon="5.5093">
        <ele>1069.35</ele>
        <time>2019-06-01T10:17:27.000Z</time>
      </trkpt>
      <trkpt lat="44.72572" lon="5.50932">
        <ele>1068.94</ele>
        <time>2019-06-01T10:17:32.000Z</time>
      </trkpt>
      <trkpt lat="44.72562" lon="5.50934">
        <ele>1067.9</ele>
        <time>2019-06-01T10:17:40.000Z</time>
      </trkpt>
      <trkpt lat="44.72553" lon="5.50937">
        <ele>1067.5</ele>
        <time>2019-06-01T10:17:45.000Z</time>
      </trkpt>
      <trkpt lat="44.72543" lon="5.50939">
        <ele>1067.01</ele>
        <time>2019-06-01T10:17:54.000Z</time>
      </trkpt>
      <trkpt lat="44.72535" lon="5.50946">
        <ele>1066.92</ele>
        <time>2019-06-01T10:18:00.000Z</time>
      </trkpt>
      <trkpt lat="44.72528" lon="5.50955">
        <ele>1067.14</ele>
        <time>2019-06-01T10:18:06.000Z</time>
      </trkpt>
      <trkpt lat="44.72519" lon="5.50964">
        <ele>1067.39</ele>
        <time>2019-06-01T10:18:11.000Z</time>
      </trkpt>
      <trkpt lat="44.7251" lon="5.5097">
        <ele>1067.78</ele>
        <time>2019-06-01T10:18:17.000Z</time>
      </trkpt>
      <trkpt lat="44.72501" lon="5.50973">
        <ele>1068.03</ele>
        <time>2019-06-01T10:18:23.000Z</time>
      </trkpt>
      <trkpt lat="44.72491" lon="5.50971">
        <ele>1067.89</ele>
        <time>2019-06-01T10:18:30.000Z</time>
      </trkpt>
      <trkpt lat="44.72482" lon="5.50968">
        <ele>1067.45</ele>
        <time>2019-06-01T10:18:37.000Z</time>
      </trkpt>
      <trkpt lat="44.72472" lon="5.50973">
        <ele>1067.16</ele>
        <time>2019-06-01T10:18:46.000Z</time>
      </trkpt>
      <trkpt lat="44.72471" lon="5.50987">
        <ele>1067.72</ele>
        <time>2019-06-01T10:18:55.000Z</time>
      </trkpt>
      <trkpt lat="44.7247" lon="5.50999">
        <ele>1068.05</ele>
        <time>2019-06-01T10:19:02.000Z</time>
      </trkpt>
      <trkpt lat="44.72466" lon="5.51011">
        <ele>1068.02</ele>
        <time>2019-06-01T10:19:09.000Z</time>
      </trkpt>
      <trkpt lat="44.72462" lon="5.51023">
        <ele>1067.76</ele>
        <time>2019-06-01T10:19:16.000Z</time>
      </trkpt>
      <trkpt lat="44.72459" lon="5.51036">
        <ele>1066.8</ele>
        <time>2019-06-01T10:19:24.000Z</time>
      </trkpt>
      <trkpt lat="44.72457" lon="5.51049">
        <ele>1065.68</ele>
        <time>2019-06-01T10:19:32.000Z</time>
      </trkpt>
      <trkpt lat="44.72457" lon="5.51062">
        <ele>1064.84</ele>
        <time>2019-06-01T10:19:40.000Z</time>
      </trkpt>
      <trkpt lat="44.72455" lon="5.51075">
        <ele>1064.16</ele>
        <time>2019-06-01T10:19:47.000Z</time>
      </trkpt>
      <trkpt lat="44.72449" lon="5.51086">
        <ele>1063.61</ele>
        <time>2019-06-01T10:19:54.000Z</time>
      </trkpt>
      <trkpt lat="44.72441" lon="5.51093">
        <ele>1063.08</ele>
        <time>2019-06-01T10:20:02.000Z</time>
      </trkpt>
      <trkpt lat="44.72431" lon="5.511">
        <ele>1062.54</ele>
        <time>2019-06-01T10:20:09.000Z</time>
      </trkpt>
      <trkpt lat="44.72424" lon="5.51107">
        <ele>1062.09</ele>
        <time>2019-06-01T10:20:17.000Z</time>
      </trkpt>
      <trkpt lat="44.72416" lon="5.51114">
        <ele>1061.67</ele>
        <time>2019-06-01T10:20:26.000Z</time>
      </trkpt>
      <trkpt lat="44.72409" lon="5.51125">
        <ele>1061.31</ele>
        <time>2019-06-01T10:20:33.000Z</time>
      </trkpt>
      <trkpt lat="44.72402" lon="5.51133">
        <ele>1060.43</ele>
        <time>2019-06-01T10:20:38.000Z</time>
      </trkpt>
      <trkpt lat="44.72395" lon="5.51142">
        <ele>1059.35</ele>
        <time>2019-06-01T10:20:45.000Z</time>
      </trkpt>
      <trkpt lat="44.72391" lon="5.51154">
        <ele>1058.62</ele>
        <time>2019-06-01T10:20:54.000Z</time>
      </trkpt>
      <trkpt lat="44.72387" lon="5.51168">
        <ele>1058.66</ele>
        <time>2019-06-01T10:21:02.000Z</time>
      </trkpt>
      <trkpt lat="44.72385" lon="5.5118">
        <ele>1058.81</ele>
        <time>2019-06-01T10:21:09.000Z</time>
      </trkpt>
      <trkpt lat="44.7238" lon="5.51193">
        <ele>1058.71</ele>
        <time>2019-06-01T10:21:15.000Z</time>
      </trkpt>
      <trkpt lat="44.72376" lon="5.51205">
        <ele>1056.7</ele>
        <time>2019-06-01T10:21:27.000Z</time>
      </trkpt>
      <trkpt lat="44.72374" lon="5.51218">
        <ele>1054.83</ele>
        <time>2019-06-01T10:21:36.000Z</time>
      </trkpt>
      <trkpt lat="44.72372" lon="5.5123">
        <ele>1053.72</ele>
        <time>2019-06-01T10:21:44.000Z</time>
      </trkpt>
      <trkpt lat="44.7237" lon="5.51243">
        <ele>1053.27</ele>
        <time>2019-06-01T10:21:53.000Z</time>
      </trkpt>
      <trkpt lat="44.72364" lon="5.51254">
        <ele>1053.32</ele>
        <time>2019-06-01T10:22:01.000Z</time>
      </trkpt>
      <trkpt lat="44.72356" lon="5.51261">
        <ele>1053.49</ele>
        <time>2019-06-01T10:22:07.000Z</time>
      </trkpt>
      <trkpt lat="44.72348" lon="5.51271">
        <ele>1053.82</ele>
        <time>2019-06-01T10:22:16.000Z</time>
      </trkpt>
      <trkpt lat="44.72342" lon="5.51281">
        <ele>1054.7</ele>
        <time>2019-06-01T10:22:26.000Z</time>
      </trkpt>
      <trkpt lat="44.72335" lon="5.5129">
        <ele>1055.42</ele>
        <time>2019-06-01T10:22:34.000Z</time>
      </trkpt>
      <trkpt lat="44.72325" lon="5.51294">
        <ele>1055.97</ele>
        <time>2019-06-01T10:22:39.000Z</time>
      </trkpt>
      <trkpt lat="44.72316" lon="5.51297">
        <ele>1056.69</ele>
        <time>2019-06-01T10:22:46.000Z</time>
      </trkpt>
      <trkpt lat="44.72307" lon="5.51302">
        <ele>1057.38</ele>
        <time>2019-06-01T10:22:58.000Z</time>
      </trkpt>
      <trkpt lat="44.72294" lon="5.51308">
        <ele>1057.32</ele>
        <time>2019-06-01T10:23:03.000Z</time>
      </trkpt>
      <trkpt lat="44.72285" lon="5.5131">
        <ele>1057.04</ele>
        <time>2019-06-01T10:23:08.000Z</time>
      </trkpt>
      <trkpt lat="44.72275" lon="5.51308">
        <ele>1055.47</ele>
        <time>2019-06-01T10:23:19.000Z</time>
      </trkpt>
      <trkpt lat="44.72266" lon="5.51308">
        <ele>1054.58</ele>
        <time>2019-06-01T10:23:25.000Z</time>
      </trkpt>
      <trkpt lat="44.72255" lon="5.51313">
        <ele>1053.68</ele>
        <time>2019-06-01T10:23:31.000Z</time>
      </trkpt>
      <trkpt lat="44.72244" lon="5.51319">
        <ele>1053.05</ele>
        <time>2019-06-01T10:23:36.000Z</time>
      </trkpt>
      <trkpt lat="44.72235" lon="5.5132">
        <ele>1052.18</ele>
        <time>2019-06-01T10:23:43.000Z</time>
      </trkpt>
      <trkpt lat="44.72225" lon="5.51317">
        <ele>1051.23</ele>
        <time>2019-06-01T10:23:51.000Z</time>
      </trkpt>
      <trkpt lat="44.72216" lon="5.51314">
        <ele>1049.97</ele>
        <time>2019-06-01T10:23:59.000Z</time>
      </trkpt>
      <trkpt lat="44.72206" lon="5.51317">
        <ele>1048.84</ele>
        <time>2019-06-01T10:24:05.000Z</time>
      </trkpt>
      <trkpt lat="44.72197" lon="5.5132">
        <ele>1048.32</ele>
        <time>2019-06-01T10:24:11.000Z</time>
      </trkpt>
      <trkpt lat="44.72189" lon="5.51324">
        <ele>1048.22</ele>
        <time>2019-06-01T10:24:21.000Z</time>
      </trkpt>
      <trkpt lat="44.72179" lon="5.51329">
        <ele>1047.82</ele>
        <time>2019-06-01T10:24:30.000Z</time>
      </trkpt>
      <trkpt lat="44.72172" lon="5.51336">
        <ele>1047.4</ele>
        <time>2019-06-01T10:24:35.000Z</time>
      </trkpt>
      <trkpt lat="44.72163" lon="5.51345">
        <ele>1046.55</ele>
        <time>2019-06-01T10:24:42.000Z</time>
      </trkpt>
      <trkpt lat="44.72154" lon="5.51352">
        <ele>1044.8</ele>
        <time>2019-06-01T10:24:51.000Z</time>
      </trkpt>
      <trkpt lat="44.72145" lon="5.51352">
        <ele>1043.49</ele>
        <time>2019-06-01T10:24:57.000Z</time>
      </trkpt>
      <trkpt lat="44.72135" lon="5.5135">
        <ele>1042.52</ele>
        <time>2019-06-01T10:25:02.000Z</time>
      </trkpt>
      <trkpt lat="44.72125" lon="5.51351">
        <ele>1041.34</ele>
        <time>2019-06-01T10:25:08.000Z</time>
      </trkpt>
      <trkpt lat="44.72116" lon="5.51354">
        <ele>1040.03</ele>
        <time>2019-06-01T10:25:14.000Z</time>
      </trkpt>
      <trkpt lat="44.72108" lon="5.51361">
        <ele>1037.6</ele>
        <time>2019-06-01T10:25:27.000Z</time>
      </trkpt>
      <trkpt lat="44.72105" lon="5.51374">
        <ele>1035.62</ele>
        <time>2019-06-01T10:25:37.000Z</time>
      </trkpt>
      <trkpt lat="44.72104" lon="5.51387">
        <ele>1034.5</ele>
        <time>2019-06-01T10:25:44.000Z</time>
      </trkpt>
      <trkpt lat="44.72101" lon="5.51399">
        <ele>1032.95</ele>
        <time>2019-06-01T10:25:53.000Z</time>
      </trkpt>
      <trkpt lat="44.72094" lon="5.51408">
        <ele>1031.38</ele>
        <time>2019-06-01T10:26:01.000Z</time>
      </trkpt>
      <trkpt lat="44.72084" lon="5.51415">
        <ele>1029.56</ele>
        <time>2019-06-01T10:26:13.000Z</time>
      </trkpt>
      <trkpt lat="44.72076" lon="5.51423">
        <ele>1029.11</ele>
        <time>2019-06-01T10:26:19.000Z</time>
      </trkpt>
      <trkpt lat="44.72069" lon="5.51432">
        <ele>1028.52</ele>
        <time>2019-06-01T10:26:25.000Z</time>
      </trkpt>
      <trkpt lat="44.72062" lon="5.51443">
        <ele>1027.73</ele>
        <time>2019-06-01T10:26:30.000Z</time>
      </trkpt>
      <trkpt lat="44.72059" lon="5.51456">
        <ele>1026.58</ele>
        <time>2019-06-01T10:26:35.000Z</time>
      </trkpt>
      <trkpt lat="44.72057" lon="5.5147">
        <ele>1024.69</ele>
        <time>2019-06-01T10:26:43.000Z</time>
      </trkpt>
      <trkpt lat="44.72055" lon="5.51482">
        <ele>1022.64</ele>
        <time>2019-06-01T10:26:52.000Z</time>
      </trkpt>
      <trkpt lat="44.72048" lon="5.51492">
        <ele>1021.51</ele>
        <time>2019-06-01T10:26:57.000Z</time>
      </trkpt>
      <trkpt lat="44.72039" lon="5.51496">
        <ele>1020.3</ele>
        <time>2019-06-01T10:27:05.000Z</time>
      </trkpt>
      <trkpt lat="44.7203" lon="5.51499">
        <ele>1019.45</ele>
        <time>2019-06-01T10:27:14.000Z</time>
      </trkpt>
      <trkpt lat="44.72022" lon="5.51504">
        <ele>1019.3</ele>
        <time>2019-06-01T10:27:20.000Z</time>
      </trkpt>
      <trkpt lat="44.72014" lon="5.51513">
        <ele>1019.44</ele>
        <time>2019-06-01T10:27:28.000Z</time>
      </trkpt>
      <trkpt lat="44.72006" lon="5.51529">
        <ele>1019.44</ele>
        <time>2019-06-01T10:27:35.000Z</time>
      </trkpt>
      <trkpt lat="44.71999" lon="5.51541">
        <ele>1019.31</ele>
        <time>2019-06-01T10:27:40.000Z</time>
      </trkpt>
      <trkpt lat="44.71999" lon="5.51554">
        <ele>1017.96</ele>
        <time>2019-06-01T10:27:53.000Z</time>
      </trkpt>
      <trkpt lat="44.71995" lon="5.51567">
        <ele>1017.17</ele>
        <time>2019-06-01T10:27:59.000Z</time>
      </trkpt>
      <trkpt lat="44.71989" lon="5.51576">
        <ele>1016.06</ele>
        <time>2019-06-01T10:28:10.000Z</time>
      </trkpt>
      <trkpt lat="44.71982" lon="5.51587">
        <ele>1015.6</ele>
        <time>2019-06-01T10:28:22.000Z</time>
      </trkpt>
      <trkpt lat="44.71977" lon="5.51598">
        <ele>1015.67</ele>
        <time>2019-06-01T10:28:28.000Z</time>
      </trkpt>
      <trkpt lat="44.71971" lon="5.51608">
        <ele>1015.53</ele>
        <time>2019-06-01T10:28:34.000Z</time>
      </trkpt>
      <trkpt lat="44.71965" lon="5.51617">
        <ele>1015.56</ele>
        <time>2019-06-01T10:28:41.000Z</time>
      </trkpt>
      <trkpt lat="44.71958" lon="5.51626">
        <ele>1015.58</ele>
        <time>2019-06-01T10:28:49.000Z</time>
      </trkpt>
      <trkpt lat="44.71952" lon="5.51636">
        <ele>1015.41</ele>
        <time>2019-06-01T10:28:57.000Z</time>
      </trkpt>
      <trkpt lat="44.71946" lon="5.51647">
        <ele>1015.54</ele>
        <time>2019-06-01T10:29:04.000Z</time>
      </trkpt>
      <trkpt lat="44.71939" lon="5.51655">
        <ele>1015.64</ele>
        <time>2019-06-01T10:29:15.000Z</time>
      </trkpt>
      <trkpt lat="44.71927" lon="5.51672">
        <ele>1015.47</ele>
        <time>2019-06-01T10:29:20.000Z</time>
      </trkpt>
      <trkpt lat="44.7192" lon="5.51681">
        <ele>1015.79</ele>
        <time>2019-06-01T10:29:26.000Z</time>
      </trkpt>
      <trkpt lat="44.71912" lon="5.5169">
        <ele>1016.68</ele>
        <time>2019-06-01T10:29:36.000Z</time>
      </trkpt>
      <trkpt lat="44.71905" lon="5.51699">
        <ele>1017.63</ele>
        <time>2019-06-01T10:29:46.000Z</time>
      </trkpt>
      <trkpt lat="44.71897" lon="5.51706">
        <ele>1018.26</ele>
        <time>2019-06-01T10:29:53.000Z</time>
      </trkpt>
      <trkpt lat="44.71888" lon="5.51713">
        <ele>1018.62</ele>
        <time>2019-06-01T10:30:03.000Z</time>
      </trkpt>
      <trkpt lat="44.7188" lon="5.51722">
        <ele>1018.52</ele>
        <time>2019-06-01T10:30:09.000Z</time>
      </trkpt>
      <trkpt lat="44.71874" lon="5.51732">
        <ele>1018.74</ele>
        <time>2019-06-01T10:30:14.000Z</time>
      </trkpt>
      <trkpt lat="44.71867" lon="5.51742">
        <ele>1019.02</ele>
        <time>2019-06-01T10:30:19.000Z</time>
      </trkpt>
      <trkpt lat="44.7186" lon="5.5175">
        <ele>1019.55</ele>
        <time>2019-06-01T10:30:27.000Z</time>
      </trkpt>
      <trkpt lat="44.71852" lon="5.51757">
        <ele>1019.64</ele>
        <time>2019-06-01T10:30:32.000Z</time>
      </trkpt>
      <trkpt lat="44.71843" lon="5.51762">
        <ele>1019.3</ele>
        <time>2019-06-01T10:30:41.000Z</time>
      </trkpt>
      <trkpt lat="44.71836" lon="5.51771">
        <ele>1018.39</ele>
        <time>2019-06-01T10:30:51.000Z</time>
      </trkpt>
      <trkpt lat="44.71829" lon="5.51777">
        <ele>1017.86</ele>
        <time>2019-06-01T10:30:57.000Z</time>
      </trkpt>
      <trkpt lat="44.7182" lon="5.51785">
        <ele>1017.46</ele>
        <time>2019-06-01T10:31:02.000Z</time>
      </trkpt>
      <trkpt lat="44.71811" lon="5.51791">
        <ele>1016.65</ele>
        <time>2019-06-01T10:31:10.000Z</time>
      </trkpt>
      <trkpt lat="44.71802" lon="5.51798">
        <ele>1015.39</ele>
        <time>2019-06-01T10:31:17.000Z</time>
      </trkpt>
      <trkpt lat="44.71794" lon="5.51807">
        <ele>1014.33</ele>
        <time>2019-06-01T10:31:24.000Z</time>
      </trkpt>
      <trkpt lat="44.71786" lon="5.51816">
        <ele>1013.13</ele>
        <time>2019-06-01T10:31:35.000Z</time>
      </trkpt>
      <trkpt lat="44.71779" lon="5.51824">
        <ele>1012.1</ele>
        <time>2019-06-01T10:31:42.000Z</time>
      </trkpt>
      <trkpt lat="44.71771" lon="5.5183">
        <ele>1010.02</ele>
        <time>2019-06-01T10:31:51.000Z</time>
      </trkpt>
      <trkpt lat="44.71762" lon="5.51836">
        <ele>1008.49</ele>
        <time>2019-06-01T10:31:59.000Z</time>
      </trkpt>
      <trkpt lat="44.71753" lon="5.51842">
        <ele>1007.11</ele>
        <time>2019-06-01T10:32:07.000Z</time>
      </trkpt>
      <trkpt lat="44.71744" lon="5.51848">
        <ele>1006.02</ele>
        <time>2019-06-01T10:32:13.000Z</time>
      </trkpt>
      <trkpt lat="44.71734" lon="5.51853">
        <ele>1004.99</ele>
        <time>2019-06-01T10:32:22.000Z</time>
      </trkpt>
      <trkpt lat="44.71726" lon="5.5186">
        <ele>1004.43</ele>
        <time>2019-06-01T10:32:30.000Z</time>
      </trkpt>
      <trkpt lat="44.71719" lon="5.51869">
        <ele>1003.02</ele>
        <time>2019-06-01T10:33:11.000Z</time>
      </trkpt>
      <trkpt lat="44.7171" lon="5.51875">
        <ele>1003.05</ele>
        <time>2019-06-01T10:33:20.000Z</time>
      </trkpt>
      <trkpt lat="44.71701" lon="5.51877">
        <ele>1002.75</ele>
        <time>2019-06-01T10:33:25.000Z</time>
      </trkpt>
      <trkpt lat="44.7169" lon="5.5188">
        <ele>1002.42</ele>
        <time>2019-06-01T10:33:30.000Z</time>
      </trkpt>
      <trkpt lat="44.71683" lon="5.51888">
        <ele>1002.18</ele>
        <time>2019-06-01T10:33:36.000Z</time>
      </trkpt>
      <trkpt lat="44.71679" lon="5.519">
        <ele>1002.1</ele>
        <time>2019-06-01T10:33:45.000Z</time>
      </trkpt>
      <trkpt lat="44.71672" lon="5.5191">
        <ele>1001.24</ele>
        <time>2019-06-01T10:33:54.000Z</time>
      </trkpt>
      <trkpt lat="44.71662" lon="5.51911">
        <ele>999.68</ele>
        <time>2019-06-01T10:34:04.000Z</time>
      </trkpt>
      <trkpt lat="44.71649" lon="5.5191">
        <ele>998.42</ele>
        <time>2019-06-01T10:34:09.000Z</time>
      </trkpt>
      <trkpt lat="44.7164" lon="5.51908">
        <ele>997.06</ele>
        <time>2019-06-01T10:34:16.000Z</time>
      </trkpt>
      <trkpt lat="44.71628" lon="5.51906">
        <ele>996.34</ele>
        <time>2019-06-01T10:34:21.000Z</time>
      </trkpt>
      <trkpt lat="44.71621" lon="5.51915">
        <ele>995.92</ele>
        <time>2019-06-01T10:34:35.000Z</time>
      </trkpt>
      <trkpt lat="44.71614" lon="5.51923">
        <ele>995.68</ele>
        <time>2019-06-01T10:34:46.000Z</time>
      </trkpt>
      <trkpt lat="44.71604" lon="5.51925">
        <ele>995.07</ele>
        <time>2019-06-01T10:34:55.000Z</time>
      </trkpt>
      <trkpt lat="44.71595" lon="5.51928">
        <ele>994.38</ele>
        <time>2019-06-01T10:35:03.000Z</time>
      </trkpt>
      <trkpt lat="44.71584" lon="5.51936">
        <ele>993.58</ele>
        <time>2019-06-01T10:35:08.000Z</time>
      </trkpt>
      <trkpt lat="44.71572" lon="5.51949">
        <ele>993</ele>
        <time>2019-06-01T10:35:13.000Z</time>
      </trkpt>
      <trkpt lat="44.71572" lon="5.51964">
        <ele>991.17</ele>
        <time>2019-06-01T10:35:22.000Z</time>
      </trkpt>
      <trkpt lat="44.7157" lon="5.51978">
        <ele>990.59</ele>
        <time>2019-06-01T10:35:30.000Z</time>
      </trkpt>
      <trkpt lat="44.7157" lon="5.5199">
        <ele>991.14</ele>
        <time>2019-06-01T10:35:36.000Z</time>
      </trkpt>
      <trkpt lat="44.71567" lon="5.52003">
        <ele>991.9</ele>
        <time>2019-06-01T10:35:43.000Z</time>
      </trkpt>
      <trkpt lat="44.71562" lon="5.52016">
        <ele>992.84</ele>
        <time>2019-06-01T10:35:52.000Z</time>
      </trkpt>
      <trkpt lat="44.71557" lon="5.52028">
        <ele>993.13</ele>
        <time>2019-06-01T10:35:59.000Z</time>
      </trkpt>
      <trkpt lat="44.71553" lon="5.5204">
        <ele>993.1</ele>
        <time>2019-06-01T10:36:10.999Z</time>
      </trkpt>
      <trkpt lat="44.71545" lon="5.52048">
        <ele>992.67</ele>
        <time>2019-06-01T10:36:18.999Z</time>
      </trkpt>
      <trkpt lat="44.71538" lon="5.52057">
        <ele>991.69</ele>
        <time>2019-06-01T10:36:26.999Z</time>
      </trkpt>
      <trkpt lat="44.71533" lon="5.52067">
        <ele>991.14</ele>
        <time>2019-06-01T10:36:33.999Z</time>
      </trkpt>
      <trkpt lat="44.71526" lon="5.52078">
        <ele>990.47</ele>
        <time>2019-06-01T10:36:39.999Z</time>
      </trkpt>
      <trkpt lat="44.71518" lon="5.52086">
        <ele>989.84</ele>
        <time>2019-06-01T10:36:45.999Z</time>
      </trkpt>
      <trkpt lat="44.71511" lon="5.52094">
        <ele>989.77</ele>
        <time>2019-06-01T10:36:51.999Z</time>
      </trkpt>
      <trkpt lat="44.71504" lon="5.52103">
        <ele>989.8</ele>
        <time>2019-06-01T10:36:57.999Z</time>
      </trkpt>
      <trkpt lat="44.71496" lon="5.5211">
        <ele>989.78</ele>
        <time>2019-06-01T10:37:03.999Z</time>
      </trkpt>
      <trkpt lat="44.71488" lon="5.52116">
        <ele>988.99</ele>
        <time>2019-06-01T10:37:11.999Z</time>
      </trkpt>
      <trkpt lat="44.71479" lon="5.52121">
        <ele>988.02</ele>
        <time>2019-06-01T10:37:18.999Z</time>
      </trkpt>
      <trkpt lat="44.71469" lon="5.52127">
        <ele>987.32</ele>
        <time>2019-06-01T10:37:29.999Z</time>
      </trkpt>
      <trkpt lat="44.7146" lon="5.52131">
        <ele>986.84</ele>
        <time>2019-06-01T10:37:35.999Z</time>
      </trkpt>
      <trkpt lat="44.71451" lon="5.52135">
        <ele>987.44</ele>
        <time>2019-06-01T10:37:47.999Z</time>
      </trkpt>
      <trkpt lat="44.71441" lon="5.52135">
        <ele>986.63</ele>
        <time>2019-06-01T10:37:56.999Z</time>
      </trkpt>
      <trkpt lat="44.71431" lon="5.52132">
        <ele>985.2</ele>
        <time>2019-06-01T10:38:04.999Z</time>
      </trkpt>
      <trkpt lat="44.71422" lon="5.52132">
        <ele>983.87</ele>
        <time>2019-06-01T10:38:19.999Z</time>
      </trkpt>
      <trkpt lat="44.71412" lon="5.52129">
        <ele>982.78</ele>
        <time>2019-06-01T10:38:27.999Z</time>
      </trkpt>
      <trkpt lat="44.71403" lon="5.52129">
        <ele>981.76</ele>
        <time>2019-06-01T10:38:35.999Z</time>
      </trkpt>
      <trkpt lat="44.71393" lon="5.52129">
        <ele>979.17</ele>
        <time>2019-06-01T10:38:51.999Z</time>
      </trkpt>
      <trkpt lat="44.71384" lon="5.52133">
        <ele>978.03</ele>
        <time>2019-06-01T10:39:00.999Z</time>
      </trkpt>
      <trkpt lat="44.71378" lon="5.52143">
        <ele>978.86</ele>
        <time>2019-06-01T10:39:09.999Z</time>
      </trkpt>
      <trkpt lat="44.71371" lon="5.52152">
        <ele>983.73</ele>
        <time>2019-06-01T10:39:33.999Z</time>
      </trkpt>
      <trkpt lat="44.71365" lon="5.52163">
        <ele>986.88</ele>
        <time>2019-06-01T10:39:44.999Z</time>
      </trkpt>
      <trkpt lat="44.71358" lon="5.52172">
        <ele>989.93</ele>
        <time>2019-06-01T10:39:53.999Z</time>
      </trkpt>
      <trkpt lat="44.71353" lon="5.52183">
        <ele>997.46</ele>
        <time>2019-06-01T10:40:14.999Z</time>
      </trkpt>
      <trkpt lat="44.71347" lon="5.52193">
        <ele>1001</ele>
        <time>2019-06-01T10:40:24.999Z</time>
      </trkpt>
      <trkpt lat="44.71338" lon="5.52192">
        <ele>1003.96</ele>
        <time>2019-06-01T10:40:33.999Z</time>
      </trkpt>
      <trkpt lat="44.71328" lon="5.52192">
        <ele>1005.96</ele>
        <time>2019-06-01T10:40:40.999Z</time>
      </trkpt>
      <trkpt lat="44.71319" lon="5.52189">
        <ele>1006.76</ele>
        <time>2019-06-01T10:40:48.999Z</time>
      </trkpt>
      <trkpt lat="44.71309" lon="5.52187">
        <ele>1006.76</ele>
        <time>2019-06-01T10:40:57.999Z</time>
      </trkpt>
      <trkpt lat="44.713" lon="5.52187">
        <ele>1006.16</ele>
        <time>2019-06-01T10:41:06.999Z</time>
      </trkpt>
      <trkpt lat="44.71292" lon="5.5218">
        <ele>1006.28</ele>
        <time>2019-06-01T10:41:29.999Z</time>
      </trkpt>
      <trkpt lat="44.71283" lon="5.52181">
        <ele>1006.46</ele>
        <time>2019-06-01T10:41:38.999Z</time>
      </trkpt>
      <trkpt lat="44.71274" lon="5.52186">
        <ele>1007.85</ele>
        <time>2019-06-01T10:41:55.999Z</time>
      </trkpt>
      <trkpt lat="44.71265" lon="5.5219">
        <ele>1009.24</ele>
        <time>2019-06-01T10:42:06.999Z</time>
      </trkpt>
      <trkpt lat="44.71256" lon="5.52187">
        <ele>1013.52</ele>
        <time>2019-06-01T10:42:26.999Z</time>
      </trkpt>
      <trkpt lat="44.71248" lon="5.5219">
        <ele>1015.25</ele>
        <time>2019-06-01T10:42:34.999Z</time>
      </trkpt>
      <trkpt lat="44.71238" lon="5.52189">
        <ele>1016.31</ele>
        <time>2019-06-01T10:42:41.999Z</time>
      </trkpt>
      <trkpt lat="44.71229" lon="5.52182">
        <ele>1017.39</ele>
        <time>2019-06-01T10:42:50.999Z</time>
      </trkpt>
      <trkpt lat="44.71221" lon="5.52177">
        <ele>1017.67</ele>
        <time>2019-06-01T10:42:59.999Z</time>
      </trkpt>
      <trkpt lat="44.71213" lon="5.52171">
        <ele>1018.09</ele>
        <time>2019-06-01T10:43:13.999Z</time>
      </trkpt>
      <trkpt lat="44.71205" lon="5.52163">
        <ele>1018.39</ele>
        <time>2019-06-01T10:43:27.999Z</time>
      </trkpt>
      <trkpt lat="44.71196" lon="5.5216">
        <ele>1018.74</ele>
        <time>2019-06-01T10:43:36.999Z</time>
      </trkpt>
      <trkpt lat="44.71187" lon="5.52158">
        <ele>1019.43</ele>
        <time>2019-06-01T10:43:48.999Z</time>
      </trkpt>
      <trkpt lat="44.71178" lon="5.52152">
        <ele>1020.09</ele>
        <time>2019-06-01T10:43:58.999Z</time>
      </trkpt>
      <trkpt lat="44.71173" lon="5.52142">
        <ele>1021.33</ele>
        <time>2019-06-01T10:44:11.999Z</time>
      </trkpt>
      <trkpt lat="44.71168" lon="5.52131">
        <ele>1021.89</ele>
        <time>2019-06-01T10:44:20.999Z</time>
      </trkpt>
      <trkpt lat="44.71164" lon="5.52116">
        <ele>1022.33</ele>
        <time>2019-06-01T10:44:29.999Z</time>
      </trkpt>
      <trkpt lat="44.7116" lon="5.52104">
        <ele>1023.47</ele>
        <time>2019-06-01T10:44:41.999Z</time>
      </trkpt>
      <trkpt lat="44.71156" lon="5.52092">
        <ele>1024.58</ele>
        <time>2019-06-01T10:44:49.999Z</time>
      </trkpt>
      <trkpt lat="44.71151" lon="5.5208">
        <ele>1025.18</ele>
        <time>2019-06-01T10:44:57.999Z</time>
      </trkpt>
      <trkpt lat="44.71148" lon="5.52068">
        <ele>1025.56</ele>
        <time>2019-06-01T10:45:04.999Z</time>
      </trkpt>
      <trkpt lat="44.71144" lon="5.52057">
        <ele>1026.22</ele>
        <time>2019-06-01T10:45:16.999Z</time>
      </trkpt>
      <trkpt lat="44.71139" lon="5.52046">
        <ele>1027.56</ele>
        <time>2019-06-01T10:45:24.999Z</time>
      </trkpt>
      <trkpt lat="44.71134" lon="5.52035">
        <ele>1028.98</ele>
        <time>2019-06-01T10:45:33.999Z</time>
      </trkpt>
      <trkpt lat="44.71128" lon="5.52024">
        <ele>1029.73</ele>
        <time>2019-06-01T10:45:43.999Z</time>
      </trkpt>
      <trkpt lat="44.71122" lon="5.52014">
        <ele>1030.12</ele>
        <time>2019-06-01T10:45:50.999Z</time>
      </trkpt>
      <trkpt lat="44.71116" lon="5.52004">
        <ele>1030.64</ele>
        <time>2019-06-01T10:45:57.999Z</time>
      </trkpt>
      <trkpt lat="44.71109" lon="5.51996">
        <ele>1031.84</ele>
        <time>2019-06-01T10:46:09.999Z</time>
      </trkpt>
      <trkpt lat="44.71103" lon="5.51986">
        <ele>1034.58</ele>
        <time>2019-06-01T10:46:25.999Z</time>
      </trkpt>
      <trkpt lat="44.71096" lon="5.51978">
        <ele>1036.55</ele>
        <time>2019-06-01T10:46:35.999Z</time>
      </trkpt>
      <trkpt lat="44.71087" lon="5.51972">
        <ele>1037.54</ele>
        <time>2019-06-01T10:46:43.999Z</time>
      </trkpt>
      <trkpt lat="44.7108" lon="5.51965">
        <ele>1040.18</ele>
        <time>2019-06-01T10:47:01.999Z</time>
      </trkpt>
      <trkpt lat="44.7107" lon="5.51961">
        <ele>1044.26</ele>
        <time>2019-06-01T10:47:17.999Z</time>
      </trkpt>
      <trkpt lat="44.71064" lon="5.51951">
        <ele>1048.47</ele>
        <time>2019-06-01T10:47:34.999Z</time>
      </trkpt>
      <trkpt lat="44.71059" lon="5.5194">
        <ele>1050.72</ele>
        <time>2019-06-01T10:47:44.999Z</time>
      </trkpt>
      <trkpt lat="44.71054" lon="5.51928">
        <ele>1053.07</ele>
        <time>2019-06-01T10:47:55.999Z</time>
      </trkpt>
      <trkpt lat="44.71047" lon="5.51919">
        <ele>1055.82</ele>
        <time>2019-06-01T10:48:07.999Z</time>
      </trkpt>
      <trkpt lat="44.71041" lon="5.51909">
        <ele>1057.86</ele>
        <time>2019-06-01T10:48:16.999Z</time>
      </trkpt>
      <trkpt lat="44.71034" lon="5.519">
        <ele>1059.9</ele>
        <time>2019-06-01T10:48:26.999Z</time>
      </trkpt>
      <trkpt lat="44.71026" lon="5.51894">
        <ele>1060.95</ele>
        <time>2019-06-01T10:48:37.999Z</time>
      </trkpt>
      <trkpt lat="44.71017" lon="5.5189">
        <ele>1063.7</ele>
        <time>2019-06-01T10:48:55.999Z</time>
      </trkpt>
      <trkpt lat="44.71007" lon="5.51887">
        <ele>1064.93</ele>
        <time>2019-06-01T10:49:06.999Z</time>
      </trkpt>
      <trkpt lat="44.70997" lon="5.51882">
        <ele>1065.7</ele>
        <time>2019-06-01T10:49:13.999Z</time>
      </trkpt>
      <trkpt lat="44.70988" lon="5.51879">
        <ele>1066.92</ele>
        <time>2019-06-01T10:49:22.999Z</time>
      </trkpt>
      <trkpt lat="44.70996" lon="5.51884">
        <ele>1086.48</ele>
        <time>2019-06-01T10:50:58.999Z</time>
      </trkpt>
      <trkpt lat="44.71001" lon="5.51872">
        <ele>1088.8</ele>
        <time>2019-06-01T10:53:36.999Z</time>
      </trkpt>
      <trkpt lat="44.71009" lon="5.51864">
        <ele>1076.55</ele>
        <time>2019-06-01T10:58:51.999Z</time>
      </trkpt>
      <trkpt lat="44.71" lon="5.5187">
        <ele>1075.9</ele>
        <time>2019-06-01T10:59:18.999Z</time>
      </trkpt>
      <trkpt lat="44.70991" lon="5.51869">
        <ele>1076.34</ele>
        <time>2019-06-01T10:59:25.999Z</time>
      </trkpt>
      <trkpt lat="44.70983" lon="5.51876">
        <ele>1076.98</ele>
        <time>2019-06-01T10:59:32.999Z</time>
      </trkpt>
      <trkpt lat="44.70973" lon="5.5188">
        <ele>1077.76</ele>
        <time>2019-06-01T10:59:42.999Z</time>
      </trkpt>
      <trkpt lat="44.70964" lon="5.5188">
        <ele>1079.88</ele>
        <time>2019-06-01T11:00:01.999Z</time>
      </trkpt>
      <trkpt lat="44.70956" lon="5.51874">
        <ele>1082.47</ele>
        <time>2019-06-01T11:00:17.999Z</time>
      </trkpt>
      <trkpt lat="44.70948" lon="5.51865">
        <ele>1084.51</ele>
        <time>2019-06-01T11:00:28.999Z</time>
      </trkpt>
      <trkpt lat="44.70939" lon="5.51859">
        <ele>1086.56</ele>
        <time>2019-06-01T11:00:39.999Z</time>
      </trkpt>
      <trkpt lat="44.70929" lon="5.51856">
        <ele>1088</ele>
        <time>2019-06-01T11:00:48.999Z</time>
      </trkpt>
      <trkpt lat="44.70921" lon="5.51851">
        <ele>1089.4</ele>
        <time>2019-06-01T11:00:56.999Z</time>
      </trkpt>
      <trkpt lat="44.70911" lon="5.51847">
        <ele>1090.98</ele>
        <time>2019-06-01T11:01:09.999Z</time>
      </trkpt>
      <trkpt lat="44.70903" lon="5.51845">
        <ele>1092.13</ele>
        <time>2019-06-01T11:01:18.999Z</time>
      </trkpt>
      <trkpt lat="44.70893" lon="5.51843">
        <ele>1093.16</ele>
        <time>2019-06-01T11:01:28.999Z</time>
      </trkpt>
      <trkpt lat="44.70884" lon="5.51842">
        <ele>1093.83</ele>
        <time>2019-06-01T11:01:37.999Z</time>
      </trkpt>
      <trkpt lat="44.70875" lon="5.51848">
        <ele>1094.75</ele>
        <time>2019-06-01T11:01:50.999Z</time>
      </trkpt>
      <trkpt lat="44.70867" lon="5.51856">
        <ele>1095.57</ele>
        <time>2019-06-01T11:02:01.999Z</time>
      </trkpt>
      <trkpt lat="44.70857" lon="5.5186">
        <ele>1096.33</ele>
        <time>2019-06-01T11:02:07.999Z</time>
      </trkpt>
      <trkpt lat="44.70848" lon="5.51864">
        <ele>1097.52</ele>
        <time>2019-06-01T11:02:17.999Z</time>
      </trkpt>
      <trkpt lat="44.70844" lon="5.51877">
        <ele>1098.47</ele>
        <time>2019-06-01T11:02:27.999Z</time>
      </trkpt>
      <trkpt lat="44.70836" lon="5.51884">
        <ele>1098.81</ele>
        <time>2019-06-01T11:02:35.999Z</time>
      </trkpt>
      <trkpt lat="44.70829" lon="5.51894">
        <ele>1098.93</ele>
        <time>2019-06-01T11:02:45.000Z</time>
      </trkpt>
      <trkpt lat="44.7082" lon="5.51898">
        <ele>1099.8</ele>
        <time>2019-06-01T11:02:54.000Z</time>
      </trkpt>
      <trkpt lat="44.70811" lon="5.51902">
        <ele>1102.32</ele>
        <time>2019-06-01T11:03:09.000Z</time>
      </trkpt>
      <trkpt lat="44.70803" lon="5.51906">
        <ele>1103.17</ele>
        <time>2019-06-01T11:03:19.000Z</time>
      </trkpt>
      <trkpt lat="44.70793" lon="5.51904">
        <ele>1103.89</ele>
        <time>2019-06-01T11:03:29.000Z</time>
      </trkpt>
      <trkpt lat="44.70783" lon="5.51909">
        <ele>1104.8</ele>
        <time>2019-06-01T11:03:37.000Z</time>
      </trkpt>
      <trkpt lat="44.70774" lon="5.5191">
        <ele>1105.28</ele>
        <time>2019-06-01T11:03:45.000Z</time>
      </trkpt>
      <trkpt lat="44.70765" lon="5.51914">
        <ele>1106.07</ele>
        <time>2019-06-01T11:03:53.000Z</time>
      </trkpt>
      <trkpt lat="44.70755" lon="5.51913">
        <ele>1106.42</ele>
        <time>2019-06-01T11:04:02.000Z</time>
      </trkpt>
      <trkpt lat="44.70746" lon="5.51907">
        <ele>1106.53</ele>
        <time>2019-06-01T11:04:14.000Z</time>
      </trkpt>
      <trkpt lat="44.70736" lon="5.51909">
        <ele>1106.5</ele>
        <time>2019-06-01T11:04:23.000Z</time>
      </trkpt>
      <trkpt lat="44.70727" lon="5.51912">
        <ele>1106.59</ele>
        <time>2019-06-01T11:04:31.000Z</time>
      </trkpt>
      <trkpt lat="44.70718" lon="5.51913">
        <ele>1106.76</ele>
        <time>2019-06-01T11:04:42.000Z</time>
      </trkpt>
      <trkpt lat="44.7071" lon="5.51905">
        <ele>1106.22</ele>
        <time>2019-06-01T11:04:53.000Z</time>
      </trkpt>
      <trkpt lat="44.70701" lon="5.51901">
        <ele>1104.93</ele>
        <time>2019-06-01T11:05:05.000Z</time>
      </trkpt>
      <trkpt lat="44.7071" lon="5.51902">
        <ele>1100.58</ele>
        <time>2019-06-01T11:05:21.000Z</time>
      </trkpt>
      <trkpt lat="44.70718" lon="5.5191">
        <ele>1095.15</ele>
        <time>2019-06-01T11:05:40.000Z</time>
      </trkpt>
      <trkpt lat="44.70723" lon="5.51922">
        <ele>1092.58</ele>
        <time>2019-06-01T11:05:48.000Z</time>
      </trkpt>
      <trkpt lat="44.7073" lon="5.51931">
        <ele>1090.26</ele>
        <time>2019-06-01T11:05:57.000Z</time>
      </trkpt>
      <trkpt lat="44.70738" lon="5.51938">
        <ele>1088.71</ele>
        <time>2019-06-01T11:06:04.000Z</time>
      </trkpt>
      <trkpt lat="44.70745" lon="5.51947">
        <ele>1087.34</ele>
        <time>2019-06-01T11:06:11.000Z</time>
      </trkpt>
      <trkpt lat="44.70751" lon="5.51958">
        <ele>1085.52</ele>
        <time>2019-06-01T11:06:18.000Z</time>
      </trkpt>
      <trkpt lat="44.70759" lon="5.51966">
        <ele>1083.46</ele>
        <time>2019-06-01T11:06:26.000Z</time>
      </trkpt>
      <trkpt lat="44.70766" lon="5.51974">
        <ele>1082.07</ele>
        <time>2019-06-01T11:06:32.000Z</time>
      </trkpt>
      <trkpt lat="44.70774" lon="5.51979">
        <ele>1080.2</ele>
        <time>2019-06-01T11:06:39.000Z</time>
      </trkpt>
      <trkpt lat="44.70783" lon="5.51984">
        <ele>1077.17</ele>
        <time>2019-06-01T11:06:52.000Z</time>
      </trkpt>
      <trkpt lat="44.70791" lon="5.51994">
        <ele>1075.92</ele>
        <time>2019-06-01T11:06:57.000Z</time>
      </trkpt>
      <trkpt lat="44.70782" lon="5.51993">
        <ele>1071.95</ele>
        <time>2019-06-01T11:07:16.000Z</time>
      </trkpt>
      <trkpt lat="44.70773" lon="5.51991">
        <ele>1070.35</ele>
        <time>2019-06-01T11:07:21.000Z</time>
      </trkpt>
      <trkpt lat="44.70765" lon="5.51985">
        <ele>1068.69</ele>
        <time>2019-06-01T11:07:29.000Z</time>
      </trkpt>
      <trkpt lat="44.70758" lon="5.51977">
        <ele>1067.44</ele>
        <time>2019-06-01T11:07:36.000Z</time>
      </trkpt>
      <trkpt lat="44.70749" lon="5.51972">
        <ele>1065.95</ele>
        <time>2019-06-01T11:07:44.000Z</time>
      </trkpt>
      <trkpt lat="44.7074" lon="5.51967">
        <ele>1064.3</ele>
        <time>2019-06-01T11:07:53.000Z</time>
      </trkpt>
      <trkpt lat="44.70731" lon="5.51964">
        <ele>1062.35</ele>
        <time>2019-06-01T11:08:01.000Z</time>
      </trkpt>
      <trkpt lat="44.70721" lon="5.5196">
        <ele>1061.45</ele>
        <time>2019-06-01T11:08:06.000Z</time>
      </trkpt>
      <trkpt lat="44.70711" lon="5.51959">
        <ele>1059.72</ele>
        <time>2019-06-01T11:08:13.000Z</time>
      </trkpt>
      <trkpt lat="44.70701" lon="5.51958">
        <ele>1058.67</ele>
        <time>2019-06-01T11:08:20.000Z</time>
      </trkpt>
      <trkpt lat="44.70692" lon="5.51953">
        <ele>1057.94</ele>
        <time>2019-06-01T11:08:25.000Z</time>
      </trkpt>
      <trkpt lat="44.70682" lon="5.5195">
        <ele>1056.06</ele>
        <time>2019-06-01T11:08:32.000Z</time>
      </trkpt>
      <trkpt lat="44.70673" lon="5.51948">
        <ele>1054.29</ele>
        <time>2019-06-01T11:08:42.000Z</time>
      </trkpt>
      <trkpt lat="44.70664" lon="5.51945">
        <ele>1053.24</ele>
        <time>2019-06-01T11:08:50.000Z</time>
      </trkpt>
      <trkpt lat="44.70655" lon="5.5195">
        <ele>1053.7</ele>
        <time>2019-06-01T11:09:02.000Z</time>
      </trkpt>
      <trkpt lat="44.70645" lon="5.51955">
        <ele>1054.05</ele>
        <time>2019-06-01T11:09:08.000Z</time>
      </trkpt>
      <trkpt lat="44.70637" lon="5.51961">
        <ele>1054.53</ele>
        <time>2019-06-01T11:09:13.000Z</time>
      </trkpt>
      <trkpt lat="44.70628" lon="5.51966">
        <ele>1054.87</ele>
        <time>2019-06-01T11:09:19.000Z</time>
      </trkpt>
      <trkpt lat="44.70619" lon="5.51964">
        <ele>1054.51</ele>
        <time>2019-06-01T11:09:27.000Z</time>
      </trkpt>
      <trkpt lat="44.7061" lon="5.51965">
        <ele>1054.06</ele>
        <time>2019-06-01T11:09:35.000Z</time>
      </trkpt>
      <trkpt lat="44.70601" lon="5.51964">
        <ele>1053.35</ele>
        <time>2019-06-01T11:09:44.000Z</time>
      </trkpt>
      <trkpt lat="44.7059" lon="5.51961">
        <ele>1052.4</ele>
        <time>2019-06-01T11:09:51.000Z</time>
      </trkpt>
      <trkpt lat="44.70583" lon="5.51954">
        <ele>1049.94</ele>
        <time>2019-06-01T11:10:00.000Z</time>
      </trkpt>
      <trkpt lat="44.70575" lon="5.51946">
        <ele>1047.75</ele>
        <time>2019-06-01T11:10:06.000Z</time>
      </trkpt>
      <trkpt lat="44.70568" lon="5.51938">
        <ele>1044.74</ele>
        <time>2019-06-01T11:10:14.000Z</time>
      </trkpt>
      <trkpt lat="44.7056" lon="5.51929">
        <ele>1042.14</ele>
        <time>2019-06-01T11:10:23.000Z</time>
      </trkpt>
      <trkpt lat="44.70554" lon="5.51919">
        <ele>1040.14</ele>
        <time>2019-06-01T11:10:31.000Z</time>
      </trkpt>
      <trkpt lat="44.70547" lon="5.51909">
        <ele>1036.94</ele>
        <time>2019-06-01T11:10:43.000Z</time>
      </trkpt>
      <trkpt lat="44.70545" lon="5.51896">
        <ele>1034.66</ele>
        <time>2019-06-01T11:10:52.000Z</time>
      </trkpt>
      <trkpt lat="44.70546" lon="5.51884">
        <ele>1030.92</ele>
        <time>2019-06-01T11:10:59.000Z</time>
      </trkpt>
      <trkpt lat="44.7055" lon="5.51869">
        <ele>1027.59</ele>
        <time>2019-06-01T11:11:04.000Z</time>
      </trkpt>
      <trkpt lat="44.70554" lon="5.51857">
        <ele>1024.19</ele>
        <time>2019-06-01T11:11:11.000Z</time>
      </trkpt>
      <trkpt lat="44.70548" lon="5.51848">
        <ele>1022.16</ele>
        <time>2019-06-01T11:11:26.000Z</time>
      </trkpt>
      <trkpt lat="44.70539" lon="5.51845">
        <ele>1025.38</ele>
        <time>2019-06-01T11:11:35.000Z</time>
      </trkpt>
      <trkpt lat="44.70529" lon="5.5184">
        <ele>1028.35</ele>
        <time>2019-06-01T11:11:44.000Z</time>
      </trkpt>
      <trkpt lat="44.70522" lon="5.51831">
        <ele>1030.07</ele>
        <time>2019-06-01T11:11:51.000Z</time>
      </trkpt>
      <trkpt lat="44.70516" lon="5.51821">
        <ele>1030.9</ele>
        <time>2019-06-01T11:11:59.000Z</time>
      </trkpt>
      <trkpt lat="44.70512" lon="5.51807">
        <ele>1030.73</ele>
        <time>2019-06-01T11:12:07.000Z</time>
      </trkpt>
      <trkpt lat="44.7051" lon="5.51793">
        <ele>1030.34</ele>
        <time>2019-06-01T11:12:16.000Z</time>
      </trkpt>
      <trkpt lat="44.70509" lon="5.51779">
        <ele>1028.9</ele>
        <time>2019-06-01T11:12:23.000Z</time>
      </trkpt>
      <trkpt lat="44.70507" lon="5.51766">
        <ele>1028.56</ele>
        <time>2019-06-01T11:12:30.000Z</time>
      </trkpt>
      <trkpt lat="44.70505" lon="5.51751">
        <ele>1026.96</ele>
        <time>2019-06-01T11:12:37.000Z</time>
      </trkpt>
      <trkpt lat="44.705" lon="5.51739">
        <ele>1025.72</ele>
        <time>2019-06-01T11:12:46.000Z</time>
      </trkpt>
      <trkpt lat="44.70492" lon="5.51734">
        <ele>1025.54</ele>
        <time>2019-06-01T11:12:52.000Z</time>
      </trkpt>
      <trkpt lat="44.70483" lon="5.51729">
        <ele>1025.98</ele>
        <time>2019-06-01T11:12:59.000Z</time>
      </trkpt>
      <trkpt lat="44.70474" lon="5.51726">
        <ele>1026.85</ele>
        <time>2019-06-01T11:13:06.000Z</time>
      </trkpt>
      <trkpt lat="44.70464" lon="5.51721">
        <ele>1027.32</ele>
        <time>2019-06-01T11:13:13.000Z</time>
      </trkpt>
      <trkpt lat="44.70457" lon="5.51713">
        <ele>1026.7</ele>
        <time>2019-06-01T11:13:21.000Z</time>
      </trkpt>
      <trkpt lat="44.70449" lon="5.51706">
        <ele>1026.47</ele>
        <time>2019-06-01T11:13:28.000Z</time>
      </trkpt>
      <trkpt lat="44.7044" lon="5.51699">
        <ele>1026.75</ele>
        <time>2019-06-01T11:13:35.000Z</time>
      </trkpt>
      <trkpt lat="44.70432" lon="5.51692">
        <ele>1027.69</ele>
        <time>2019-06-01T11:13:43.000Z</time>
      </trkpt>
      <trkpt lat="44.70424" lon="5.51686">
        <ele>1029.5</ele>
        <time>2019-06-01T11:13:51.000Z</time>
      </trkpt>
      <trkpt lat="44.70414" lon="5.51683">
        <ele>1031.95</ele>
        <time>2019-06-01T11:14:00.000Z</time>
      </trkpt>
      <trkpt lat="44.70405" lon="5.51678">
        <ele>1033.39</ele>
        <time>2019-06-01T11:14:07.000Z</time>
      </trkpt>
      <trkpt lat="44.70394" lon="5.51676">
        <ele>1034.94</ele>
        <time>2019-06-01T11:14:14.000Z</time>
      </trkpt>
      <trkpt lat="44.70385" lon="5.51674">
        <ele>1037.18</ele>
        <time>2019-06-01T11:14:22.000Z</time>
      </trkpt>
      <trkpt lat="44.70375" lon="5.51674">
        <ele>1039.67</ele>
        <time>2019-06-01T11:14:31.000Z</time>
      </trkpt>
      <trkpt lat="44.70365" lon="5.51672">
        <ele>1041.37</ele>
        <time>2019-06-01T11:14:38.000Z</time>
      </trkpt>
      <trkpt lat="44.70356" lon="5.51668">
        <ele>1043.03</ele>
        <time>2019-06-01T11:14:46.000Z</time>
      </trkpt>
      <trkpt lat="44.70346" lon="5.51665">
        <ele>1045.85</ele>
        <time>2019-06-01T11:14:57.000Z</time>
      </trkpt>
      <trkpt lat="44.70338" lon="5.51662">
        <ele>1048.18</ele>
        <time>2019-06-01T11:15:06.000Z</time>
      </trkpt>
      <trkpt lat="44.70327" lon="5.51659">
        <ele>1049.66</ele>
        <time>2019-06-01T11:15:12.000Z</time>
      </trkpt>
      <trkpt lat="44.70319" lon="5.51653">
        <ele>1050.26</ele>
        <time>2019-06-01T11:15:20.000Z</time>
      </trkpt>
      <trkpt lat="44.70314" lon="5.51641">
        <ele>1049.34</ele>
        <time>2019-06-01T11:15:30.000Z</time>
      </trkpt>
      <trkpt lat="44.70314" lon="5.51628">
        <ele>1047.69</ele>
        <time>2019-06-01T11:15:37.000Z</time>
      </trkpt>
      <trkpt lat="44.70312" lon="5.51614">
        <ele>1043.91</ele>
        <time>2019-06-01T11:15:44.000Z</time>
      </trkpt>
      <trkpt lat="44.70312" lon="5.51601">
        <ele>1040.63</ele>
        <time>2019-06-01T11:15:49.000Z</time>
      </trkpt>
      <trkpt lat="44.70313" lon="5.51588">
        <ele>1037.46</ele>
        <time>2019-06-01T11:15:56.000Z</time>
      </trkpt>
      <trkpt lat="44.70314" lon="5.51575">
        <ele>1035.08</ele>
        <time>2019-06-01T11:16:03.000Z</time>
      </trkpt>
      <trkpt lat="44.70313" lon="5.5156">
        <ele>1032.94</ele>
        <time>2019-06-01T11:16:09.000Z</time>
      </trkpt>
      <trkpt lat="44.70312" lon="5.51546">
        <ele>1031.52</ele>
        <time>2019-06-01T11:16:16.000Z</time>
      </trkpt>
      <trkpt lat="44.70306" lon="5.51536">
        <ele>1029.87</ele>
        <time>2019-06-01T11:16:25.000Z</time>
      </trkpt>
      <trkpt lat="44.70296" lon="5.5153">
        <ele>1029.48</ele>
        <time>2019-06-01T11:16:34.000Z</time>
      </trkpt>
      <trkpt lat="44.70288" lon="5.51528">
        <ele>1030.62</ele>
        <time>2019-06-01T11:16:40.000Z</time>
      </trkpt>
      <trkpt lat="44.70275" lon="5.51528">
        <ele>1031.61</ele>
        <time>2019-06-01T11:16:45.000Z</time>
      </trkpt>
      <trkpt lat="44.70265" lon="5.51527">
        <ele>1032.87</ele>
        <time>2019-06-01T11:16:52.000Z</time>
      </trkpt>
      <trkpt lat="44.70255" lon="5.51524">
        <ele>1033.47</ele>
        <time>2019-06-01T11:16:59.000Z</time>
      </trkpt>
      <trkpt lat="44.70246" lon="5.51518">
        <ele>1034.28</ele>
        <time>2019-06-01T11:17:08.000Z</time>
      </trkpt>
      <trkpt lat="44.70237" lon="5.51511">
        <ele>1034.78</ele>
        <time>2019-06-01T11:17:16.000Z</time>
      </trkpt>
      <trkpt lat="44.70227" lon="5.51508">
        <ele>1035.91</ele>
        <time>2019-06-01T11:17:23.000Z</time>
      </trkpt>
      <trkpt lat="44.70218" lon="5.51508">
        <ele>1037.35</ele>
        <time>2019-06-01T11:17:28.000Z</time>
      </trkpt>
      <trkpt lat="44.70208" lon="5.51508">
        <ele>1039.1</ele>
        <time>2019-06-01T11:17:33.000Z</time>
      </trkpt>
      <trkpt lat="44.70199" lon="5.51507">
        <ele>1041.25</ele>
        <time>2019-06-01T11:17:40.000Z</time>
      </trkpt>
      <trkpt lat="44.70191" lon="5.51499">
        <ele>1043.82</ele>
        <time>2019-06-01T11:17:50.000Z</time>
      </trkpt>
      <trkpt lat="44.70188" lon="5.51487">
        <ele>1044.19</ele>
        <time>2019-06-01T11:17:56.000Z</time>
      </trkpt>
      <trkpt lat="44.70188" lon="5.51469">
        <ele>1043.88</ele>
        <time>2019-06-01T11:18:01.000Z</time>
      </trkpt>
      <trkpt lat="44.7019" lon="5.51453">
        <ele>1043.24</ele>
        <time>2019-06-01T11:18:06.000Z</time>
      </trkpt>
      <trkpt lat="44.70188" lon="5.5144">
        <ele>1042.19</ele>
        <time>2019-06-01T11:18:13.000Z</time>
      </trkpt>
      <trkpt lat="44.70184" lon="5.51428">
        <ele>1041.06</ele>
        <time>2019-06-01T11:18:23.000Z</time>
      </trkpt>
      <trkpt lat="44.70179" lon="5.51418">
        <ele>1041.48</ele>
        <time>2019-06-01T11:18:31.000Z</time>
      </trkpt>
      <trkpt lat="44.7017" lon="5.51412">
        <ele>1043.67</ele>
        <time>2019-06-01T11:18:40.000Z</time>
      </trkpt>
      <trkpt lat="44.7016" lon="5.51412">
        <ele>1045.91</ele>
        <time>2019-06-01T11:18:46.000Z</time>
      </trkpt>
      <trkpt lat="44.70151" lon="5.51414">
        <ele>1048.41</ele>
        <time>2019-06-01T11:18:51.000Z</time>
      </trkpt>
      <trkpt lat="44.70141" lon="5.51413">
        <ele>1051.12</ele>
        <time>2019-06-01T11:18:58.000Z</time>
      </trkpt>
      <trkpt lat="44.70132" lon="5.51413">
        <ele>1054.45</ele>
        <time>2019-06-01T11:19:06.000Z</time>
      </trkpt>
      <trkpt lat="44.70123" lon="5.51407">
        <ele>1058.67</ele>
        <time>2019-06-01T11:19:17.000Z</time>
      </trkpt>
      <trkpt lat="44.70116" lon="5.51398">
        <ele>1060.66</ele>
        <time>2019-06-01T11:19:26.000Z</time>
      </trkpt>
      <trkpt lat="44.70113" lon="5.51385">
        <ele>1062.02</ele>
        <time>2019-06-01T11:19:36.000Z</time>
      </trkpt>
      <trkpt lat="44.70107" lon="5.51375">
        <ele>1061.71</ele>
        <time>2019-06-01T11:19:43.000Z</time>
      </trkpt>
      <trkpt lat="44.70102" lon="5.51365">
        <ele>1060.7</ele>
        <time>2019-06-01T11:19:50.000Z</time>
      </trkpt>
      <trkpt lat="44.70098" lon="5.51352">
        <ele>1059.59</ele>
        <time>2019-06-01T11:19:57.000Z</time>
      </trkpt>
      <trkpt lat="44.70093" lon="5.51341">
        <ele>1059.02</ele>
        <time>2019-06-01T11:20:06.000Z</time>
      </trkpt>
      <trkpt lat="44.70084" lon="5.51337">
        <ele>1060.49</ele>
        <time>2019-06-01T11:20:16.000Z</time>
      </trkpt>
      <trkpt lat="44.70077" lon="5.51327">
        <ele>1061.31</ele>
        <time>2019-06-01T11:20:26.000Z</time>
      </trkpt>
      <trkpt lat="44.70073" lon="5.51315">
        <ele>1060.74</ele>
        <time>2019-06-01T11:20:33.000Z</time>
      </trkpt>
      <trkpt lat="44.70066" lon="5.51306">
        <ele>1061.23</ele>
        <time>2019-06-01T11:20:41.000Z</time>
      </trkpt>
      <trkpt lat="44.70057" lon="5.513">
        <ele>1062.27</ele>
        <time>2019-06-01T11:20:49.000Z</time>
      </trkpt>
      <trkpt lat="44.7005" lon="5.51291">
        <ele>1062.38</ele>
        <time>2019-06-01T11:20:56.000Z</time>
      </trkpt>
      <trkpt lat="44.70041" lon="5.51296">
        <ele>1064.67</ele>
        <time>2019-06-01T11:21:06.000Z</time>
      </trkpt>
      <trkpt lat="44.70033" lon="5.51287">
        <ele>1066.68</ele>
        <time>2019-06-01T11:21:13.000Z</time>
      </trkpt>
      <trkpt lat="44.70023" lon="5.51281">
        <ele>1067.66</ele>
        <time>2019-06-01T11:21:19.000Z</time>
      </trkpt>
      <trkpt lat="44.7002" lon="5.51268">
        <ele>1068.08</ele>
        <time>2019-06-01T11:21:28.000Z</time>
      </trkpt>
      <trkpt lat="44.70016" lon="5.51256">
        <ele>1067.22</ele>
        <time>2019-06-01T11:21:35.000Z</time>
      </trkpt>
      <trkpt lat="44.70007" lon="5.5125">
        <ele>1068.27</ele>
        <time>2019-06-01T11:21:45.000Z</time>
      </trkpt>
      <trkpt lat="44.69998" lon="5.51246">
        <ele>1068.76</ele>
        <time>2019-06-01T11:21:53.000Z</time>
      </trkpt>
      <trkpt lat="44.69989" lon="5.51249">
        <ele>1071.69</ele>
        <time>2019-06-01T11:22:21.000Z</time>
      </trkpt>
      <trkpt lat="44.6998" lon="5.51242">
        <ele>1074.13</ele>
        <time>2019-06-01T11:22:30.000Z</time>
      </trkpt>
      <trkpt lat="44.69971" lon="5.51239">
        <ele>1076.22</ele>
        <time>2019-06-01T11:22:39.000Z</time>
      </trkpt>
      <trkpt lat="44.69963" lon="5.5123">
        <ele>1078.79</ele>
        <time>2019-06-01T11:22:49.000Z</time>
      </trkpt>
      <trkpt lat="44.69954" lon="5.51225">
        <ele>1080.75</ele>
        <time>2019-06-01T11:22:57.000Z</time>
      </trkpt>
      <trkpt lat="44.69944" lon="5.5122">
        <ele>1082.63</ele>
        <time>2019-06-01T11:23:05.000Z</time>
      </trkpt>
      <trkpt lat="44.69935" lon="5.51215">
        <ele>1084.69</ele>
        <time>2019-06-01T11:23:15.000Z</time>
      </trkpt>
      <trkpt lat="44.69927" lon="5.51208">
        <ele>1086.14</ele>
        <time>2019-06-01T11:23:24.000Z</time>
      </trkpt>
      <trkpt lat="44.69919" lon="5.51201">
        <ele>1087.26</ele>
        <time>2019-06-01T11:23:33.000Z</time>
      </trkpt>
      <trkpt lat="44.69911" lon="5.51194">
        <ele>1088.45</ele>
        <time>2019-06-01T11:23:43.000Z</time>
      </trkpt>
      <trkpt lat="44.69905" lon="5.51184">
        <ele>1089.1</ele>
        <time>2019-06-01T11:23:50.000Z</time>
      </trkpt>
      <trkpt lat="44.69898" lon="5.51174">
        <ele>1089.58</ele>
        <time>2019-06-01T11:23:56.000Z</time>
      </trkpt>
      <trkpt lat="44.69899" lon="5.51161">
        <ele>1091.03</ele>
        <time>2019-06-01T11:24:27.000Z</time>
      </trkpt>
      <trkpt lat="44.69909" lon="5.51155">
        <ele>1091.07</ele>
        <time>2019-06-01T11:24:33.000Z</time>
      </trkpt>
      <trkpt lat="44.69915" lon="5.51145">
        <ele>1091.21</ele>
        <time>2019-06-01T11:24:39.000Z</time>
      </trkpt>
      <trkpt lat="44.69923" lon="5.51136">
        <ele>1091.15</ele>
        <time>2019-06-01T11:24:48.000Z</time>
      </trkpt>
      <trkpt lat="44.6993" lon="5.51127">
        <ele>1091.01</ele>
        <time>2019-06-01T11:24:54.000Z</time>
      </trkpt>
      <trkpt lat="44.69934" lon="5.51114">
        <ele>1090.26</ele>
        <time>2019-06-01T11:25:04.000Z</time>
      </trkpt>
      <trkpt lat="44.69938" lon="5.51103">
        <ele>1089.11</ele>
        <time>2019-06-01T11:25:10.000Z</time>
      </trkpt>
      <trkpt lat="44.69942" lon="5.51091">
        <ele>1088.17</ele>
        <time>2019-06-01T11:25:15.000Z</time>
      </trkpt>
      <trkpt lat="44.69948" lon="5.51079">
        <ele>1086.32</ele>
        <time>2019-06-01T11:25:24.000Z</time>
      </trkpt>
      <trkpt lat="44.6994" lon="5.51073">
        <ele>1083.13</ele>
        <time>2019-06-01T11:25:38.000Z</time>
      </trkpt>
      <trkpt lat="44.69934" lon="5.51064">
        <ele>1076.86</ele>
        <time>2019-06-01T11:25:57.000Z</time>
      </trkpt>
      <trkpt lat="44.69939" lon="5.51053">
        <ele>1075.33</ele>
        <time>2019-06-01T11:26:05.000Z</time>
      </trkpt>
      <trkpt lat="44.69942" lon="5.51041">
        <ele>1073.58</ele>
        <time>2019-06-01T11:26:16.000Z</time>
      </trkpt>
      <trkpt lat="44.69944" lon="5.51029">
        <ele>1070.57</ele>
        <time>2019-06-01T11:26:29.000Z</time>
      </trkpt>
      <trkpt lat="44.69948" lon="5.51017">
        <ele>1068.04</ele>
        <time>2019-06-01T11:26:38.000Z</time>
      </trkpt>
      <trkpt lat="44.69949" lon="5.51003">
        <ele>1064.61</ele>
        <time>2019-06-01T11:26:50.000Z</time>
      </trkpt>
      <trkpt lat="44.6994" lon="5.51002">
        <ele>1059.51</ele>
        <time>2019-06-01T11:27:09.000Z</time>
      </trkpt>
      <trkpt lat="44.69932" lon="5.51008">
        <ele>1057.21</ele>
        <time>2019-06-01T11:27:18.000Z</time>
      </trkpt>
      <trkpt lat="44.69923" lon="5.51008">
        <ele>1051.94</ele>
        <time>2019-06-01T11:27:32.000Z</time>
      </trkpt>
      <trkpt lat="44.69916" lon="5.51">
        <ele>1047.8</ele>
        <time>2019-06-01T11:27:46.000Z</time>
      </trkpt>
      <trkpt lat="44.69919" lon="5.50988">
        <ele>1045.82</ele>
        <time>2019-06-01T11:27:54.000Z</time>
      </trkpt>
      <trkpt lat="44.69924" lon="5.50977">
        <ele>1043.97</ele>
        <time>2019-06-01T11:28:04.000Z</time>
      </trkpt>
      <trkpt lat="44.69928" lon="5.50964">
        <ele>1041.53</ele>
        <time>2019-06-01T11:28:17.000Z</time>
      </trkpt>
      <trkpt lat="44.69919" lon="5.50963">
        <ele>1035.63</ele>
        <time>2019-06-01T11:28:36.000Z</time>
      </trkpt>
      <trkpt lat="44.6991" lon="5.50967">
        <ele>1032.23</ele>
        <time>2019-06-01T11:28:45.000Z</time>
      </trkpt>
      <trkpt lat="44.69901" lon="5.50972">
        <ele>1026.08</ele>
        <time>2019-06-01T11:29:00.000Z</time>
      </trkpt>
      <trkpt lat="44.69892" lon="5.50977">
        <ele>1023.16</ele>
        <time>2019-06-01T11:29:08.000Z</time>
      </trkpt>
      <trkpt lat="44.69888" lon="5.50965">
        <ele>1019.07</ele>
        <time>2019-06-01T11:29:23.000Z</time>
      </trkpt>
      <trkpt lat="44.69889" lon="5.50952">
        <ele>1016.79</ele>
        <time>2019-06-01T11:29:29.999Z</time>
      </trkpt>
      <trkpt lat="44.69887" lon="5.50939">
        <ele>1014.17</ele>
        <time>2019-06-01T11:29:38.999Z</time>
      </trkpt>
      <trkpt lat="44.6988" lon="5.50947">
        <ele>1009.74</ele>
        <time>2019-06-01T11:29:54.999Z</time>
      </trkpt>
      <trkpt lat="44.69872" lon="5.50942">
        <ele>1003.42</ele>
        <time>2019-06-01T11:30:17.999Z</time>
      </trkpt>
      <trkpt lat="44.6987" lon="5.50929">
        <ele>1001.37</ele>
        <time>2019-06-01T11:30:26.999Z</time>
      </trkpt>
      <trkpt lat="44.69861" lon="5.50934">
        <ele>996.26</ele>
        <time>2019-06-01T11:30:42.999Z</time>
      </trkpt>
      <trkpt lat="44.69855" lon="5.50924">
        <ele>993.76</ele>
        <time>2019-06-01T11:30:56.999Z</time>
      </trkpt>
      <trkpt lat="44.69845" lon="5.50924">
        <ele>989</ele>
        <time>2019-06-01T11:31:14.999Z</time>
      </trkpt>
      <trkpt lat="44.69844" lon="5.50911">
        <ele>983.26</ele>
        <time>2019-06-01T11:31:33.999Z</time>
      </trkpt>
      <trkpt lat="44.69845" lon="5.50898">
        <ele>980.79</ele>
        <time>2019-06-01T11:31:41.999Z</time>
      </trkpt>
      <trkpt lat="44.69849" lon="5.50885">
        <ele>977.75</ele>
        <time>2019-06-01T11:31:52.999Z</time>
      </trkpt>
      <trkpt lat="44.69848" lon="5.50872">
        <ele>970.5</ele>
        <time>2019-06-01T11:32:16.999Z</time>
      </trkpt>
      <trkpt lat="44.69848" lon="5.50859">
        <ele>963.75</ele>
        <time>2019-06-01T11:32:42.999Z</time>
      </trkpt>
      <trkpt lat="44.69849" lon="5.50846">
        <ele>961.58</ele>
        <time>2019-06-01T11:32:51.999Z</time>
      </trkpt>
      <trkpt lat="44.69854" lon="5.50835">
        <ele>960.1</ele>
        <time>2019-06-01T11:32:59.999Z</time>
      </trkpt>
      <trkpt lat="44.6986" lon="5.50825">
        <ele>958.43</ele>
        <time>2019-06-01T11:33:07.999Z</time>
      </trkpt>
      <trkpt lat="44.69866" lon="5.50815">
        <ele>957.16</ele>
        <time>2019-06-01T11:33:14.999Z</time>
      </trkpt>
      <trkpt lat="44.69871" lon="5.50803">
        <ele>955.75</ele>
        <time>2019-06-01T11:33:23.999Z</time>
      </trkpt>
      <trkpt lat="44.69873" lon="5.50791">
        <ele>951.11</ele>
        <time>2019-06-01T11:33:44.999Z</time>
      </trkpt>
      <trkpt lat="44.69874" lon="5.50775">
        <ele>948.75</ele>
        <time>2019-06-01T11:33:56.999Z</time>
      </trkpt>
      <trkpt lat="44.69877" lon="5.50763">
        <ele>947.36</ele>
        <time>2019-06-01T11:34:01.999Z</time>
      </trkpt>
      <trkpt lat="44.6988" lon="5.50751">
        <ele>945.66</ele>
        <time>2019-06-01T11:34:08.999Z</time>
      </trkpt>
      <trkpt lat="44.69888" lon="5.50742">
        <ele>943.16</ele>
        <time>2019-06-01T11:34:18.999Z</time>
      </trkpt>
      <trkpt lat="44.69895" lon="5.50733">
        <ele>941.89</ele>
        <time>2019-06-01T11:34:24.999Z</time>
      </trkpt>
      <trkpt lat="44.69892" lon="5.50721">
        <ele>938.94</ele>
        <time>2019-06-01T11:34:37.999Z</time>
      </trkpt>
      <trkpt lat="44.69888" lon="5.50708">
        <ele>937.83</ele>
        <time>2019-06-01T11:34:43.999Z</time>
      </trkpt>
      <trkpt lat="44.6988" lon="5.50698">
        <ele>935.54</ele>
        <time>2019-06-01T11:34:55.999Z</time>
      </trkpt>
      <trkpt lat="44.69872" lon="5.5069">
        <ele>934.81</ele>
        <time>2019-06-01T11:35:00.999Z</time>
      </trkpt>
      <trkpt lat="44.69865" lon="5.50682">
        <ele>934.4</ele>
        <time>2019-06-01T11:35:06.999Z</time>
      </trkpt>
      <trkpt lat="44.6986" lon="5.5067">
        <ele>933.68</ele>
        <time>2019-06-01T11:35:13.999Z</time>
      </trkpt>
      <trkpt lat="44.69859" lon="5.50653">
        <ele>932.61</ele>
        <time>2019-06-01T11:35:18.999Z</time>
      </trkpt>
      <trkpt lat="44.69855" lon="5.50641">
        <ele>931.37</ele>
        <time>2019-06-01T11:35:25.999Z</time>
      </trkpt>
      <trkpt lat="44.6985" lon="5.50629">
        <ele>930.13</ele>
        <time>2019-06-01T11:35:31.999Z</time>
      </trkpt>
      <trkpt lat="44.69844" lon="5.50618">
        <ele>929.1</ele>
        <time>2019-06-01T11:35:37.999Z</time>
      </trkpt>
      <trkpt lat="44.69841" lon="5.50606">
        <ele>927.4</ele>
        <time>2019-06-01T11:35:44.999Z</time>
      </trkpt>
      <trkpt lat="44.69837" lon="5.50594">
        <ele>925.33</ele>
        <time>2019-06-01T11:35:52.999Z</time>
      </trkpt>
      <trkpt lat="44.69832" lon="5.50583">
        <ele>923.69</ele>
        <time>2019-06-01T11:36:01.999Z</time>
      </trkpt>
      <trkpt lat="44.69826" lon="5.50568">
        <ele>922.75</ele>
        <time>2019-06-01T11:36:07.999Z</time>
      </trkpt>
      <trkpt lat="44.69823" lon="5.50556">
        <ele>922.13</ele>
        <time>2019-06-01T11:36:12.999Z</time>
      </trkpt>
      <trkpt lat="44.69818" lon="5.50543">
        <ele>921.53</ele>
        <time>2019-06-01T11:36:18.999Z</time>
      </trkpt>
      <trkpt lat="44.69811" lon="5.50532">
        <ele>921.21</ele>
        <time>2019-06-01T11:36:24.999Z</time>
      </trkpt>
      <trkpt lat="44.69806" lon="5.50522">
        <ele>921.16</ele>
        <time>2019-06-01T11:36:32.999Z</time>
      </trkpt>
      <trkpt lat="44.69799" lon="5.50513">
        <ele>920.46</ele>
        <time>2019-06-01T11:36:40.999Z</time>
      </trkpt>
      <trkpt lat="44.69791" lon="5.50506">
        <ele>919.68</ele>
        <time>2019-06-01T11:36:47.999Z</time>
      </trkpt>
      <trkpt lat="44.69782" lon="5.505">
        <ele>918.63</ele>
        <time>2019-06-01T11:36:55.999Z</time>
      </trkpt>
      <trkpt lat="44.69776" lon="5.50491">
        <ele>917.41</ele>
        <time>2019-06-01T11:37:02.999Z</time>
      </trkpt>
      <trkpt lat="44.69773" lon="5.50478">
        <ele>916.54</ele>
        <time>2019-06-01T11:37:10.999Z</time>
      </trkpt>
      <trkpt lat="44.69768" lon="5.50466">
        <ele>915.41</ele>
        <time>2019-06-01T11:37:18.999Z</time>
      </trkpt>
      <trkpt lat="44.69765" lon="5.50454">
        <ele>914.14</ele>
        <time>2019-06-01T11:37:27.999Z</time>
      </trkpt>
      <trkpt lat="44.69774" lon="5.50449">
        <ele>912.27</ele>
        <time>2019-06-01T11:37:37.999Z</time>
      </trkpt>
      <trkpt lat="44.69783" lon="5.50447">
        <ele>909.87</ele>
        <time>2019-06-01T11:37:54.999Z</time>
      </trkpt>
      <trkpt lat="44.69792" lon="5.5045">
        <ele>908.64</ele>
        <time>2019-06-01T11:38:01.999Z</time>
      </trkpt>
      <trkpt lat="44.69802" lon="5.5045">
        <ele>907.59</ele>
        <time>2019-06-01T11:38:08.999Z</time>
      </trkpt>
      <trkpt lat="44.69809" lon="5.50442">
        <ele>906.63</ele>
        <time>2019-06-01T11:38:16.999Z</time>
      </trkpt>
      <trkpt lat="44.698" lon="5.50437">
        <ele>904.33</ele>
        <time>2019-06-01T11:38:33.999Z</time>
      </trkpt>
      <trkpt lat="44.69792" lon="5.5043">
        <ele>901.93</ele>
        <time>2019-06-01T11:38:46.999Z</time>
      </trkpt>
      <trkpt lat="44.69784" lon="5.50423">
        <ele>899.75</ele>
        <time>2019-06-01T11:38:57.999Z</time>
      </trkpt>
      <trkpt lat="44.6979" lon="5.50413">
        <ele>894.07</ele>
        <time>2019-06-01T11:39:17.999Z</time>
      </trkpt>
      <trkpt lat="44.69788" lon="5.504">
        <ele>885.97</ele>
        <time>2019-06-01T11:39:42.999Z</time>
      </trkpt>
      <trkpt lat="44.69779" lon="5.50394">
        <ele>883.28</ele>
        <time>2019-06-01T11:39:50.999Z</time>
      </trkpt>
      <trkpt lat="44.69772" lon="5.50387">
        <ele>881.01</ele>
        <time>2019-06-01T11:39:57.999Z</time>
      </trkpt>
      <trkpt lat="44.69764" lon="5.50378">
        <ele>878.86</ele>
        <time>2019-06-01T11:40:05.999Z</time>
      </trkpt>
      <trkpt lat="44.69756" lon="5.50369">
        <ele>877.65</ele>
        <time>2019-06-01T11:40:10.999Z</time>
      </trkpt>
      <trkpt lat="44.69749" lon="5.50359">
        <ele>876.79</ele>
        <time>2019-06-01T11:40:15.999Z</time>
      </trkpt>
      <trkpt lat="44.69741" lon="5.50349">
        <ele>876.09</ele>
        <time>2019-06-01T11:40:21.999Z</time>
      </trkpt>
      <trkpt lat="44.69734" lon="5.50339">
        <ele>875.27</ele>
        <time>2019-06-01T11:40:28.999Z</time>
      </trkpt>
      <trkpt lat="44.69729" lon="5.50329">
        <ele>874.63</ele>
        <time>2019-06-01T11:40:35.999Z</time>
      </trkpt>
      <trkpt lat="44.69722" lon="5.50318">
        <ele>873.71</ele>
        <time>2019-06-01T11:40:43.999Z</time>
      </trkpt>
      <trkpt lat="44.69716" lon="5.50308">
        <ele>872.93</ele>
        <time>2019-06-01T11:40:50.999Z</time>
      </trkpt>
      <trkpt lat="44.69709" lon="5.50299">
        <ele>870.85</ele>
        <time>2019-06-01T11:41:02.999Z</time>
      </trkpt>
      <trkpt lat="44.69701" lon="5.50293">
        <ele>869.54</ele>
        <time>2019-06-01T11:41:09.999Z</time>
      </trkpt>
      <trkpt lat="44.69694" lon="5.50285">
        <ele>868.02</ele>
        <time>2019-06-01T11:41:16.999Z</time>
      </trkpt>
      <trkpt lat="44.69686" lon="5.50277">
        <ele>865.71</ele>
        <time>2019-06-01T11:41:24.999Z</time>
      </trkpt>
      <trkpt lat="44.69678" lon="5.50269">
        <ele>863.76</ele>
        <time>2019-06-01T11:41:32.999Z</time>
      </trkpt>
      <trkpt lat="44.69671" lon="5.5026">
        <ele>861.49</ele>
        <time>2019-06-01T11:41:41.999Z</time>
      </trkpt>
      <trkpt lat="44.69666" lon="5.50249">
        <ele>859.3</ele>
        <time>2019-06-01T11:41:50.999Z</time>
      </trkpt>
      <trkpt lat="44.69656" lon="5.50246">
        <ele>856.54</ele>
        <time>2019-06-01T11:41:59.999Z</time>
      </trkpt>
      <trkpt lat="44.69647" lon="5.5024">
        <ele>853.77</ele>
        <time>2019-06-01T11:42:06.999Z</time>
      </trkpt>
      <trkpt lat="44.6964" lon="5.50233">
        <ele>851.18</ele>
        <time>2019-06-01T11:42:15.999Z</time>
      </trkpt>
      <trkpt lat="44.69647" lon="5.50224">
        <ele>843.89</ele>
        <time>2019-06-01T11:42:46.999Z</time>
      </trkpt>
      <trkpt lat="44.69655" lon="5.50218">
        <ele>842.51</ele>
        <time>2019-06-01T11:42:53.999Z</time>
      </trkpt>
      <trkpt lat="44.69665" lon="5.50221">
        <ele>840.88</ele>
        <time>2019-06-01T11:43:01.999Z</time>
      </trkpt>
      <trkpt lat="44.69675" lon="5.50223">
        <ele>840.19</ele>
        <time>2019-06-01T11:43:09.999Z</time>
      </trkpt>
      <trkpt lat="44.69684" lon="5.50224">
        <ele>839.68</ele>
        <time>2019-06-01T11:43:18.999Z</time>
      </trkpt>
      <trkpt lat="44.69693" lon="5.5023">
        <ele>839.4</ele>
        <time>2019-06-01T11:43:27.999Z</time>
      </trkpt>
      <trkpt lat="44.69703" lon="5.50227">
        <ele>837.12</ele>
        <time>2019-06-01T11:43:35.999Z</time>
      </trkpt>
      <trkpt lat="44.69711" lon="5.50232">
        <ele>834.9</ele>
        <time>2019-06-01T11:43:42.999Z</time>
      </trkpt>
      <trkpt lat="44.69719" lon="5.50238">
        <ele>832.5</ele>
        <time>2019-06-01T11:43:48.999Z</time>
      </trkpt>
      <trkpt lat="44.6973" lon="5.5024">
        <ele>828.8</ele>
        <time>2019-06-01T11:44:02.999Z</time>
      </trkpt>
      <trkpt lat="44.6974" lon="5.50238">
        <ele>827.68</ele>
        <time>2019-06-01T11:44:07.999Z</time>
      </trkpt>
      <trkpt lat="44.69749" lon="5.50241">
        <ele>826.39</ele>
        <time>2019-06-01T11:44:26.999Z</time>
      </trkpt>
      <trkpt lat="44.69758" lon="5.50244">
        <ele>825.67</ele>
        <time>2019-06-01T11:44:34.999Z</time>
      </trkpt>
      <trkpt lat="44.69767" lon="5.50251">
        <ele>825.31</ele>
        <time>2019-06-01T11:44:40.999Z</time>
      </trkpt>
      <trkpt lat="44.69776" lon="5.50254">
        <ele>824.72</ele>
        <time>2019-06-01T11:44:49.999Z</time>
      </trkpt>
      <trkpt lat="44.69778" lon="5.5024">
        <ele>822.51</ele>
        <time>2019-06-01T11:45:01.999Z</time>
      </trkpt>
      <trkpt lat="44.6978" lon="5.50227">
        <ele>820.14</ele>
        <time>2019-06-01T11:45:10.999Z</time>
      </trkpt>
      <trkpt lat="44.69786" lon="5.50217">
        <ele>818.28</ele>
        <time>2019-06-01T11:45:17.999Z</time>
      </trkpt>
      <trkpt lat="44.69795" lon="5.50216">
        <ele>815.83</ele>
        <time>2019-06-01T11:45:25.999Z</time>
      </trkpt>
      <trkpt lat="44.69794" lon="5.50202">
        <ele>811.58</ele>
        <time>2019-06-01T11:45:42.999Z</time>
      </trkpt>
      <trkpt lat="44.6979" lon="5.50189">
        <ele>809.88</ele>
        <time>2019-06-01T11:45:48.999Z</time>
      </trkpt>
      <trkpt lat="44.69787" lon="5.50177">
        <ele>808.48</ele>
        <time>2019-06-01T11:45:53.999Z</time>
      </trkpt>
      <trkpt lat="44.69784" lon="5.50162">
        <ele>806.54</ele>
        <time>2019-06-01T11:46:01.999Z</time>
      </trkpt>
      <trkpt lat="44.69781" lon="5.50149">
        <ele>805.44</ele>
        <time>2019-06-01T11:46:08.999Z</time>
      </trkpt>
      <trkpt lat="44.69778" lon="5.50135">
        <ele>804.51</ele>
        <time>2019-06-01T11:46:14.999Z</time>
      </trkpt>
      <trkpt lat="44.69779" lon="5.50122">
        <ele>803.45</ele>
        <time>2019-06-01T11:46:20.999Z</time>
      </trkpt>
      <trkpt lat="44.69781" lon="5.50108">
        <ele>802.16</ele>
        <time>2019-06-01T11:46:27.999Z</time>
      </trkpt>
      <trkpt lat="44.69782" lon="5.50094">
        <ele>800.51</ele>
        <time>2019-06-01T11:46:33.999Z</time>
      </trkpt>
      <trkpt lat="44.69782" lon="5.50081">
        <ele>797.82</ele>
        <time>2019-06-01T11:46:41.999Z</time>
      </trkpt>
      <trkpt lat="44.69779" lon="5.50068">
        <ele>795.89</ele>
        <time>2019-06-01T11:46:48.999Z</time>
      </trkpt>
      <trkpt lat="44.69775" lon="5.50055">
        <ele>793.73</ele>
        <time>2019-06-01T11:46:54.999Z</time>
      </trkpt>
      <trkpt lat="44.6977" lon="5.50043">
        <ele>791.33</ele>
        <time>2019-06-01T11:47:04.999Z</time>
      </trkpt>
      <trkpt lat="44.69764" lon="5.50033">
        <ele>789.43</ele>
        <time>2019-06-01T11:47:11.999Z</time>
      </trkpt>
      <trkpt lat="44.69761" lon="5.50021">
        <ele>787.98</ele>
        <time>2019-06-01T11:47:16.999Z</time>
      </trkpt>
      <trkpt lat="44.69759" lon="5.50008">
        <ele>786.67</ele>
        <time>2019-06-01T11:47:22.999Z</time>
      </trkpt>
      <trkpt lat="44.69753" lon="5.49999">
        <ele>784.51</ele>
        <time>2019-06-01T11:47:32.999Z</time>
      </trkpt>
      <trkpt lat="44.69746" lon="5.49989">
        <ele>783.85</ele>
        <time>2019-06-01T11:47:38.999Z</time>
      </trkpt>
      <trkpt lat="44.69739" lon="5.49979">
        <ele>782.07</ele>
        <time>2019-06-01T11:47:46.999Z</time>
      </trkpt>
      <trkpt lat="44.69736" lon="5.49967">
        <ele>780.6</ele>
        <time>2019-06-01T11:47:55.999Z</time>
      </trkpt>
      <trkpt lat="44.69731" lon="5.49956">
        <ele>779.55</ele>
        <time>2019-06-01T11:48:05.999Z</time>
      </trkpt>
      <trkpt lat="44.69727" lon="5.49943">
        <ele>778.42</ele>
        <time>2019-06-01T11:48:12.999Z</time>
      </trkpt>
      <trkpt lat="44.69721" lon="5.49934">
        <ele>777.46</ele>
        <time>2019-06-01T11:48:20.999Z</time>
      </trkpt>
      <trkpt lat="44.69714" lon="5.49925">
        <ele>776.2</ele>
        <time>2019-06-01T11:48:33.999Z</time>
      </trkpt>
      <trkpt lat="44.69711" lon="5.49913">
        <ele>775.94</ele>
        <time>2019-06-01T11:48:44.999Z</time>
      </trkpt>
      <trkpt lat="44.69707" lon="5.49901">
        <ele>775.65</ele>
        <time>2019-06-01T11:48:57.999Z</time>
      </trkpt>
      <trkpt lat="44.69703" lon="5.49889">
        <ele>774.14</ele>
        <time>2019-06-01T11:49:09.999Z</time>
      </trkpt>
      <trkpt lat="44.69701" lon="5.49876">
        <ele>772.64</ele>
        <time>2019-06-01T11:49:22.999Z</time>
      </trkpt>
      <trkpt lat="44.69698" lon="5.49863">
        <ele>771.66</ele>
        <time>2019-06-01T11:49:32.999Z</time>
      </trkpt>
      <trkpt lat="44.697" lon="5.49851">
        <ele>769.53</ele>
        <time>2019-06-01T11:49:41.999Z</time>
      </trkpt>
      <trkpt lat="44.69701" lon="5.49837">
        <ele>766.47</ele>
        <time>2019-06-01T11:49:53.999Z</time>
      </trkpt>
      <trkpt lat="44.69698" lon="5.49824">
        <ele>764.97</ele>
        <time>2019-06-01T11:50:00.999Z</time>
      </trkpt>
      <trkpt lat="44.69693" lon="5.49814">
        <ele>764.72</ele>
        <time>2019-06-01T11:50:06.999Z</time>
      </trkpt>
      <trkpt lat="44.69687" lon="5.49804">
        <ele>763.39</ele>
        <time>2019-06-01T11:50:20.999Z</time>
      </trkpt>
      <trkpt lat="44.6968" lon="5.49794">
        <ele>761.1</ele>
        <time>2019-06-01T11:50:29.999Z</time>
      </trkpt>
      <trkpt lat="44.69675" lon="5.49782">
        <ele>758.61</ele>
        <time>2019-06-01T11:50:36.999Z</time>
      </trkpt>
      <trkpt lat="44.69672" lon="5.49767">
        <ele>756.27</ele>
        <time>2019-06-01T11:50:42.999Z</time>
      </trkpt>
      <trkpt lat="44.69666" lon="5.49756">
        <ele>754.16</ele>
        <time>2019-06-01T11:50:48.999Z</time>
      </trkpt>
      <trkpt lat="44.6966" lon="5.49745">
        <ele>743.98</ele>
        <time>2019-06-01T11:51:12.999Z</time>
      </trkpt>
      <trkpt lat="44.69657" lon="5.49733">
        <ele>736.25</ele>
        <time>2019-06-01T11:51:30.999Z</time>
      </trkpt>
      <trkpt lat="44.69651" lon="5.49721">
        <ele>732.82</ele>
        <time>2019-06-01T11:51:38.999Z</time>
      </trkpt>
      <trkpt lat="44.69649" lon="5.49708">
        <ele>729.74</ele>
        <time>2019-06-01T11:51:44.999Z</time>
      </trkpt>
      <trkpt lat="44.69646" lon="5.49695">
        <ele>726.47</ele>
        <time>2019-06-01T11:51:52.999Z</time>
      </trkpt>
      <trkpt lat="44.69645" lon="5.49682">
        <ele>723.36</ele>
        <time>2019-06-01T11:52:01.999Z</time>
      </trkpt>
      <trkpt lat="44.69643" lon="5.4967">
        <ele>721.17</ele>
        <time>2019-06-01T11:52:09.999Z</time>
      </trkpt>
      <trkpt lat="44.69642" lon="5.49657">
        <ele>718.47</ele>
        <time>2019-06-01T11:52:19.999Z</time>
      </trkpt>
      <trkpt lat="44.69637" lon="5.49645">
        <ele>715.67</ele>
        <time>2019-06-01T11:52:27.999Z</time>
      </trkpt>
      <trkpt lat="44.69629" lon="5.49637">
        <ele>713.19</ele>
        <time>2019-06-01T11:52:35.999Z</time>
      </trkpt>
      <trkpt lat="44.69619" lon="5.4964">
        <ele>711.03</ele>
        <time>2019-06-01T11:52:44.999Z</time>
      </trkpt>
      <trkpt lat="44.69613" lon="5.49629">
        <ele>705.03</ele>
        <time>2019-06-01T11:53:06.999Z</time>
      </trkpt>
      <trkpt lat="44.6961" lon="5.49617">
        <ele>703.81</ele>
        <time>2019-06-01T11:53:11.999Z</time>
      </trkpt>
      <trkpt lat="44.69608" lon="5.49604">
        <ele>701.32</ele>
        <time>2019-06-01T11:53:22.999Z</time>
      </trkpt>
      <trkpt lat="44.69608" lon="5.49591">
        <ele>698.27</ele>
        <time>2019-06-01T11:53:33.999Z</time>
      </trkpt>
      <trkpt lat="44.69606" lon="5.49578">
        <ele>696.18</ele>
        <time>2019-06-01T11:53:44.999Z</time>
      </trkpt>
      <trkpt lat="44.69605" lon="5.49563">
        <ele>693.97</ele>
        <time>2019-06-01T11:53:52.999Z</time>
      </trkpt>
      <trkpt lat="44.69602" lon="5.49548">
        <ele>692.57</ele>
        <time>2019-06-01T11:53:57.999Z</time>
      </trkpt>
      <trkpt lat="44.69595" lon="5.49539">
        <ele>688.72</ele>
        <time>2019-06-01T11:54:12.999Z</time>
      </trkpt>
      <trkpt lat="44.69587" lon="5.49532">
        <ele>685.84</ele>
        <time>2019-06-01T11:54:23.999Z</time>
      </trkpt>
      <trkpt lat="44.6958" lon="5.49521">
        <ele>683.89</ele>
        <time>2019-06-01T11:54:32.999Z</time>
      </trkpt>
      <trkpt lat="44.69575" lon="5.49511">
        <ele>681.66</ele>
        <time>2019-06-01T11:54:41.999Z</time>
      </trkpt>
      <trkpt lat="44.69568" lon="5.49502">
        <ele>679.32</ele>
        <time>2019-06-01T11:54:49.999Z</time>
      </trkpt>
      <trkpt lat="44.69566" lon="5.49489">
        <ele>676.85</ele>
        <time>2019-06-01T11:55:02.999Z</time>
      </trkpt>
      <trkpt lat="44.69561" lon="5.49479">
        <ele>674.47</ele>
        <time>2019-06-01T11:55:15.999Z</time>
      </trkpt>
      <trkpt lat="44.69559" lon="5.49466">
        <ele>671.11</ele>
        <time>2019-06-01T11:55:28.999Z</time>
      </trkpt>
      <trkpt lat="44.69568" lon="5.4946">
        <ele>667.31</ele>
        <time>2019-06-01T11:55:41.999Z</time>
      </trkpt>
      <trkpt lat="44.69575" lon="5.49454">
        <ele>665.73</ele>
        <time>2019-06-01T11:55:50.999Z</time>
      </trkpt>
      <trkpt lat="44.69572" lon="5.4944">
        <ele>662.62</ele>
        <time>2019-06-01T11:56:03.999Z</time>
      </trkpt>
      <trkpt lat="44.69567" lon="5.49429">
        <ele>661.15</ele>
        <time>2019-06-01T11:56:12.999Z</time>
      </trkpt>
      <trkpt lat="44.69575" lon="5.49421">
        <ele>657.36</ele>
        <time>2019-06-01T11:56:31.000Z</time>
      </trkpt>
      <trkpt lat="44.69573" lon="5.49409">
        <ele>654.21</ele>
        <time>2019-06-01T11:57:27.000Z</time>
      </trkpt>
      <trkpt lat="44.69567" lon="5.49398">
        <ele>653.22</ele>
        <time>2019-06-01T11:57:42.000Z</time>
      </trkpt>
      <trkpt lat="44.69557" lon="5.49395">
        <ele>652.04</ele>
        <time>2019-06-01T11:57:52.000Z</time>
      </trkpt>
      <trkpt lat="44.69565" lon="5.49385">
        <ele>648.9</ele>
        <time>2019-06-01T11:58:14.000Z</time>
      </trkpt>
      <trkpt lat="44.69574" lon="5.49383">
        <ele>648.12</ele>
        <time>2019-06-01T11:58:20.000Z</time>
      </trkpt>
      <trkpt lat="44.69587" lon="5.49379">
        <ele>647.06</ele>
        <time>2019-06-01T11:58:25.000Z</time>
      </trkpt>
      <trkpt lat="44.69582" lon="5.49367">
        <ele>642.79</ele>
        <time>2019-06-01T11:58:41.000Z</time>
      </trkpt>
      <trkpt lat="44.69591" lon="5.49367">
        <ele>639.42</ele>
        <time>2019-06-01T11:58:55.000Z</time>
      </trkpt>
      <trkpt lat="44.696" lon="5.49366">
        <ele>638.23</ele>
        <time>2019-06-01T11:59:02.000Z</time>
      </trkpt>
      <trkpt lat="44.6961" lon="5.49368">
        <ele>636.93</ele>
        <time>2019-06-01T11:59:10.000Z</time>
      </trkpt>
      <trkpt lat="44.69619" lon="5.49365">
        <ele>636.59</ele>
        <time>2019-06-01T11:59:25.000Z</time>
      </trkpt>
      <trkpt lat="44.69628" lon="5.49362">
        <ele>635.7</ele>
        <time>2019-06-01T11:59:41.000Z</time>
      </trkpt>
      <trkpt lat="44.69637" lon="5.49365">
        <ele>635.31</ele>
        <time>2019-06-01T11:59:49.000Z</time>
      </trkpt>
      <trkpt lat="44.69648" lon="5.49369">
        <ele>634.85</ele>
        <time>2019-06-01T11:59:56.000Z</time>
      </trkpt>
      <trkpt lat="44.69657" lon="5.49364">
        <ele>634.08</ele>
        <time>2019-06-01T12:00:02.000Z</time>
      </trkpt>
      <trkpt lat="44.69665" lon="5.49357">
        <ele>631.39</ele>
        <time>2019-06-01T12:00:12.000Z</time>
      </trkpt>
      <trkpt lat="44.69674" lon="5.4935">
        <ele>627.9</ele>
        <time>2019-06-01T12:00:18.000Z</time>
      </trkpt>
      <trkpt lat="44.69682" lon="5.49343">
        <ele>622.3</ele>
        <time>2019-06-01T12:00:28.000Z</time>
      </trkpt>
      <trkpt lat="44.69688" lon="5.49331">
        <ele>618.25</ele>
        <time>2019-06-01T12:00:36.000Z</time>
      </trkpt>
      <trkpt lat="44.69685" lon="5.49319">
        <ele>612.57</ele>
        <time>2019-06-01T12:00:50.000Z</time>
      </trkpt>
      <trkpt lat="44.69679" lon="5.49309">
        <ele>610.85</ele>
        <time>2019-06-01T12:00:57.000Z</time>
      </trkpt>
      <trkpt lat="44.69675" lon="5.49297">
        <ele>607.74</ele>
        <time>2019-06-01T12:01:06.000Z</time>
      </trkpt>
      <trkpt lat="44.69673" lon="5.49282">
        <ele>605.58</ele>
        <time>2019-06-01T12:01:11.000Z</time>
      </trkpt>
      <trkpt lat="44.69669" lon="5.4927">
        <ele>602.6</ele>
        <time>2019-06-01T12:01:18.000Z</time>
      </trkpt>
      <trkpt lat="44.69664" lon="5.49258">
        <ele>600.24</ele>
        <time>2019-06-01T12:01:25.000Z</time>
      </trkpt>
      <trkpt lat="44.6966" lon="5.49247">
        <ele>598.13</ele>
        <time>2019-06-01T12:01:32.000Z</time>
      </trkpt>
      <trkpt lat="44.69658" lon="5.49233">
        <ele>596.15</ele>
        <time>2019-06-01T12:01:39.000Z</time>
      </trkpt>
      <trkpt lat="44.69658" lon="5.49221">
        <ele>594.41</ele>
        <time>2019-06-01T12:01:46.000Z</time>
      </trkpt>
      <trkpt lat="44.6966" lon="5.49208">
        <ele>592.48</ele>
        <time>2019-06-01T12:01:53.000Z</time>
      </trkpt>
      <trkpt lat="44.69662" lon="5.49194">
        <ele>591.06</ele>
        <time>2019-06-01T12:02:00.000Z</time>
      </trkpt>
      <trkpt lat="44.69661" lon="5.4918">
        <ele>590.4</ele>
        <time>2019-06-01T12:02:06.000Z</time>
      </trkpt>
      <trkpt lat="44.69659" lon="5.49167">
        <ele>589.61</ele>
        <time>2019-06-01T12:02:13.000Z</time>
      </trkpt>
      <trkpt lat="44.69656" lon="5.49155">
        <ele>588.69</ele>
        <time>2019-06-01T12:02:21.000Z</time>
      </trkpt>
      <trkpt lat="44.69651" lon="5.49143">
        <ele>588.22</ele>
        <time>2019-06-01T12:02:30.000Z</time>
      </trkpt>
      <trkpt lat="44.69646" lon="5.49131">
        <ele>589.47</ele>
        <time>2019-06-01T12:02:39.000Z</time>
      </trkpt>
      <trkpt lat="44.69638" lon="5.49122">
        <ele>590.81</ele>
        <time>2019-06-01T12:02:46.000Z</time>
      </trkpt>
      <trkpt lat="44.6963" lon="5.49115">
        <ele>592.36</ele>
        <time>2019-06-01T12:02:52.000Z</time>
      </trkpt>
      <trkpt lat="44.69622" lon="5.49106">
        <ele>594.32</ele>
        <time>2019-06-01T12:02:59.000Z</time>
      </trkpt>
      <trkpt lat="44.69615" lon="5.49098">
        <ele>595.8</ele>
        <time>2019-06-01T12:03:06.000Z</time>
      </trkpt>
      <trkpt lat="44.69609" lon="5.49088">
        <ele>596.88</ele>
        <time>2019-06-01T12:03:13.000Z</time>
      </trkpt>
      <trkpt lat="44.69605" lon="5.49076">
        <ele>597.29</ele>
        <time>2019-06-01T12:03:20.000Z</time>
      </trkpt>
      <trkpt lat="44.69599" lon="5.49065">
        <ele>597.44</ele>
        <time>2019-06-01T12:03:28.000Z</time>
      </trkpt>
      <trkpt lat="44.6959" lon="5.4906">
        <ele>596.65</ele>
        <time>2019-06-01T12:03:41.000Z</time>
      </trkpt>
      <trkpt lat="44.6958" lon="5.4906">
        <ele>595.29</ele>
        <time>2019-06-01T12:03:51.000Z</time>
      </trkpt>
      <trkpt lat="44.6957" lon="5.49059">
        <ele>594.21</ele>
        <time>2019-06-01T12:04:01.000Z</time>
      </trkpt>
      <trkpt lat="44.6956" lon="5.49053">
        <ele>594.38</ele>
        <time>2019-06-01T12:04:06.000Z</time>
      </trkpt>
      <trkpt lat="44.69552" lon="5.49044">
        <ele>595.29</ele>
        <time>2019-06-01T12:04:14.000Z</time>
      </trkpt>
      <trkpt lat="44.69546" lon="5.49034">
        <ele>595.74</ele>
        <time>2019-06-01T12:04:21.000Z</time>
      </trkpt>
      <trkpt lat="44.6954" lon="5.49022">
        <ele>595.05</ele>
        <time>2019-06-01T12:04:31.000Z</time>
      </trkpt>
      <trkpt lat="44.69534" lon="5.49011">
        <ele>593.99</ele>
        <time>2019-06-01T12:04:38.000Z</time>
      </trkpt>
      <trkpt lat="44.69528" lon="5.49001">
        <ele>592.97</ele>
        <time>2019-06-01T12:04:45.000Z</time>
      </trkpt>
      <trkpt lat="44.69523" lon="5.48988">
        <ele>591.36</ele>
        <time>2019-06-01T12:04:53.000Z</time>
      </trkpt>
      <trkpt lat="44.6952" lon="5.48975">
        <ele>588.56</ele>
        <time>2019-06-01T12:05:01.000Z</time>
      </trkpt>
      <trkpt lat="44.6952" lon="5.48962">
        <ele>586.01</ele>
        <time>2019-06-01T12:05:08.000Z</time>
      </trkpt>
      <trkpt lat="44.69518" lon="5.48949">
        <ele>583.43</ele>
        <time>2019-06-01T12:05:16.000Z</time>
      </trkpt>
      <trkpt lat="44.69518" lon="5.48935">
        <ele>581.51</ele>
        <time>2019-06-01T12:05:22.000Z</time>
      </trkpt>
      <trkpt lat="44.69521" lon="5.48922">
        <ele>580.11</ele>
        <time>2019-06-01T12:05:27.000Z</time>
      </trkpt>
      <trkpt lat="44.69522" lon="5.48909">
        <ele>578.6</ele>
        <time>2019-06-01T12:05:34.000Z</time>
      </trkpt>
      <trkpt lat="44.69521" lon="5.48896">
        <ele>577.12</ele>
        <time>2019-06-01T12:05:42.000Z</time>
      </trkpt>
      <trkpt lat="44.69522" lon="5.48881">
        <ele>576.15</ele>
        <time>2019-06-01T12:05:49.000Z</time>
      </trkpt>
      <trkpt lat="44.69523" lon="5.48867">
        <ele>576.23</ele>
        <time>2019-06-01T12:05:55.000Z</time>
      </trkpt>
      <trkpt lat="44.69525" lon="5.48853">
        <ele>576.74</ele>
        <time>2019-06-01T12:06:01.000Z</time>
      </trkpt>
      <trkpt lat="44.69526" lon="5.4884">
        <ele>576.8</ele>
        <time>2019-06-01T12:06:08.000Z</time>
      </trkpt>
      <trkpt lat="44.69527" lon="5.48827">
        <ele>576.69</ele>
        <time>2019-06-01T12:06:14.000Z</time>
      </trkpt>
      <trkpt lat="44.69529" lon="5.48812">
        <ele>576.55</ele>
        <time>2019-06-01T12:06:22.000Z</time>
      </trkpt>
      <trkpt lat="44.6953" lon="5.48799">
        <ele>575.74</ele>
        <time>2019-06-01T12:06:30.000Z</time>
      </trkpt>
      <trkpt lat="44.69532" lon="5.48786">
        <ele>574.21</ele>
        <time>2019-06-01T12:06:38.000Z</time>
      </trkpt>
      <trkpt lat="44.69533" lon="5.48772">
        <ele>573.02</ele>
        <time>2019-06-01T12:06:46.000Z</time>
      </trkpt>
      <trkpt lat="44.69534" lon="5.48758">
        <ele>572.03</ele>
        <time>2019-06-01T12:06:54.000Z</time>
      </trkpt>
      <trkpt lat="44.69533" lon="5.48744">
        <ele>571.16</ele>
        <time>2019-06-01T12:07:02.000Z</time>
      </trkpt>
      <trkpt lat="44.69531" lon="5.48729">
        <ele>570.62</ele>
        <time>2019-06-01T12:07:09.000Z</time>
      </trkpt>
      <trkpt lat="44.69528" lon="5.48715">
        <ele>569.67</ele>
        <time>2019-06-01T12:07:15.000Z</time>
      </trkpt>
      <trkpt lat="44.6952" lon="5.48708">
        <ele>569.07</ele>
        <time>2019-06-01T12:07:22.000Z</time>
      </trkpt>
      <trkpt lat="44.69512" lon="5.48702">
        <ele>570.23</ele>
        <time>2019-06-01T12:07:32.000Z</time>
      </trkpt>
      <trkpt lat="44.69506" lon="5.4869">
        <ele>570.93</ele>
        <time>2019-06-01T12:07:39.000Z</time>
      </trkpt>
      <trkpt lat="44.69497" lon="5.48686">
        <ele>572.06</ele>
        <time>2019-06-01T12:07:47.000Z</time>
      </trkpt>
      <trkpt lat="44.6949" lon="5.48695">
        <ele>573.03</ele>
        <time>2019-06-01T12:07:55.000Z</time>
      </trkpt>
      <trkpt lat="44.69482" lon="5.48705">
        <ele>573.88</ele>
        <time>2019-06-01T12:08:02.000Z</time>
      </trkpt>
      <trkpt lat="44.69474" lon="5.48713">
        <ele>575.05</ele>
        <time>2019-06-01T12:08:09.000Z</time>
      </trkpt>
      <trkpt lat="44.69466" lon="5.48722">
        <ele>576.99</ele>
        <time>2019-06-01T12:08:16.000Z</time>
      </trkpt>
      <trkpt lat="44.69459" lon="5.48732">
        <ele>579.88</ele>
        <time>2019-06-01T12:08:23.000Z</time>
      </trkpt>
      <trkpt lat="44.69451" lon="5.48738">
        <ele>582.31</ele>
        <time>2019-06-01T12:08:30.000Z</time>
      </trkpt>
      <trkpt lat="44.69442" lon="5.4874">
        <ele>585.36</ele>
        <time>2019-06-01T12:08:38.000Z</time>
      </trkpt>
      <trkpt lat="44.69437" lon="5.48729">
        <ele>591.44</ele>
        <time>2019-06-01T12:08:58.000Z</time>
      </trkpt>
      <trkpt lat="44.69431" lon="5.48717">
        <ele>590.82</ele>
        <time>2019-06-01T12:09:04.000Z</time>
      </trkpt>
      <trkpt lat="44.6943" lon="5.48704">
        <ele>590.37</ele>
        <time>2019-06-01T12:09:09.000Z</time>
      </trkpt>
      <trkpt lat="44.69432" lon="5.48691">
        <ele>590.33</ele>
        <time>2019-06-01T12:09:14.000Z</time>
      </trkpt>
      <trkpt lat="44.69436" lon="5.48678">
        <ele>590.72</ele>
        <time>2019-06-01T12:09:20.000Z</time>
      </trkpt>
      <trkpt lat="44.6944" lon="5.48666">
        <ele>591.13</ele>
        <time>2019-06-01T12:09:27.000Z</time>
      </trkpt>
      <trkpt lat="44.69443" lon="5.48654">
        <ele>591.7</ele>
        <time>2019-06-01T12:09:33.000Z</time>
      </trkpt>
      <trkpt lat="44.69446" lon="5.48642">
        <ele>592.26</ele>
        <time>2019-06-01T12:09:38.000Z</time>
      </trkpt>
      <trkpt lat="44.69448" lon="5.48627">
        <ele>592.45</ele>
        <time>2019-06-01T12:09:46.000Z</time>
      </trkpt>
      <trkpt lat="44.69447" lon="5.48614">
        <ele>592.76</ele>
        <time>2019-06-01T12:09:54.000Z</time>
      </trkpt>
      <trkpt lat="44.69444" lon="5.48602">
        <ele>593.36</ele>
        <time>2019-06-01T12:10:01.000Z</time>
      </trkpt>
      <trkpt lat="44.6944" lon="5.4859">
        <ele>593.55</ele>
        <time>2019-06-01T12:10:09.000Z</time>
      </trkpt>
      <trkpt lat="44.69429" lon="5.4859">
        <ele>592.91</ele>
        <time>2019-06-01T12:10:16.000Z</time>
      </trkpt>
      <trkpt lat="44.69418" lon="5.48591">
        <ele>589.66</ele>
        <time>2019-06-01T12:10:26.000Z</time>
      </trkpt>
      <trkpt lat="44.69411" lon="5.48601">
        <ele>584.46</ele>
        <time>2019-06-01T12:10:33.000Z</time>
      </trkpt>
      <trkpt lat="44.69403" lon="5.48609">
        <ele>578.66</ele>
        <time>2019-06-01T12:10:44.000Z</time>
      </trkpt>
      <trkpt lat="44.69394" lon="5.48616">
        <ele>574.29</ele>
        <time>2019-06-01T12:10:53.000Z</time>
      </trkpt>
      <trkpt lat="44.69385" lon="5.48616">
        <ele>572.27</ele>
        <time>2019-06-01T12:11:00.000Z</time>
      </trkpt>
      <trkpt lat="44.69376" lon="5.48611">
        <ele>569.84</ele>
        <time>2019-06-01T12:11:08.000Z</time>
      </trkpt>
      <trkpt lat="44.69366" lon="5.48609">
        <ele>566.97</ele>
        <time>2019-06-01T12:11:18.000Z</time>
      </trkpt>
      <trkpt lat="44.69356" lon="5.48608">
        <ele>564.2</ele>
        <time>2019-06-01T12:11:25.000Z</time>
      </trkpt>
      <trkpt lat="44.69348" lon="5.48602">
        <ele>560.3</ele>
        <time>2019-06-01T12:11:38.000Z</time>
      </trkpt>
      <trkpt lat="44.6935" lon="5.48604">
        <ele>559.71</ele>
        <time>2019-06-01T12:11:46.000Z</time>
      </trkpt>
    </trkseg>
  </trk>
</gpx>